GFSGL_sfc_rhum_000.txt.gz
RH
40 42 43 45 43 43 45 47 49 50 46 43 44 48 53 67 76 78 67 57 47 47 45 43 42 39 38 34 34 34 35 34 36 32 26 27 32 34 33 34 33 34 34
42 42 43 44 42 44 48 50 54 55 54 52 61 72 71 71 60 55 53 45 42 40 40 41 39 26 37 37 35 39 38 37 37 41 34 31 33 33 35 38 30 24 29
41 40 41 48 48 52 56 60 64 68 70 74 69 68 68 62 56 47 40 39 41 42 41 40 38 40 43 39 40 40 37 31 36 37 37 33 32 32 34 35 36 38 28
44 42 46 52 61 67 71 63 59 55 54 50 47 48 50 43 39 37 35 40 41 38 42 44 43 44 44 43 39 40 36 37 36 35 34 34 33 33 33 36 38 36 36
48 44 49 48 45 44 45 44 43 42 36 34 35 36 38 36 30 48 39 41 42 43 46 42 45 48 59 60 48 45 42 40 38 37 38 37 38 38 40 37 40 41 41
48 47 42 43 40 39 40 39 36 34 33 35 36 38 40 30 76 72 67 48 43 41 42 41 40 52 51 64 64 65 65 57 50 48 48 51 47 45 43 47 51 53 55
44 40 42 43 37 37 32 30 32 36 39 41 40 42 45 44 65 67 69 49 46 45 45 44 39 32 50 43 56 68 69 70 74 66 68 62 60 56 54 60 61 59 54
42 40 42 39 36 32 32 33 36 37 39 40 43 44 44 38 62 67 68 56 54 52 48 46 44 43 45 56 56 58 59 57 58 57 60 54 52 50 52 51 54 60 62
41 43 44 38 37 32 33 36 38 39 40 42 44 45 46 47 63 66 66 66 62 59 49 46 51 62 66 69 72 84 69 61 58 68 69 70 71 74 70 64 84 75 87
44 49 39 38 36 33 36 39 40 38 40 44 54 55 60 63 63 66 66 68 81 74 71 65 70 66 74 75 90 89 82 60 57 63 62 79 80 64 77 72 71 78 74
39 40 40 37 34 35 37 38 40 41 52 76 89 75 66 65 62 64 67 80 82 79 70 68 64 89 92 85 79 83 80 75 70 67 65 64 61 64 67 68 69 80 80
40 41 41 37 34 33 39 40 42 47 62 80 90 84 60 80 58 64 68 74 82 91 83 76 92 82 82 77 72 76 76 81 81 84 83 75 72 67 60 61 63 64 68
42 42 40 38 38 38 40 46 46 48 70 74 60 64 56 59 60 69 78 78 74 85 89 92 83 83 80 74 79 78 84 86 87 87 84 79 76 68 71 79 74 65 64
42 40 40 41 44 43 43 44 43 60 71 58 59 58 60 59 66 72 74 76 82 85 84 91 87 89 90 89 78 76 80 81 80 83 80 75 76 83 90 82 85 86 87
39 41 45 50 51 50 45 43 52 59 66 65 61 64 78 79 77 85 89 87 89 87 91 88 85 85 83 73 72 73 73 73 81 81 82 80 78 74 81 78 80 83 91
51 49 55 62 60 56 45 46 71 69 68 66 68 74 73 69 76 84 87 89 88 88 85 88 91 92 87 74 74 77 77 78 75 78 85 82 81 79 80 89 79 81 86
70 71 63 69 61 58 60 61 64 58 68 69 68 67 69 71 75 81 85 88 87 82 86 88 91 92 86 69 73 76 79 78 81 80 84 83 82 78 85 89 94 91 84
79 88 70 64 63 66 70 70 68 71 74 70 63 61 66 70 71 76 80 81 80 80 82 86 88 86 73 66 70 77 80 82 81 80 83 83 84 83 82 82 86 94 90
68 67 82 81 79 79 77 73 70 69 67 66 60 55 63 67 70 73 75 82 85 84 80 78 78 75 73 69 79 81 89 86 84 89 84 84 89 84 79 77 83 91 91
60 78 78 73 74 72 71 72 68 68 66 68 64 67 68 66 80 82 80 82 75 66 71 67 70 73 79 78 81 81 76 84 83 82 87 88 87 88 82 79 79 85 82
61 64 84 68 68 72 74 72 70 71 70 69 69 79 76 75 78 79 73 74 72 70 74 70 74 78 78 79 74 79 74 80 80 82 84 86 89 88 80 77 78 76 71
70 76 76 76 73 77 75 73 75 74 69 70 72 70 73 79 76 76 71 76 78 73 71 73 72 72 76 78 80 83 78 80 79 79 83 85 82 85 84 79 78 80 73
80 86 78 70 79 79 82 77 76 80 77 76 73 70 74 80 80 76 76 78 73 76 75 73 76 73 73 77 77 76 79 81 81 79 80 78 75 80 85 82 76 80 76
79 91 80 84 86 82 84 84 84 81 81 78 80 79 78 78 82 79 82 82 76 75 76 76 73 72 73 77 75 72 71 81 78 76 75 74 72 73 75 73 77 76 80
92 96 94 91 88 84 84 84 84 86 84 81 80 81 76 80 74 76 79 79 78 76 71 74 76 71 72 72 75 76 81 79 76 78 73 68 71 72 73 71 74 70 74
86 88 89 92 91 87 84 85 85 86 86 85 81 82 81 77 77 77 75 73 73 72 69 72 72 72 72 66 69 77 79 81 81 77 73 65 70 72 73 71 71 70 70

GFSGL_sfc_rhum_003.txt.gz
RH
34 37 41 39 38 38 38 41 47 52 50 59 63 65 67 70 73 73 63 60 65 65 57 52 49 45 43 38 41 41 39 38 43 37 30 32 37 38 33 37 39 40 41
39 38 36 36 37 38 41 47 51 55 58 61 67 67 71 75 72 69 66 53 50 50 50 49 49 37 45 40 36 38 37 35 36 42 36 35 39 38 40 43 30 24 32
39 35 34 37 38 43 45 47 49 48 47 47 47 52 48 49 44 41 40 45 45 44 43 44 42 41 42 41 40 40 36 30 37 37 37 34 35 34 35 37 38 41 27
38 36 37 40 40 39 40 40 39 37 35 33 32 33 34 32 30 32 33 38 37 34 37 39 39 41 42 44 42 42 38 40 37 38 37 36 35 34 35 38 41 38 37
42 39 41 37 36 34 35 36 35 33 30 28 31 32 33 31 32 48 44 46 44 42 44 36 40 45 59 58 44 47 48 47 43 41 42 41 38 38 38 38 42 43 44
44 39 37 36 36 36 35 34 31 30 29 32 33 34 36 27 73 68 64 50 45 43 42 40 38 48 52 69 70 72 63 51 50 50 48 49 47 45 43 45 48 51 54
39 36 34 37 41 36 32 27 28 31 34 36 36 35 39 40 63 65 70 52 50 48 46 44 40 33 49 40 50 64 68 73 75 61 64 59 56 51 52 56 60 60 60
34 34 33 41 41 36 32 29 31 33 36 37 39 40 44 40 68 68 67 54 53 50 47 46 48 46 46 52 56 56 53 54 56 56 60 55 56 52 53 54 59 61 62
33 35 40 41 47 38 33 32 33 34 36 37 39 46 53 54 65 70 64 62 63 61 51 51 56 56 58 64 68 74 66 61 56 68 69 70 72 72 70 68 84 89 86
32 30 34 36 43 41 34 34 34 33 36 42 50 54 62 63 71 62 66 71 80 72 68 58 66 64 75 76 80 86 87 68 62 71 69 72 93 82 77 69 68 77 77
28 31 36 38 38 34 30 32 33 36 47 68 85 71 62 66 62 63 67 76 80 86 73 73 70 95 87 89 83 81 78 76 74 66 64 62 58 57 59 73 67 76 79
35 37 36 34 31 25 33 33 36 39 53 70 92 84 64 76 62 63 69 71 83 88 83 78 92 79 76 77 75 74 83 77 81 84 85 79 77 69 58 58 64 80 76
53 47 38 32 28 28 34 36 36 39 56 70 57 66 58 62 61 59 70 78 77 91 90 83 92 87 84 82 94 79 80 88 90 87 85 82 81 78 75 80 82 82 80
45 38 34 34 41 38 33 33 36 53 64 56 57 58 61 64 61 66 76 78 80 81 86 87 90 91 89 93 88 84 86 84 81 87 85 80 78 86 94 91 94 84 91
47 38 44 44 43 42 37 39 47 55 63 60 60 64 80 77 71 76 85 88 89 87 93 89 87 86 87 83 76 76 78 74 82 86 86 82 81 81 83 86 73 80 91
54 46 52 57 53 50 42 44 70 70 64 62 63 73 72 65 70 73 78 84 86 87 87 89 92 92 90 86 85 80 78 77 76 78 82 83 86 84 84 94 77 77 77
66 62 56 60 54 55 59 65 67 64 71 67 67 65 61 65 67 70 72 78 86 78 86 88 92 92 78 62 71 74 75 79 80 79 82 88 83 85 93 88 85 88 84
72 79 70 68 65 66 71 75 70 73 75 69 82 63 60 69 65 68 69 74 75 76 81 86 82 76 68 62 66 76 78 81 81 82 86 85 86 88 90 85 87 82 78
58 66 80 83 82 78 80 78 75 72 67 64 63 57 59 63 83 78 69 78 80 72 67 62 69 68 72 71 80 81 87 86 87 88 85 89 87 86 84 81 86 84 77
45 76 77 77 79 76 75 75 72 71 66 66 68 65 62 65 79 81 79 76 73 66 68 63 65 69 76 76 80 83 83 81 84 84 87 91 90 84 90 84 84 86 81
51 63 79 72 77 72 74 77 73 75 73 68 72 81 69 74 78 79 76 74 71 69 74 69 72 74 73 74 71 79 78 82 77 78 81 86 89 87 82 82 81 80 74
66 78 80 83 77 83 79 72 79 76 75 71 72 69 71 84 75 78 75 76 77 71 70 72 71 69 70 73 74 80 77 80 80 80 82 80 78 79 84 84 80 82 77
78 85 84 79 79 78 86 82 86 84 81 81 75 72 71 73 76 75 83 84 74 74 73 72 76 73 72 75 74 72 75 78 80 83 84 82 75 76 78 76 78 77 80
80 89 83 88 92 82 86 88 88 84 84 83 85 83 76 73 75 75 80 81 81 76 73 75 72 69 71 75 73 72 69 78 77 75 83 79 72 70 73 68 70 70 71
94 96 92 90 91 90 88 86 87 88 89 87 87 85 76 73 70 72 73 73 74 75 70 72 73 69 68 70 72 74 77 77 79 81 81 71 72 72 74 67 73 67 68
85 86 90 92 91 93 92 88 88 89 89 89 86 86 82 74 71 72 72 71 71 70 68 70 69 68 68 64 67 75 77 77 79 82 81 69 71 70 74 70 70 68 66

GFSGL_sfc_rhum_006.txt.gz
RH
48 52 56 55 54 55 58 63 63 65 63 63 60 64 66 68 82 85 82 74 69 69 70 67 67 63 66 64 60 55 57 66 68 54 50 46 48 54 44 44 48 62 71
52 52 49 51 50 53 58 57 60 60 63 59 60 60 63 65 74 78 79 73 70 70 62 61 59 45 56 54 53 53 55 55 58 56 54 50 50 50 49 54 41 30 46
47 47 46 50 51 54 54 54 56 57 56 54 48 49 46 49 48 49 50 53 54 53 52 54 52 55 60 60 59 58 55 45 54 56 57 56 53 54 49 50 48 54 41
48 46 50 54 51 51 52 51 53 52 48 46 46 47 50 43 39 49 48 56 58 52 56 54 53 52 56 60 59 67 56 63 58 58 57 54 56 52 55 51 56 56 57
52 50 55 51 48 49 53 51 52 51 44 45 44 48 50 44 47 64 59 60 60 58 57 50 51 56 60 64 48 59 64 67 67 64 63 60 57 59 63 61 66 67 67
41 48 45 48 46 53 55 54 51 49 46 48 51 51 54 35 72 70 70 71 62 61 63 57 54 57 56 66 68 67 69 69 64 64 63 66 63 62 64 71 80 82 83
40 40 50 69 64 63 52 45 43 50 53 56 56 55 58 60 72 71 71 67 66 62 61 60 55 44 61 56 69 74 71 79 84 76 75 75 71 65 65 71 79 85 88
32 43 56 61 59 53 55 53 49 51 55 56 60 59 63 53 70 71 74 74 70 67 65 62 62 62 67 67 70 79 74 69 69 68 78 79 72 66 70 75 80 79 85
28 47 51 66 51 56 58 60 53 53 56 60 60 68 72 69 71 82 85 83 79 74 67 68 69 68 65 65 74 83 84 76 61 67 71 76 75 75 76 79 86 88 95
53 51 48 44 51 55 61 58 53 53 54 70 76 77 75 76 76 70 76 88 88 81 80 72 67 73 90 89 96 97 95 86 78 82 80 72 67 80 89 92 91 89 83
45 50 55 58 53 47 52 48 52 55 69 90 91 87 79 77 77 66 76 87 90 91 83 80 80 95 93 79 74 90 89 80 86 82 79 75 73 72 70 69 84 95 90
52 52 55 53 46 35 48 54 54 59 79 84 86 85 83 86 67 67 78 68 74 95 93 92 91 82 79 78 81 85 87 86 90 90 90 91 92 87 78 72 73 85 91
54 50 50 46 41 44 52 55 57 65 83 84 74 78 74 76 75 71 70 69 76 95 93 91 91 88 84 89 89 82 91 93 96 98 93 94 95 90 85 90 91 92 93
51 53 52 51 54 52 47 50 60 84 90 79 78 79 79 78 79 79 84 86 78 85 88 92 94 90 93 95 92 86 91 97 96 97 96 93 94 96 96 94 98 97 98
55 55 62 72 70 61 51 66 80 84 80 84 86 87 93 91 81 70 77 89 94 93 94 93 92 91 92 91 86 89 91 89 93 93 95 95 92 90 92 92 94 95 98
76 73 76 79 82 69 64 64 72 73 63 62 62 85 90 70 66 64 68 69 80 86 92 94 95 95 93 94 95 94 91 95 90 93 94 92 93 93 92 91 95 98 97
80 79 76 77 80 82 84 84 87 80 74 69 69 71 66 66 66 65 66 68 82 81 94 94 95 89 86 79 81 86 93 94 88 93 95 95 94 93 97 94 94 94 92
82 82 84 86 90 91 89 85 84 87 91 90 85 78 59 62 64 72 70 68 82 83 89 90 85 86 84 82 83 87 92 91 89 91 95 95 96 97 96 96 95 97 95
74 79 92 92 95 93 89 91 89 87 86 85 87 81 78 62 66 76 68 93 89 80 77 76 84 84 86 85 89 89 90 93 92 91 92 96 96 96 95 93 94 95 95
68 78 83 87 94 92 92 90 87 89 85 88 88 93 91 87 94 94 94 94 94 87 86 81 81 84 89 87 89 90 89 88 88 88 90 91 95 96 96 95 94 95 93
76 82 81 87 86 95 91 90 91 93 91 88 92 95 80 90 95 95 95 96 94 94 93 87 88 89 87 87 86 89 88 90 88 90 90 90 93 93 94 95 93 93 92
87 86 91 94 94 94 94 89 88 92 92 92 93 92 85 95 94 94 94 96 95 93 94 93 91 91 90 88 90 90 89 91 90 91 90 91 90 87 88 90 95 94 93
90 89 90 91 93 96 93 92 94 93 93 94 92 93 94 94 93 93 94 94 95 94 94 93 94 94 93 92 92 90 90 93 93 91 92 94 93 88 88 90 88 94 93
89 91 90 89 92 94 94 93 95 91 92 93 93 93 94 94 92 90 92 94 93 93 93 93 93 90 91 92 93 92 89 90 90 91 92 95 92 90 88 90 92 89 93
91 93 93 92 92 92 94 92 94 95 93 93 95 94 94 94 93 92 91 91 92 91 89 90 93 87 86 85 89 88 90 88 90 89 92 93 89 90 89 91 90 89 89
95 86 91 92 93 93 93 95 96 95 95 93 94 94 93 95 93 92 91 91 92 91 88 92 88 82 84 87 86 86 87 87 89 88 91 93 92 92 92 91 88 90 89

GFSGL_sfc_rhum_009.txt.gz
RH
59 56 56 58 60 66 68 68 67 66 64 68 71 74 75 77 80 89 92 89 90 84 83 74 66 60 68 89 87 77 72 77 94 67 64 58 55 54 50 63 71 76 78
60 62 57 59 54 59 60 61 61 61 66 67 66 58 58 58 61 66 76 76 69 68 68 69 68 50 61 63 65 62 65 62 60 70 67 63 58 56 56 52 41 30 58
59 60 60 56 56 57 54 59 59 58 56 53 52 56 57 60 59 60 65 69 70 67 69 69 63 61 63 63 69 74 75 59 69 70 73 66 63 58 53 57 48 52 39
63 65 70 74 62 60 60 58 53 52 50 50 50 53 58 57 60 62 61 70 71 66 70 69 64 62 64 68 63 66 67 76 74 74 74 71 70 61 67 71 72 70 63
65 63 68 74 70 79 78 64 60 55 51 49 50 55 58 56 56 76 72 75 75 74 73 64 60 60 59 65 63 68 75 79 77 75 78 74 74 74 73 79 83 81 76
38 38 62 77 81 80 78 73 64 54 50 52 56 60 65 52 74 70 73 80 74 72 73 64 65 63 64 64 68 81 79 80 76 81 77 80 77 77 76 81 85 89 91
38 48 71 77 78 80 78 70 61 57 56 60 66 64 68 75 76 71 72 78 80 78 76 71 64 51 67 68 71 76 77 74 86 90 95 91 84 81 78 82 88 90 92
56 58 67 74 76 79 82 65 62 61 59 68 72 77 78 64 74 80 86 90 85 82 77 69 72 75 76 71 70 75 83 81 76 72 92 88 88 83 82 74 87 94 93
57 62 63 68 72 74 87 73 69 65 71 79 81 82 83 83 78 76 84 91 89 87 75 73 71 71 71 79 88 94 93 84 69 68 72 84 88 93 87 91 97 93 92
62 62 67 72 76 82 81 71 66 62 80 83 82 85 82 88 70 66 86 96 96 90 83 74 73 78 94 93 92 97 96 84 83 88 86 78 72 73 72 84 89 95 95
62 64 64 66 68 69 63 59 61 82 86 92 88 88 83 80 79 75 71 88 88 92 84 83 83 78 83 83 78 93 93 83 88 91 89 84 78 75 77 76 79 91 92
62 65 63 64 55 48 57 61 72 83 84 92 93 94 92 90 68 73 69 66 70 95 92 88 93 91 78 80 91 92 83 89 98 96 95 93 94 93 89 95 90 85 86
66 66 66 64 58 56 62 70 78 83 92 94 89 96 93 91 92 70 76 73 74 91 91 92 89 82 89 92 92 92 96 96 97 97 97 96 96 94 92 96 93 97 95
68 70 70 75 76 72 68 72 86 96 96 89 92 94 97 96 94 88 88 92 86 87 88 94 92 92 91 96 88 89 93 94 95 96 96 95 96 98 98 97 98 95 98
75 77 84 87 84 79 72 77 93 85 87 92 96 95 98 98 92 75 73 81 88 93 92 96 91 88 89 90 86 87 90 93 95 96 97 96 94 92 96 97 97 97 99
84 88 94 96 94 89 83 88 77 76 69 64 65 91 94 73 70 67 65 66 75 78 89 95 95 93 92 87 91 92 92 94 93 94 97 97 96 96 96 96 98 98 99
84 87 96 93 97 97 96 96 97 89 79 79 72 71 72 65 63 67 68 62 63 74 91 94 96 96 93 87 89 92 94 96 92 93 95 96 97 96 97 98 98 99 98
86 90 94 97 98 98 97 84 94 98 98 95 84 80 63 62 63 68 69 70 93 86 86 90 93 96 93 90 90 92 93 94 93 93 94 94 95 97 99 98 97 100 98
87 94 94 96 98 97 97 97 97 97 96 96 96 95 83 60 68 68 72 96 97 97 95 87 92 94 93 92 95 94 95 94 94 94 93 93 94 96 95 98 98 98 98
88 87 92 96 98 96 97 97 97 97 97 96 97 97 96 93 96 99 99 99 98 97 98 97 92 92 96 93 96 95 93 93 93 94 94 94 94 94 95 97 97 98 98
97 95 92 96 96 96 98 97 98 98 97 97 97 97 90 94 97 99 98 99 98 98 98 98 98 98 97 96 94 95 96 96 94 95 95 94 95 96 92 94 97 96 97
91 94 97 98 98 98 97 98 95 96 98 98 98 97 96 98 98 98 98 99 99 98 98 97 98 98 97 95 96 98 97 98 96 96 95 94 95 96 94 95 93 98 95
93 95 94 94 97 99 99 97 96 97 98 98 97 97 98 98 98 97 97 98 99 98 98 97 98 97 97 96 97 97 98 97 97 98 98 96 96 96 97 98 98 97 98
94 96 96 96 98 99 99 97 97 97 96 97 98 98 98 98 98 96 96 98 99 98 99 98 97 96 95 95 97 96 97 97 96 96 96 98 97 95 96 96 95 96 98
94 96 97 99 98 98 98 98 97 96 97 99 98 99 98 98 98 97 97 97 97 98 96 97 97 95 89 89 93 92 92 89 92 91 96 97 98 94 94 95 97 96 96
94 96 96 96 99 98 98 98 98 98 97 97 98 99 99 99 98 97 97 97 97 97 94 98 95 89 86 94 90 91 89 89 91 89 94 97 97 96 95 94 92 96 94

GFSGL_sfc_rhum_012.txt.gz
RH
66 65 66 64 65 74 73 72 72 70 70 66 71 72 68 69 69 76 82 87 78 73 74 73 73 71 76 78 78 76 79 81 84 67 73 64 60 61 56 58 57 82 90
69 70 69 67 64 64 72 73 72 68 66 65 63 57 58 59 62 65 70 70 71 71 73 74 72 53 69 71 74 72 80 74 76 80 74 65 62 59 62 65 49 38 61
66 72 71 71 71 69 68 70 67 69 66 69 55 53 55 61 63 67 70 72 72 72 74 76 74 72 71 69 71 73 71 60 77 77 76 74 70 64 64 66 65 69 49
53 65 71 72 82 76 76 75 76 77 78 72 54 54 61 62 64 65 67 73 74 70 76 76 76 72 70 72 70 74 70 78 80 82 79 76 75 68 74 78 82 80 72
47 52 80 82 80 81 79 82 81 83 81 57 55 58 64 66 61 76 72 74 76 77 76 73 67 64 60 59 63 74 94 93 89 83 78 79 76 77 75 81 84 82 77
48 70 72 77 80 84 86 86 90 87 56 58 61 66 68 57 76 72 75 83 77 76 80 71 71 65 66 66 70 71 69 95 91 96 85 78 79 79 81 81 86 89 86
58 65 70 81 80 87 90 92 92 79 74 66 71 74 77 75 77 76 79 81 86 85 84 80 72 58 71 76 78 74 71 71 80 83 92 94 91 84 83 86 90 92 93
64 66 68 76 77 83 88 89 94 95 67 75 83 80 78 70 80 78 81 93 91 88 84 82 77 77 73 73 82 93 82 83 81 74 81 89 90 86 85 80 85 88 94
63 66 69 75 77 82 89 92 92 79 79 84 79 83 90 88 67 74 89 96 89 86 76 73 71 85 83 80 84 94 90 79 67 71 78 78 82 82 88 95 94 90 88
68 67 70 74 79 81 85 90 72 74 81 77 79 85 72 83 67 66 66 98 96 88 82 73 74 75 85 91 96 96 95 84 83 85 90 82 76 78 72 80 87 94 95
64 69 71 69 68 68 64 62 77 84 82 90 86 88 83 78 80 64 65 84 90 92 84 82 82 85 80 80 88 96 93 92 92 92 93 91 86 83 82 84 86 90 92
65 68 68 69 65 58 68 78 78 83 86 93 95 95 94 94 66 71 68 68 72 96 92 88 94 82 90 90 90 91 87 96 97 97 96 94 95 95 91 95 96 96 88
71 71 72 72 72 71 70 80 85 85 95 94 90 97 97 92 90 77 78 72 78 95 90 85 76 81 84 90 86 92 94 95 96 96 95 95 96 96 95 98 97 98 96
73 77 81 83 83 80 74 78 85 97 96 90 94 94 97 92 94 94 92 96 88 88 90 91 90 83 84 90 90 92 94 96 96 96 96 95 95 96 97 98 98 98 98
78 80 83 90 88 86 75 82 90 84 89 94 96 95 98 98 92 84 75 81 90 89 94 93 90 88 87 86 86 88 90 93 94 95 96 96 94 95 96 97 97 99 99
86 85 91 97 97 88 87 80 77 79 73 71 70 90 94 82 71 67 66 64 61 71 94 97 96 96 96 92 93 92 88 93 93 93 95 94 94 95 96 95 96 99 98
98 89 93 94 98 97 97 97 95 86 82 79 78 74 74 69 65 66 66 64 62 73 98 98 99 97 96 91 92 93 95 94 92 94 94 95 95 95 96 98 99 99 98
91 96 96 91 98 98 99 96 94 98 100 98 84 82 76 64 62 63 68 71 93 90 98 98 98 98 94 92 92 94 94 93 94 93 94 95 95 96 96 96 98 100 99
98 92 96 98 98 98 99 98 98 98 98 98 97 96 91 68 67 71 78 96 97 97 98 98 99 98 97 96 98 97 99 95 95 96 95 94 95 95 94 96 97 99 98
92 90 97 97 95 96 99 98 98 98 99 98 98 98 97 93 94 100 100 100 100 98 99 98 98 99 99 98 99 99 98 97 95 95 96 96 96 96 95 96 97 98 100
95 85 88 92 94 94 97 98 98 99 96 98 98 99 96 94 96 98 99 100 99 99 99 98 98 100 99 98 98 99 99 99 97 96 97 96 97 98 95 96 97 97 96
93 90 95 95 96 99 98 98 98 97 97 98 98 98 99 98 98 98 99 98 98 98 97 98 98 98 98 97 98 99 98 98 98 97 98 96 97 97 96 98 98 99 98
97 96 97 97 96 99 100 100 99 97 97 98 98 99 99 100 98 98 98 96 98 99 99 99 99 98 98 98 99 98 98 97 98 99 100 99 98 99 98 100 99 98 98
95 94 94 96 99 99 100 100 97 98 96 97 99 100 99 98 99 99 97 96 100 99 100 99 98 96 97 98 99 98 97 98 98 97 98 99 99 97 98 98 98 98 98
97 96 96 96 96 97 99 100 99 97 97 96 99 100 99 100 99 100 98 98 97 100 98 100 98 97 95 93 96 94 94 93 93 91 97 98 100 96 97 97 98 97 98
97 96 96 95 97 98 98 99 98 98 99 97 96 98 100 100 99 99 98 99 98 97 98 99 98 92 94 96 93 94 88 89 91 90 96 96 98 97 97 97 95 97 97

GFSGL_sfc_rhum_015.txt.gz
RH
76 76 78 79 74 74 81 81 77 74 75 76 74 71 70 63 66 69 72 80 79 74 75 75 76 74 80 82 83 79 79 86 90 75 80 74 62 59 60 63 63 67 89
66 70 72 75 73 76 76 78 76 74 76 70 73 73 65 62 64 66 70 72 73 73 75 77 76 57 76 79 80 73 75 73 83 79 80 77 67 60 62 64 55 49 69
54 62 66 74 80 86 75 73 76 75 74 83 82 80 66 63 62 67 71 72 71 74 76 77 77 77 78 73 71 75 76 68 76 78 77 80 79 73 68 68 68 74 51
48 59 71 77 79 77 79 78 80 82 90 87 87 72 65 64 66 66 67 71 76 73 76 78 78 76 74 72 70 72 76 90 86 92 90 82 76 74 78 80 80 79 73
48 62 74 81 83 84 86 89 88 86 88 94 69 67 68 69 62 72 71 77 79 79 78 74 72 70 66 62 62 73 81 83 87 93 90 88 86 79 78 80 82 82 80
50 66 72 79 83 85 90 92 92 94 87 74 76 72 72 60 75 74 83 89 81 81 87 77 76 71 69 66 69 70 71 83 90 94 85 90 89 79 80 84 84 89 88
52 68 72 77 82 82 87 92 93 94 94 80 79 79 76 76 79 78 82 90 92 91 84 82 73 59 71 74 75 75 74 77 83 93 92 87 85 88 83 87 91 92 93
59 70 72 74 79 81 86 91 93 94 94 84 82 78 82 78 69 72 82 90 90 85 74 77 77 77 81 74 88 86 80 77 74 77 96 86 82 84 85 80 84 88 90
67 70 72 77 81 84 86 90 92 92 83 84 80 82 82 76 66 66 71 94 89 84 75 73 70 75 77 84 90 92 90 81 67 67 67 71 95 92 94 95 96 91 89
68 72 73 79 79 77 80 88 76 78 78 75 72 84 69 82 68 64 68 97 97 88 83 74 76 74 80 81 96 96 96 80 78 83 87 86 80 79 74 83 96 95 90
66 69 74 70 72 72 70 70 86 86 84 86 86 88 81 76 79 66 65 93 92 92 87 84 84 80 83 84 84 96 95 92 93 90 92 93 89 85 84 84 88 90 91
70 73 72 71 71 65 70 86 81 83 84 91 96 96 94 94 69 76 72 70 72 96 94 89 93 72 83 82 87 91 89 95 96 96 95 95 96 96 92 95 95 94 88
78 77 74 76 78 78 74 84 86 85 94 94 94 97 96 91 91 75 84 72 78 96 91 80 73 72 75 81 80 86 92 94 95 96 95 94 96 96 94 98 98 98 97
81 75 77 80 81 82 74 77 85 97 97 90 96 97 97 92 95 93 96 97 87 84 91 94 92 86 87 87 86 86 91 95 95 95 95 95 95 96 96 97 97 97 98
85 78 83 96 85 82 75 82 84 83 87 95 96 95 98 98 93 83 79 92 92 92 94 97 96 91 91 88 88 88 88 88 92 94 93 93 93 94 96 97 97 97 98
94 92 98 98 93 86 86 86 76 83 79 76 77 92 95 84 76 66 65 64 63 70 94 99 100 99 97 92 94 93 92 91 91 92 94 93 94 94 95 95 96 97 97
89 90 99 98 96 97 96 95 95 84 80 80 77 80 79 81 68 63 64 64 63 74 98 99 100 100 99 92 93 93 95 94 92 93 94 94 94 93 95 95 96 97 97
92 96 99 98 97 96 96 96 97 97 98 98 85 83 80 72 66 63 65 74 93 90 98 100 100 100 100 95 93 95 95 93 94 95 95 95 95 96 95 95 95 98 97
96 98 99 97 98 97 96 99 98 97 97 99 98 95 96 72 70 72 81 97 97 97 97 98 99 100 100 99 100 99 99 97 98 98 96 95 96 95 94 95 96 96 97
98 99 98 93 94 94 98 99 99 98 98 99 99 99 98 94 94 97 100 100 100 98 98 97 96 99 100 99 100 100 98 98 95 95 97 98 98 97 96 96 96 100 98
98 98 93 90 94 97 98 98 98 98 97 96 98 98 96 97 97 97 98 100 100 99 98 97 98 99 100 100 98 100 100 100 97 97 97 97 99 100 96 97 98 97 96
97 98 94 92 92 99 98 98 98 98 98 96 96 98 100 100 98 97 97 98 98 97 97 98 97 97 98 98 98 100 100 100 98 98 98 97 98 98 97 97 98 98 97
98 98 97 97 97 98 100 100 100 100 98 97 96 98 100 100 98 98 98 97 98 98 98 99 99 97 98 99 100 99 99 99 99 99 98 98 98 98 99 99 99 98 98
99 98 97 96 99 98 100 100 100 100 98 97 97 98 99 99 99 100 99 98 99 98 100 100 98 96 97 100 100 100 98 99 100 99 98 99 98 97 97 97 98 98 98
98 98 98 97 94 94 96 96 97 98 97 96 98 97 97 99 100 100 99 99 98 99 97 99 99 97 93 93 96 97 98 95 96 96 98 98 100 97 97 97 97 97 97
98 98 97 97 97 97 96 95 95 95 95 97 97 96 96 97 99 98 98 99 100 98 97 99 98 95 93 96 95 98 96 93 95 92 99 98 98 97 97 97 95 97 96

GFSGL_sfc_rhum_018.txt.gz
RH
66 71 70 71 72 78 81 83 83 81 78 77 80 80 78 74 73 74 74 73 82 80 75 75 76 76 79 81 79 75 75 80 81 65 62 63 72 68 61 62 61 70 79
58 60 60 68 75 83 80 80 83 83 82 84 74 75 78 80 72 71 71 73 75 73 74 76 75 60 74 75 75 73 72 71 77 82 73 71 71 68 68 65 49 45 60
50 56 61 70 75 76 75 76 78 84 84 76 78 86 89 79 67 69 73 72 71 74 76 78 76 78 77 75 72 72 72 65 74 87 86 76 76 72 68 66 65 70 52
48 55 66 72 76 81 81 84 87 88 86 84 87 92 78 68 67 68 67 73 76 75 77 78 80 79 78 75 72 73 67 75 76 76 75 89 82 73 72 68 68 71 63
51 53 66 76 84 88 90 90 92 93 91 89 90 83 73 69 62 71 76 82 84 85 83 80 77 74 71 66 62 69 77 91 87 82 78 76 76 80 84 82 72 70 69
53 56 70 76 80 88 87 87 93 94 94 95 73 74 75 63 78 78 88 94 88 85 85 76 72 68 68 68 70 70 72 93 93 87 81 81 77 74 85 87 75 77 72
56 58 72 76 80 84 84 90 92 93 95 90 81 77 81 85 72 70 83 79 80 80 76 73 69 57 71 73 78 76 76 76 84 91 90 84 84 75 74 85 92 83 79
55 64 73 77 80 83 87 88 91 94 94 83 80 83 83 68 65 66 68 87 87 81 76 76 73 75 75 71 87 85 74 72 74 75 76 79 80 88 78 73 75 77 82
59 72 75 78 83 88 85 84 90 91 87 81 78 76 73 71 66 64 69 87 86 82 73 73 70 75 76 79 89 91 81 76 66 68 72 72 70 72 86 93 96 94 88
65 72 75 80 83 78 79 81 85 84 83 78 74 79 69 79 67 65 68 93 97 89 85 73 75 71 75 78 94 94 93 78 79 82 83 79 79 79 77 79 86 93 92
68 72 75 78 75 75 75 74 78 88 83 88 87 86 78 74 79 68 68 92 92 92 88 83 82 79 69 72 76 94 94 88 89 87 86 88 86 84 80 79 79 84 86
78 81 82 79 72 72 77 84 85 86 84 92 96 95 92 94 73 75 73 71 71 99 90 88 92 69 68 71 77 80 80 90 92 93 91 89 91 89 85 91 89 86 82
88 84 85 78 74 77 77 84 85 86 95 94 94 97 94 91 92 76 82 75 69 95 90 79 73 72 76 81 77 78 88 92 93 93 92 89 91 90 87 91 91 94 94
86 85 86 85 84 80 80 74 87 98 96 87 97 97 97 95 95 93 94 97 78 84 91 92 92 87 90 89 84 85 89 90 94 93 92 91 91 93 94 95 95 94 95
93 90 90 92 98 86 75 84 87 85 86 93 95 95 98 99 92 86 82 95 94 93 94 96 96 93 89 88 86 85 87 85 89 92 92 91 90 90 92 94 94 95 95
97 92 89 97 99 95 82 85 79 84 80 79 79 93 96 84 78 74 62 64 63 69 92 100 100 100 100 94 93 91 87 86 87 90 92 90 91 92 92 90 90 93 94
96 93 93 99 98 98 98 92 97 85 79 81 81 79 81 83 80 68 62 64 62 74 97 99 100 100 100 95 96 91 93 88 89 90 93 93 93 90 93 92 92 90 89
96 97 98 98 98 98 98 97 98 98 97 96 85 80 81 80 77 68 65 75 93 90 96 98 100 100 100 96 96 97 92 92 90 91 95 95 95 94 94 93 92 96 90
97 98 98 99 98 98 99 98 98 98 97 97 98 95 98 83 74 74 76 97 97 97 95 95 98 97 99 96 100 100 100 97 95 97 96 95 97 94 93 93 95 97 95
96 99 99 98 98 96 99 99 98 98 97 97 98 98 98 96 98 97 100 100 100 98 97 96 95 96 98 98 100 100 100 99 97 92 96 97 97 96 96 95 95 97 89
97 98 98 98 98 93 93 98 98 98 96 96 96 97 96 98 98 98 97 100 100 99 98 97 97 98 97 98 96 100 100 100 98 96 94 94 97 98 94 94 95 92 86
99 98 97 97 97 96 94 97 98 99 98 97 96 96 99 100 100 99 98 97 97 97 97 97 97 96 96 95 96 100 100 100 99 98 98 95 94 94 95 94 94 94 89
98 98 97 97 97 98 100 98 100 99 98 98 97 97 98 100 100 99 97 97 97 98 98 98 98 98 97 98 98 96 99 97 96 100 100 99 96 95 95 94 93 92 91
97 98 98 97 98 97 98 97 98 99 100 97 97 96 96 96 97 97 98 97 98 99 99 98 97 97 97 98 98 98 96 98 98 96 99 100 99 96 93 90 90 91 92
98 98 98 97 97 97 97 96 95 94 94 94 95 95 95 95 96 97 98 98 99 100 99 98 98 97 96 94 94 95 98 98 96 96 95 100 100 99 94 91 92 88 90
98 98 98 98 97 97 97 96 96 96 96 96 96 96 95 94 94 94 95 97 98 99 98 98 97 96 96 96 92 97 98 97 95 92 98 97 99 97 96 93 91 90 88

GFSGL_sfc_rhum_021.txt.gz
RH
41 45 42 43 48 52 51 50 49 55 52 59 61 62 61 66 65 64 57 53 54 55 56 56 55 53 52 49 49 47 47 46 53 45 38 38 43 45 43 43 41 45 47
38 38 40 45 46 48 49 50 54 56 60 62 62 61 61 72 66 61 53 53 55 55 53 54 55 47 54 51 50 50 49 47 50 50 42 42 48 47 47 51 42 38 37
33 34 36 41 47 51 54 56 57 60 64 66 62 64 73 73 56 53 55 54 52 54 56 57 57 58 56 50 50 50 49 48 52 53 54 46 43 43 59 50 48 48 38
31 31 38 47 53 57 60 62 63 64 69 69 71 75 74 57 54 53 52 55 58 58 61 61 59 56 53 51 54 57 53 64 62 62 58 52 51 47 52 58 56 44 43
36 36 43 49 58 60 64 63 65 68 69 71 71 67 65 57 49 59 61 62 60 57 54 48 48 55 65 61 56 58 61 65 63 65 57 50 48 48 52 50 61 60 64
38 41 45 53 57 60 61 66 66 67 67 74 69 61 59 53 79 76 71 55 51 47 47 46 45 54 53 65 66 68 67 79 84 66 61 68 63 56 53 53 74 70 61
42 42 46 58 60 60 59 61 62 64 72 76 64 57 61 59 65 67 68 54 51 50 48 48 48 45 57 53 58 65 72 68 74 77 79 61 56 50 56 68 68 72 68
43 45 53 58 59 58 63 62 61 62 70 70 62 61 58 49 64 65 66 52 53 50 49 51 51 53 54 62 79 67 58 50 54 60 69 65 59 57 57 70 75 67 61
44 48 53 59 59 61 61 59 57 62 64 62 59 58 52 49 62 63 61 63 62 59 54 52 54 55 67 77 70 75 59 52 55 61 69 71 74 76 74 69 80 75 75
51 52 55 56 60 61 59 57 56 56 59 58 56 56 62 59 63 63 63 69 80 68 61 51 61 65 74 66 70 75 78 64 57 60 58 61 67 68 80 66 60 83 72
57 59 58 56 60 59 58 55 55 56 65 70 73 66 60 61 59 65 68 76 73 71 62 56 58 72 65 65 68 76 84 71 74 67 60 55 56 59 65 72 58 61 63
58 65 60 62 60 56 60 57 59 64 69 72 86 80 67 77 68 66 70 73 69 77 74 63 70 68 67 70 68 72 75 77 80 80 77 69 70 71 64 67 76 76 62
68 66 60 61 62 60 62 61 58 60 68 72 68 75 67 71 67 70 73 81 71 75 74 67 69 70 69 64 68 73 75 75 80 81 79 76 78 80 83 88 83 75 81
68 70 68 65 61 63 69 60 59 69 71 68 75 73 69 70 73 66 72 72 70 68 71 64 76 72 70 74 65 65 67 72 80 83 81 78 78 83 87 88 90 90 90
72 70 72 73 78 73 73 60 63 65 68 74 73 74 87 87 76 73 80 75 74 71 76 71 69 68 61 61 63 63 60 61 72 80 82 80 76 75 78 82 87 90 92
78 75 77 79 78 78 74 66 77 80 80 80 80 89 88 82 77 75 73 65 62 67 66 72 78 82 75 64 70 67 64 61 67 76 81 79 80 81 79 75 77 84 86
78 80 79 86 83 83 85 83 82 76 80 82 84 83 81 84 81 80 72 66 65 67 71 73 83 82 78 62 62 64 65 65 69 75 81 82 84 80 81 78 77 76 76
80 91 88 84 86 89 88 89 87 90 92 84 79 75 77 77 83 80 74 69 74 73 70 73 79 79 73 62 61 64 66 69 67 68 82 86 87 84 84 80 77 81 74
76 84 92 96 95 95 95 94 90 90 89 83 81 85 84 84 81 84 78 82 81 77 73 69 76 74 73 69 77 81 84 81 80 78 78 84 89 81 80 79 80 82 77
78 89 94 92 94 92 92 93 85 88 86 86 86 82 75 85 92 91 91 93 91 83 82 76 72 73 78 78 83 86 82 80 77 71 77 84 87 84 81 83 83 83 72
76 77 95 96 89 86 90 94 84 86 89 87 86 95 88 80 84 86 86 91 89 85 87 82 82 83 83 84 78 80 78 84 80 74 73 75 86 84 77 78 79 76 71
84 86 91 95 92 95 91 91 87 84 85 86 84 86 91 94 88 88 87 90 91 88 84 86 83 79 80 77 78 84 82 84 83 77 74 77 80 77 76 76 78 76 73
93 94 90 86 92 93 95 92 92 92 92 91 88 87 88 94 93 89 89 90 90 91 89 88 92 86 85 88 86 81 82 77 79 83 79 79 79 79 80 77 75 74 75
96 99 91 89 95 94 95 96 95 93 89 91 92 91 90 90 92 92 92 90 91 93 93 93 89 85 82 90 88 84 78 82 83 79 78 80 81 78 78 72 75 77 76
93 95 99 97 98 98 97 95 96 96 96 94 94 94 93 96 94 93 92 91 90 92 92 94 92 87 88 89 87 85 81 88 86 82 75 79 84 87 82 74 80 74 76
93 98 99 98 97 97 95 95 95 97 96 97 97 97 97 97 96 96 95 92 91 91 92 92 92 90 88 86 86 86 88 91 86 86 76 74 81 78 77 76 78 78 74

GFSGL_sfc_rhum_024.txt.gz
RH
37 32 31 28 28 30 30 31 33 38 37 38 41 44 43 43 46 50 55 54 48 42 45 47 46 43 40 37 38 37 37 37 43 37 32 33 37 37 36 40 40 38 36
30 28 26 27 26 28 30 33 37 40 39 40 44 44 44 47 60 71 53 41 43 45 45 46 46 35 43 41 37 39 37 38 44 47 40 40 42 41 41 44 33 32 34
24 23 24 26 28 30 32 37 39 41 40 42 43 46 47 55 63 59 50 47 46 47 48 49 47 46 44 39 40 39 39 41 47 51 50 44 43 42 42 44 45 46 33
23 22 24 30 31 34 36 40 42 42 43 43 46 48 52 51 52 48 45 50 49 46 48 47 44 41 42 45 42 43 43 49 49 52 52 49 48 39 38 47 48 44 48
25 24 29 32 34 36 44 44 44 46 44 44 48 50 52 52 46 55 48 48 46 44 42 37 38 46 57 56 48 50 53 58 60 55 60 54 49 48 54 47 49 42 44
26 29 30 34 35 39 44 46 43 45 43 44 47 53 53 39 73 72 66 44 42 39 38 37 37 44 46 57 61 62 59 65 71 69 67 60 57 47 45 47 54 58 60
28 30 31 36 37 41 38 38 40 44 48 48 51 53 51 52 61 62 64 42 41 40 40 39 37 33 46 45 54 62 67 70 85 70 68 68 68 56 56 55 56 57 65
30 31 31 36 39 38 40 40 45 46 47 48 51 50 52 46 62 62 64 44 45 44 43 43 43 41 44 57 63 59 48 44 39 44 54 54 53 53 56 60 62 55 54
29 29 33 40 42 38 39 44 46 46 47 48 48 52 52 48 61 61 61 53 53 52 45 44 44 43 59 68 60 59 49 42 50 54 58 62 65 72 69 66 70 62 75
32 35 38 40 40 40 42 46 47 47 45 44 48 52 58 54 63 61 60 62 76 60 51 45 48 56 67 64 68 68 74 59 50 52 51 50 50 51 72 69 62 64 62
39 40 37 38 41 43 46 48 48 48 50 58 65 58 55 58 57 62 63 74 69 65 56 51 47 60 64 65 66 70 75 63 64 61 56 53 49 52 51 55 76 60 63
40 39 41 43 43 42 49 50 50 51 57 64 97 81 61 65 69 65 67 69 69 78 69 58 64 61 66 65 64 69 69 73 69 75 72 68 67 70 67 67 65 60 61
46 46 46 47 47 44 49 54 58 52 57 62 60 68 62 65 61 73 67 70 75 77 70 68 68 65 60 54 56 64 65 64 71 77 74 71 72 72 73 85 85 84 66
50 48 47 50 50 48 47 58 59 58 62 59 61 61 61 60 63 61 64 68 72 70 63 62 62 73 63 58 54 52 57 60 68 79 76 70 66 73 76 77 89 93 87
48 51 56 55 54 50 48 56 59 55 61 62 65 68 84 85 74 69 71 71 75 67 78 72 63 59 55 49 52 53 54 51 56 70 75 75 69 67 71 77 77 81 91
62 59 60 62 58 59 57 56 76 77 79 78 80 84 85 82 80 74 72 74 67 64 68 71 77 78 71 58 60 58 56 55 52 61 71 70 76 76 73 72 74 79 84
61 62 61 66 64 65 70 76 78 74 82 84 85 84 83 83 81 83 79 76 69 69 74 70 79 80 76 56 54 54 59 59 62 55 63 68 70 69 79 76 76 75 76
66 80 67 67 72 78 78 80 79 84 89 86 90 76 79 80 78 82 80 77 73 80 72 70 75 74 67 56 52 54 57 66 66 62 66 71 74 70 69 68 75 82 73
62 64 77 86 82 88 92 91 91 93 95 75 70 81 80 80 79 79 80 88 76 72 63 60 69 67 65 61 71 75 75 75 77 75 71 69 76 70 67 64 66 68 66
59 78 80 70 73 86 83 82 87 93 91 81 75 73 70 84 94 89 92 93 88 78 73 65 63 64 71 72 78 81 79 76 74 68 71 73 76 73 70 68 69 69 59
57 56 72 69 67 71 82 86 86 95 91 80 84 96 80 80 84 85 82 93 89 79 81 73 75 76 76 78 72 77 74 80 72 70 70 67 74 75 66 66 66 62 57
68 72 80 86 77 85 87 87 95 94 89 81 83 85 82 96 88 87 85 91 99 90 84 81 79 72 72 71 73 80 78 78 77 75 76 67 68 71 68 66 67 68 61
80 91 92 89 86 86 94 91 98 100 99 99 89 86 88 97 96 88 95 100 95 96 92 84 89 81 78 81 82 78 78 74 72 78 79 73 71 73 76 71 65 66 67
80 91 90 96 100 93 98 100 99 97 96 100 100 100 100 100 100 100 100 100 100 100 100 94 84 84 79 84 81 82 74 75 74 73 79 73 72 71 73 66 64 66 67
94 99 99 98 100 100 100 98 100 100 100 100 100 100 98 100 100 100 100 100 100 100 98 96 92 89 88 81 80 81 75 76 77 73 75 73 74 75 73 68 68 67 67
96 94 97 100 100 100 100 100 100 100 100 100 100 100 100 98 96 99 100 100 100 99 100 99 94 89 88 85 83 82 81 84 84 83 78 70 72 71 70 68 65 68 64

GFSGL_sfc_rhum_030.txt.gz
RH
45 52 54 49 49 44 48 48 47 47 47 49 49 50 50 52 55 62 66 64 70 81 82 75 74 66 73 71 68 64 59 59 59 51 45 50 52 59 52 53 52 49 48
47 46 48 50 45 44 45 46 47 48 49 49 49 48 49 50 56 60 66 67 68 69 69 66 65 48 65 62 61 62 61 54 56 58 56 57 60 57 56 57 45 39 46
39 40 43 47 43 42 44 44 44 48 50 50 48 52 52 54 54 58 60 63 68 68 70 68 65 60 60 64 66 61 61 49 61 63 62 60 60 58 58 58 57 57 47
40 40 46 47 45 42 43 44 47 48 50 51 52 54 56 52 52 53 53 62 67 60 64 63 56 55 61 62 55 64 55 65 64 67 67 65 61 60 66 65 68 62 62
45 43 45 48 38 41 46 47 49 53 50 51 52 55 55 52 47 64 57 62 66 62 61 49 50 52 48 55 53 65 71 76 71 68 68 72 69 64 62 80 92 75 66
47 49 42 41 40 45 47 50 53 56 52 51 53 54 58 44 78 71 64 65 61 60 61 57 54 56 59 63 63 56 64 80 81 84 81 80 73 74 82 72 74 76 76
50 43 43 38 41 45 41 42 45 51 55 57 58 57 61 72 77 68 65 60 66 67 62 62 54 37 68 66 62 62 62 59 69 74 76 83 83 70 67 70 72 77 82
46 39 39 39 37 37 43 47 52 53 57 60 60 59 64 62 77 69 65 66 70 66 64 63 63 62 77 69 76 70 64 59 55 47 65 64 61 63 68 68 74 72 75
36 41 39 35 36 42 47 50 52 54 59 60 56 60 64 74 78 70 65 72 75 73 63 63 60 60 68 62 72 76 71 63 51 55 56 57 62 69 69 75 93 90 91
42 40 40 38 43 47 49 53 56 56 53 56 61 64 69 80 76 70 67 90 88 88 76 66 64 64 59 61 84 86 86 75 66 63 65 66 64 67 73 74 96 96 94
46 45 43 50 54 47 52 54 56 59 67 74 76 74 72 82 80 71 68 82 93 93 86 84 84 65 68 65 62 84 84 70 72 75 72 72 72 69 70 73 78 86 96
60 62 58 49 46 41 56 58 60 65 76 79 98 91 92 82 78 77 72 72 71 91 88 88 89 69 67 65 67 65 60 76 86 91 80 80 79 81 74 75 78 80 78
62 56 56 52 48 45 58 64 66 68 84 88 93 95 94 94 91 82 78 76 74 91 92 85 74 70 69 72 66 62 75 88 92 91 84 87 78 77 75 78 77 78 76
68 68 59 57 58 61 57 61 66 89 92 92 92 93 93 94 92 98 90 88 77 83 87 90 90 84 84 83 85 81 89 91 90 92 91 79 83 78 82 80 83 83 86
61 55 62 71 72 68 60 62 79 78 87 91 92 93 97 96 93 84 92 98 96 94 92 93 93 88 90 89 90 85 88 88 89 92 92 89 80 76 76 78 79 84 88
62 68 86 91 88 73 65 69 68 75 79 78 78 88 94 86 80 80 79 76 72 74 91 95 95 93 94 93 92 92 90 86 90 89 92 91 91 87 80 76 77 85 87
81 83 84 84 84 83 88 80 83 80 80 84 84 82 82 79 84 83 81 80 78 79 97 95 91 91 93 93 91 91 89 90 86 92 92 93 95 86 89 84 80 80 82
80 80 77 79 89 92 87 88 88 86 88 85 88 83 84 83 84 83 85 88 95 89 95 91 89 90 90 91 91 90 91 92 92 94 93 94 95 95 91 91 84 85 83
72 74 79 88 92 92 91 87 84 84 87 88 89 88 96 90 88 87 87 94 93 91 90 91 86 86 85 90 93 93 92 94 93 94 96 95 94 95 94 90 93 86 81
60 75 82 84 91 90 86 87 82 82 82 85 85 85 96 99 98 96 94 94 92 89 87 86 87 90 91 91 95 95 95 95 95 96 95 94 95 94 95 93 94 94 82
68 69 82 92 93 97 92 86 86 88 94 91 87 88 92 98 98 93 93 93 92 90 88 88 88 86 87 92 94 94 94 94 94 93 93 93 94 94 94 94 94 91 90
79 79 80 86 92 93 90 87 87 88 94 94 89 87 93 98 98 90 86 89 95 94 90 88 88 86 86 86 90 91 91 94 94 95 94 95 93 94 95 95 95 94 92
94 97 94 85 86 95 91 89 89 90 90 93 94 92 94 98 98 97 93 89 89 90 92 93 98 96 86 86 86 85 89 91 92 92 94 95 94 94 95 94 95 93 92
77 83 86 91 98 97 94 91 93 92 91 96 98 95 96 99 99 99 99 99 99 97 93 98 98 98 95 94 90 88 83 87 92 91 89 94 94 92 94 94 93 91 93
82 86 88 88 97 99 99 98 94 91 97 99 98 97 96 96 97 97 97 97 96 96 94 98 97 97 97 97 97 95 84 83 87 91 91 92 92 89 90 93 93 91 90
90 93 92 90 90 90 97 99 96 95 94 96 95 96 96 92 88 89 88 87 86 91 94 95 92 95 96 96 95 97 94 84 87 87 89 89 93 95 95 94 90 91 90

GFSGL_sfc_rhum_033.txt.gz
RH
62 60 58 54 50 48 46 48 48 48 50 51 54 54 50 54 60 65 69 70 76 81 84 85 79 71 78 72 72 72 72 72 74 68 63 66 64 67 58 62 61 57 57
60 59 55 54 48 46 48 51 53 51 54 55 56 52 52 55 61 69 69 69 72 78 78 72 67 54 67 69 74 68 69 70 74 72 71 67 70 69 64 64 53 45 54
52 51 55 49 47 49 46 48 49 53 54 58 55 54 55 59 59 64 66 66 71 73 73 72 71 66 67 71 66 68 70 55 75 78 71 70 70 69 65 66 67 72 55
46 50 52 53 53 44 50 48 48 50 54 56 54 54 59 62 57 58 62 68 69 66 67 68 67 64 62 60 58 64 62 74 77 82 73 70 69 68 75 75 81 79 75
46 46 55 56 48 52 52 52 54 58 55 52 52 55 61 61 55 66 60 65 64 64 66 60 58 56 56 59 56 68 76 82 85 82 76 75 76 76 78 89 83 69 65
50 54 54 55 50 55 51 48 51 54 58 56 57 61 61 49 79 72 66 64 59 63 70 66 61 58 66 65 62 61 66 82 92 98 82 82 77 88 86 83 75 78 79
63 56 57 61 55 51 45 45 50 52 54 60 61 62 65 71 78 74 70 61 63 69 74 69 60 56 69 67 64 63 63 59 74 82 81 81 78 72 75 78 81 86 87
58 50 48 50 49 52 48 53 58 62 65 66 66 64 73 68 80 78 72 66 69 74 74 70 70 73 74 70 75 73 73 72 66 58 74 71 70 69 76 74 80 81 82
49 50 52 54 51 54 62 70 72 71 63 65 64 66 73 78 82 78 71 73 74 77 73 72 71 71 66 60 73 77 78 74 58 60 61 66 68 68 69 86 93 92 93
62 56 58 61 64 69 75 76 68 59 53 62 63 68 72 82 82 77 70 90 87 91 83 75 66 71 62 62 87 88 91 75 74 72 72 73 72 76 76 81 89 96 94
61 65 70 72 70 70 70 62 60 64 71 80 83 80 78 85 87 78 74 85 89 93 90 90 86 67 69 67 66 88 88 76 78 78 79 77 76 78 76 78 81 89 95
70 73 71 65 61 57 65 62 64 72 76 81 96 93 95 89 84 82 80 78 78 91 88 91 93 75 68 68 74 73 70 78 96 94 93 83 89 82 78 81 82 86 82
74 71 70 69 66 61 67 71 74 76 88 87 96 97 96 95 95 86 83 82 81 92 92 86 80 75 73 81 76 73 81 90 94 97 90 95 91 79 77 82 79 79 83
79 80 80 80 74 72 73 76 81 94 95 94 94 95 95 96 96 98 91 90 85 86 86 88 95 96 95 90 87 81 89 94 94 94 95 92 94 92 92 83 84 84 91
76 76 73 80 82 83 82 83 87 85 91 92 92 93 95 97 95 97 97 97 95 90 98 96 98 97 96 91 94 92 93 94 94 95 95 96 94 94 90 87 83 82 94
77 79 93 95 93 88 90 88 80 80 80 82 83 88 88 89 88 84 94 89 88 91 97 98 98 98 96 94 93 92 96 92 96 94 95 97 97 97 96 88 87 86 88
84 88 93 93 92 92 93 93 93 90 83 82 84 86 87 80 85 87 86 85 85 87 98 97 98 96 94 92 93 93 93 95 92 95 97 96 97 97 96 95 94 89 86
85 89 91 91 90 89 92 92 94 93 89 84 88 84 86 87 87 83 95 98 96 93 97 97 95 94 93 93 94 93 96 96 96 97 96 97 98 98 98 97 96 97 91
84 90 89 89 89 88 88 91 93 93 93 90 90 96 94 88 89 89 96 98 94 95 95 95 95 93 92 90 94 93 93 96 96 98 97 98 98 97 97 97 97 96 96
83 85 87 88 90 92 92 93 94 96 95 94 92 91 95 100 97 97 97 98 96 94 94 93 93 94 92 92 94 96 95 97 98 99 98 98 100 98 97 97 99 100 96
88 90 92 92 94 92 91 93 96 98 96 95 96 93 94 94 93 97 96 96 97 95 93 92 91 93 92 91 95 95 92 95 96 97 97 97 100 95 96 97 99 97 97
83 80 78 80 80 86 94 98 96 94 95 96 93 96 94 95 97 97 97 96 97 93 91 92 92 91 90 89 89 92 91 91 93 93 94 96 97 96 97 98 98 98 96
82 84 85 83 84 87 88 86 88 94 98 97 96 97 98 98 98 98 97 96 98 98 98 97 96 96 93 90 88 87 89 89 89 90 93 96 97 97 99 97 97 98 96
92 92 88 87 92 92 90 89 95 98 98 98 97 98 99 99 99 99 98 99 99 99 99 99 98 98 98 96 94 92 90 87 89 89 89 93 95 96 98 97 97 97 96
90 92 92 93 93 94 92 93 91 98 98 98 98 98 97 96 95 95 95 92 91 92 92 96 98 98 96 95 95 96 92 93 94 90 89 90 92 94 97 96 97 96 94
90 91 90 91 92 92 93 94 95 95 96 96 96 95 97 98 98 98 96 93 92 90 91 90 89 87 95 97 94 95 96 96 96 95 89 89 91 95 96 95 96 97 92

GFSGL_sfc_rhum_036.txt.gz
RH
57 60 60 51 52 54 52 54 52 53 52 50 56 59 53 53 59 76 74 75 76 82 85 87 84 81 86 83 75 69 66 68 74 73 71 73 72 73 64 68 66 64 67
57 55 54 58 66 56 53 56 53 51 55 59 60 60 56 57 62 69 74 71 71 75 77 74 72 57 67 70 72 66 67 69 73 76 76 73 74 71 72 76 60 52 68
60 57 55 52 48 49 53 54 54 57 58 62 63 59 58 61 65 72 71 73 74 76 76 76 75 76 65 74 68 67 70 56 74 79 76 77 78 74 71 72 74 72 64
54 50 48 48 50 52 62 54 55 58 62 61 60 60 63 62 65 64 66 73 74 67 66 65 65 64 64 62 60 63 64 74 78 82 78 77 76 70 81 83 81 76 67
59 60 71 71 58 62 61 59 63 61 59 58 60 62 62 62 59 67 65 70 69 65 65 61 61 60 59 60 60 70 77 82 84 84 81 79 75 75 83 86 91 70 68
62 68 68 65 63 61 63 60 60 57 57 60 61 64 66 56 69 79 72 70 62 62 64 68 64 59 66 67 64 66 71 82 87 98 90 85 80 81 88 79 78 83 84
68 67 66 61 62 63 58 55 58 63 67 68 67 68 71 72 82 80 74 66 66 66 69 73 65 58 71 68 63 61 62 60 76 89 90 87 82 71 73 82 85 90 90
62 60 61 58 58 61 65 65 73 74 70 71 70 69 73 74 83 80 77 68 68 69 75 73 74 73 74 70 73 71 69 68 67 62 79 79 75 76 78 81 94 94 91
57 60 60 62 64 67 73 82 79 78 75 70 66 73 76 80 82 82 75 72 73 74 72 73 76 75 72 67 72 76 75 71 53 60 62 66 66 67 71 85 91 94 90
71 69 69 71 81 84 83 78 80 76 64 67 71 75 74 82 84 84 78 85 86 86 81 80 70 70 72 68 86 87 90 70 69 76 75 71 73 74 75 85 91 96 94
74 78 83 85 85 79 77 77 72 71 74 82 84 85 84 85 86 85 82 82 83 88 87 89 85 72 69 71 73 90 88 73 80 83 79 80 77 76 72 75 84 94 95
76 82 82 75 68 67 79 80 78 83 84 84 92 92 95 90 87 85 84 83 79 90 87 87 91 77 74 76 77 77 75 84 96 96 94 89 86 83 75 79 81 84 85
75 75 77 77 78 77 83 83 84 85 93 91 93 95 95 95 96 88 86 86 85 88 86 84 79 76 77 82 80 79 85 95 95 97 91 94 90 83 78 83 77 79 80
80 83 85 87 86 85 84 87 91 95 94 93 95 94 92 95 96 96 96 93 87 90 88 85 90 94 97 94 95 87 93 96 95 93 96 95 93 95 94 91 92 88 90
80 82 84 84 86 89 89 91 92 90 90 90 92 93 94 93 91 86 93 98 97 96 97 97 98 98 97 95 95 94 95 96 96 97 96 96 97 98 97 94 95 91 95
82 83 91 95 93 91 92 87 83 86 83 86 86 93 91 88 85 84 91 95 95 95 97 97 96 96 96 95 94 95 95 94 95 92 96 97 97 98 98 94 93 96 95
84 84 91 91 92 92 90 92 90 79 86 85 85 84 84 83 87 88 88 92 98 99 97 97 96 97 96 92 94 96 96 93 93 91 95 95 97 98 98 98 97 97 92
89 89 91 91 91 90 91 89 88 90 93 91 86 83 81 84 86 87 89 90 98 99 97 95 95 95 94 93 94 96 95 97 94 94 97 97 98 98 99 98 97 100 98
92 92 93 94 95 96 97 98 98 98 96 91 92 96 94 89 88 89 90 97 97 96 95 95 94 94 95 94 94 96 96 96 93 97 97 98 98 98 99 97 98 99 100
87 91 88 81 81 81 79 81 84 91 94 92 94 94 96 100 99 95 94 92 97 96 94 96 96 93 94 95 95 95 97 96 94 95 96 98 99 100 98 97 98 100 97
80 78 83 82 86 85 87 87 87 87 87 85 96 96 95 96 95 98 97 96 96 96 94 96 96 93 93 95 94 96 97 97 94 92 94 97 100 100 96 98 99 99 99
82 88 90 89 85 87 88 91 94 92 92 87 85 93 97 98 98 98 97 96 96 94 94 96 97 94 92 94 94 95 95 95 94 93 94 96 96 96 97 98 100 99 98
89 90 91 86 86 88 91 88 89 91 92 90 96 98 98 99 98 98 99 98 96 96 97 97 98 97 94 95 96 96 95 94 90 90 92 94 96 96 98 99 98 100 98
91 94 88 90 92 92 92 92 92 91 92 93 96 97 97 97 97 97 96 97 96 94 94 96 97 98 98 96 96 96 96 94 90 93 91 93 94 96 99 98 98 99 98
95 94 93 95 94 94 93 92 91 91 94 94 95 95 95 95 95 96 97 98 95 93 92 92 93 92 91 93 98 94 94 93 96 95 96 95 93 94 94 96 98 97 98
94 92 94 94 94 94 94 93 93 92 93 93 94 95 95 95 94 95 94 93 92 92 92 92 91 91 91 90 89 89 98 96 96 95 96 95 95 95 94 94 93 98 95

GFSGL_sfc_rhum_039.txt.gz
RH
65 71 67 70 63 62 60 54 51 56 55 54 56 57 61 60 66 77 81 77 78 82 88 89 86 87 93 92 88 76 73 71 73 65 72 72 73 72 68 75 74 73 75
68 70 72 72 67 58 54 50 55 57 62 56 62 64 62 60 64 76 77 73 80 81 81 84 82 67 84 78 77 70 68 67 70 71 76 75 75 71 74 78 64 57 70
67 72 72 65 55 51 58 61 63 64 63 62 65 64 62 65 66 70 76 79 80 79 82 81 76 78 81 75 72 70 70 58 74 80 78 79 80 77 72 75 78 75 66
69 66 68 73 65 68 65 66 66 66 64 66 64 65 65 62 62 68 72 78 81 80 79 75 68 70 72 71 67 67 65 72 78 84 81 76 80 74 82 85 78 74 65
70 70 75 74 64 68 71 72 72 70 67 62 62 64 65 63 59 72 71 79 82 75 72 67 67 64 60 62 62 68 74 83 85 86 80 77 80 78 88 77 81 71 71
75 79 74 71 70 70 70 72 72 66 63 68 77 74 68 61 70 80 79 81 75 72 72 68 68 65 69 72 66 67 74 84 86 97 86 86 82 88 85 81 84 88 84
81 79 74 70 70 68 62 64 66 72 82 90 83 71 70 74 79 80 84 78 76 72 70 68 69 57 70 76 76 69 65 63 79 85 91 88 92 78 78 87 88 90 92
78 74 71 67 67 65 65 72 82 94 94 82 77 73 77 74 82 83 85 75 74 71 72 74 76 72 76 71 73 74 69 68 65 59 76 82 80 80 84 81 91 91 85
69 68 68 71 74 77 80 92 94 86 82 77 72 75 79 77 78 84 86 77 76 73 70 73 76 78 74 73 77 78 75 72 55 58 62 64 67 65 66 89 92 93 91
70 71 73 80 91 94 94 86 85 82 81 75 75 80 80 84 80 85 88 91 86 82 81 77 80 78 74 76 88 88 93 78 65 67 74 73 70 75 72 83 92 97 93
84 89 91 90 90 88 84 83 80 80 82 87 87 87 86 86 86 84 87 90 84 84 85 85 83 78 74 75 75 92 91 76 77 81 82 82 77 76 71 74 81 92 95
83 86 85 78 70 68 83 86 84 86 86 86 92 90 93 90 88 87 87 88 85 88 85 84 86 79 76 75 77 83 80 88 95 96 98 94 90 88 73 79 81 82 82
75 78 80 81 82 83 89 90 89 88 93 91 93 94 92 93 94 87 90 89 89 91 85 84 82 80 78 82 82 85 89 96 97 100 96 93 95 83 76 86 79 81 82
84 85 86 89 88 84 88 89 93 95 96 91 92 92 92 93 94 94 94 96 92 92 92 89 88 94 93 92 97 91 96 96 96 96 96 97 95 97 97 95 98 92 94
81 84 86 86 85 86 88 89 89 90 90 88 88 88 92 89 89 87 89 96 96 95 96 98 97 97 97 97 98 96 96 97 98 98 98 96 96 97 98 97 98 97 99
84 84 91 93 92 88 87 83 81 87 86 86 85 87 82 85 83 84 86 87 89 91 98 96 96 97 96 95 96 95 96 96 95 96 96 94 95 96 97 98 98 99 99
96 95 95 95 95 95 94 94 95 84 81 82 83 87 87 85 97 97 85 88 91 94 98 95 96 96 95 96 95 95 95 94 93 96 95 93 95 96 98 98 98 98 98
91 93 93 89 87 85 84 85 85 83 85 82 79 85 85 85 93 92 90 89 98 94 97 95 95 94 94 96 94 95 94 96 98 96 96 95 96 96 98 98 98 100 100
81 82 83 91 93 90 90 89 88 87 87 84 79 75 78 91 90 92 99 99 95 90 84 91 94 93 93 96 94 94 94 96 97 98 94 93 96 96 99 98 98 98 100
74 85 89 91 92 88 78 78 77 83 88 89 89 86 82 80 95 95 97 98 95 89 86 95 94 94 94 96 96 95 96 98 98 97 94 95 96 97 99 98 99 100 99
91 88 89 85 89 86 87 90 91 93 90 89 88 84 80 88 93 95 95 98 96 95 90 94 95 96 96 96 95 96 95 95 95 95 95 94 97 98 98 97 98 98 99
86 89 85 85 86 92 92 87 90 92 91 91 90 88 89 93 96 94 98 98 96 98 98 97 97 97 96 96 96 96 96 96 96 95 96 95 95 96 98 98 99 100 98
93 94 89 85 91 93 93 91 93 93 92 91 91 92 93 94 94 94 95 96 96 96 96 95 96 98 98 97 97 96 96 95 94 94 95 95 95 96 97 97 98 100 99
95 97 91 92 94 95 95 95 94 92 91 91 92 92 94 94 95 95 95 95 95 93 93 95 96 96 95 96 98 98 97 97 97 96 95 96 95 95 95 98 97 99 99
99 100 100 98 99 98 97 95 94 94 93 93 93 92 90 92 94 94 95 94 94 92 92 93 94 93 94 95 94 95 96 98 96 96 97 96 96 95 94 94 98 97 98
97 97 99 100 99 97 97 97 96 95 96 95 94 93 92 93 92 92 94 94 93 91 92 92 91 93 92 93 93 94 93 92 96 97 96 96 96 95 95 94 95 95 93

GFSGL_sfc_rhum_042.txt.gz
RH
95 95 96 94 90 91 84 81 73 65 61 68 76 65 65 66 66 68 74 82 81 86 88 91 90 89 93 94 95 93 92 92 86 65 66 63 63 61 61 64 68 66 68
92 89 94 92 87 86 83 72 67 68 67 64 64 66 64 64 66 71 77 73 82 85 85 89 89 79 92 93 91 81 72 69 67 66 65 67 67 65 67 68 59 54 63
91 89 90 88 81 82 77 75 64 66 71 75 68 70 71 73 68 70 74 78 81 83 82 86 84 84 83 83 77 75 71 59 69 72 70 71 71 69 64 66 68 67 62
86 87 87 84 80 78 71 67 72 70 69 71 74 71 69 65 69 68 68 75 83 82 85 86 84 82 79 78 74 73 67 68 70 74 77 73 70 66 72 76 70 60 61
89 88 86 85 78 78 73 77 76 77 72 68 76 86 87 77 65 72 70 79 83 86 86 82 80 72 68 70 65 68 68 73 76 78 76 70 65 70 68 72 75 71 70
84 85 81 79 74 75 76 72 73 78 84 86 90 92 91 81 80 78 82 85 84 85 83 80 71 68 74 76 74 66 67 80 84 84 77 72 67 72 80 79 80 81 75
88 82 77 73 72 73 69 72 79 84 92 97 94 93 90 80 79 82 86 91 87 85 81 73 66 59 73 68 76 78 76 73 82 78 81 74 82 76 71 81 82 85 84
85 78 73 71 70 69 75 84 93 96 96 96 92 85 81 74 80 84 88 92 86 82 77 72 70 69 68 74 78 81 72 66 67 65 70 70 74 73 75 74 84 84 76
78 75 70 71 76 81 89 96 98 99 95 87 81 78 79 80 81 81 86 92 82 78 73 72 73 71 75 74 78 78 71 67 62 66 61 68 67 66 67 79 82 86 90
80 80 82 88 93 96 96 93 87 84 83 86 81 81 83 86 82 82 87 96 90 84 81 72 77 77 78 82 89 87 88 74 71 61 61 66 68 69 73 73 79 92 90
87 90 91 91 91 90 88 86 83 83 87 89 89 89 86 86 86 84 85 96 93 91 86 86 81 81 84 79 79 90 86 72 81 71 69 76 75 73 70 67 70 82 86
84 84 81 77 74 74 84 88 88 90 90 89 93 89 91 89 84 86 87 88 91 95 90 87 87 82 82 84 81 84 80 88 94 94 95 93 92 86 72 68 70 75 75
79 80 83 85 86 89 90 91 93 91 96 92 91 92 89 90 91 84 87 89 90 96 93 89 86 83 84 94 90 83 86 93 96 99 97 93 86 77 69 76 75 75 75
83 85 88 89 88 86 87 90 94 96 95 88 90 89 89 86 94 91 90 93 89 94 97 94 92 90 93 93 95 97 97 94 95 95 94 89 88 87 87 84 90 85 90
86 88 90 91 92 91 91 93 92 92 93 92 90 92 93 91 85 83 85 88 95 91 96 98 98 98 96 96 95 95 96 95 95 95 96 94 90 87 88 88 90 89 95
92 93 97 98 98 94 92 86 82 86 84 83 84 91 88 85 86 86 86 86 97 98 98 98 97 97 96 93 94 95 95 95 93 94 95 94 92 91 88 87 90 92 92
96 90 86 82 80 83 84 87 93 79 70 71 72 75 75 77 76 78 83 86 96 98 98 96 94 92 93 91 92 94 95 94 91 92 93 94 93 90 93 90 92 93 89
83 86 90 92 95 94 98 96 94 88 87 83 73 72 72 76 77 78 79 82 95 98 98 98 94 88 90 92 93 95 94 96 95 94 96 96 96 93 93 92 92 96 90
78 89 94 97 98 97 93 88 84 85 92 88 83 77 79 82 77 78 78 91 96 97 97 97 90 91 92 90 94 96 96 96 96 97 96 96 96 92 94 92 93 97 95
78 90 88 89 92 88 89 91 88 88 89 90 90 90 87 86 88 89 90 89 95 93 98 98 94 90 92 95 95 97 97 97 97 96 96 96 95 94 95 93 97 95 89
86 84 88 82 88 89 91 91 92 91 91 91 91 89 86 92 93 93 93 94 95 97 98 97 97 97 96 96 96 96 96 96 94 94 94 95 95 96 95 93 95 92 89
88 82 84 88 87 93 93 90 94 92 91 92 91 87 86 90 90 92 93 94 95 94 94 95 96 96 98 97 95 97 96 96 96 95 94 95 94 94 95 94 96 94 93
94 94 89 84 89 96 95 93 95 95 94 94 92 92 91 92 92 91 92 94 94 94 94 94 95 95 94 95 96 97 97 96 96 96 96 96 96 96 96 95 95 96 96
96 98 92 94 99 97 100 100 100 96 95 95 95 94 94 93 93 92 91 92 93 94 94 95 94 94 94 94 93 95 96 97 98 97 96 96 95 94 95 94 93 94 94
99 100 100 100 100 100 100 100 100 100 97 97 96 95 93 92 92 91 90 90 90 93 93 94 94 93 91 95 95 94 95 96 96 97 97 97 96 95 94 93 93 92 94
98 99 100 100 100 100 100 100 100 100 98 98 96 96 95 95 92 92 91 89 89 89 90 93 93 90 91 91 91 92 91 93 96 96 97 96 96 95 95 94 94 92 91

GFSGL_sfc_rhum_045.txt.gz
RH
78 81 83 85 84 85 89 88 83 75 64 58 59 74 79 71 65 69 70 64 63 60 63 64 63 61 58 58 60 59 58 60 68 45 41 40 44 42 40 40 37 37 37
80 86 88 88 90 91 92 88 82 74 67 68 72 74 72 67 56 73 72 66 58 59 61 64 62 54 65 62 60 61 58 53 54 49 40 40 44 44 44 43 33 31 39
82 81 82 83 85 86 86 82 78 74 66 69 70 73 72 70 71 72 73 59 57 60 60 62 59 62 63 58 60 56 51 47 47 48 43 39 43 42 42 37 35 42 33
78 76 79 81 82 82 75 70 68 63 66 66 74 72 74 72 72 66 55 57 58 59 62 63 60 61 60 58 56 54 49 47 44 45 42 42 42 41 42 36 38 35 37
76 76 80 75 68 66 64 70 70 74 73 68 77 80 88 85 78 78 70 66 64 62 63 63 64 65 72 65 50 49 48 47 44 45 45 44 43 41 38 36 44 39 40
74 71 67 64 67 75 75 77 82 82 76 74 85 91 93 88 95 92 86 68 58 59 60 60 61 75 74 79 79 72 52 51 56 52 48 49 46 45 40 42 46 49 49
70 66 67 69 72 73 73 76 79 87 89 95 96 94 96 92 90 86 84 60 61 60 61 59 56 52 65 52 68 79 78 75 72 55 60 53 58 44 39 47 49 51 51
67 64 64 68 70 71 81 87 92 95 95 95 92 87 80 70 82 84 87 62 62 62 63 61 60 57 58 54 54 75 57 54 58 53 50 49 48 40 46 51 57 57 46
64 62 61 64 72 80 87 93 95 94 89 80 76 70 67 62 81 82 77 62 63 62 57 58 57 56 64 72 87 76 58 54 59 66 64 66 66 68 66 58 64 62 70
69 67 65 71 81 84 90 92 90 73 68 62 62 65 72 66 76 83 78 73 77 70 62 58 75 62 72 84 86 84 80 57 50 50 51 54 57 54 68 57 54 69 65
69 73 80 87 90 86 81 71 64 63 67 72 74 68 66 68 65 80 83 75 78 76 70 64 63 79 82 81 86 96 88 63 64 57 52 44 41 45 48 48 49 57 66
70 71 68 66 62 61 66 65 64 66 71 71 96 76 68 69 75 77 84 86 78 92 80 70 73 82 85 84 86 97 90 86 76 75 73 65 61 60 50 48 50 52 50
62 64 65 64 62 62 62 64 62 63 70 75 74 79 72 72 70 80 85 86 88 92 84 83 84 86 87 86 88 94 97 94 93 90 81 69 63 55 53 60 58 56 56
67 70 69 68 67 65 62 61 63 70 74 71 73 74 76 72 74 71 76 77 81 84 91 95 94 90 88 86 86 93 96 95 91 89 78 65 64 71 72 64 69 66 69
69 67 65 62 58 51 47 53 56 56 72 72 69 70 86 86 77 79 80 81 85 81 94 96 97 94 94 90 90 90 86 91 92 90 84 79 75 70 71 68 70 69 72
57 52 62 58 58 52 50 49 62 70 69 67 67 76 76 73 73 75 75 75 80 81 87 89 95 99 96 89 85 83 84 87 88 92 91 83 80 77 73 70 70 72 70
54 57 58 64 60 62 62 62 66 60 62 66 68 70 70 74 76 72 75 79 78 81 88 83 92 100 95 91 86 82 83 82 88 91 92 88 85 78 82 76 76 74 72
60 78 62 64 68 68 66 68 67 72 77 72 65 67 71 75 76 75 76 74 80 75 74 83 92 97 90 90 89 86 84 84 90 89 90 90 90 84 83 78 74 79 73
57 60 69 73 72 74 71 72 70 70 72 70 66 64 70 77 74 74 76 83 86 84 85 89 87 91 96 94 92 94 90 92 94 94 92 90 91 82 84 76 74 79 82
58 75 68 66 69 69 69 71 69 72 71 74 73 75 73 76 84 86 84 88 87 83 87 83 87 96 96 94 99 96 95 95 94 91 94 94 89 88 86 81 83 84 74
62 61 76 65 69 69 72 73 73 76 77 76 78 80 82 83 83 82 82 84 85 84 89 86 90 93 94 99 92 95 92 95 89 91 92 91 89 90 83 82 83 81 74
69 66 67 72 70 76 74 72 78 77 74 76 78 74 78 82 81 81 80 84 88 84 87 90 90 90 90 92 94 97 92 93 92 94 93 92 86 85 83 84 87 86 79
73 76 71 68 73 77 79 74 79 81 79 81 79 79 81 84 84 81 84 85 83 85 85 88 92 92 91 93 92 92 91 93 95 96 94 94 90 86 88 88 87 87 84
72 78 72 77 83 79 84 86 84 79 80 82 86 85 84 85 86 85 85 84 84 84 84 89 90 91 92 92 91 89 87 91 93 95 95 94 93 89 89 88 87 87 85
80 81 83 84 86 88 87 83 84 86 86 86 87 86 82 84 81 84 84 83 83 84 84 86 88 88 90 92 92 89 88 91 93 94 94 96 94 93 91 89 89 87 85
77 76 79 84 86 87 87 88 87 87 88 88 88 88 87 85 83 85 84 83 82 85 84 82 83 83 89 89 89 90 88 91 91 91 93 92 94 92 92 92 92 91 86

GFSGL_sfc_rhum_048.txt.gz
RH
55 59 68 71 74 73 78 79 76 77 75 74 67 58 63 77 80 80 85 77 70 80 71 59 53 46 42 42 44 43 42 41 43 36 30 31 37 40 36 35 35 34 28
53 58 63 68 74 78 81 83 84 84 79 70 67 72 79 80 81 84 80 82 81 75 66 55 50 36 46 48 44 50 48 44 42 44 36 33 35 36 38 39 31 23 26
55 60 67 76 85 88 90 90 89 88 80 75 78 75 74 77 84 88 83 85 82 70 62 55 48 47 48 48 50 54 46 37 40 40 39 34 33 32 35 35 34 31 23
66 68 75 80 82 84 84 82 81 75 75 76 76 81 86 86 76 79 85 82 75 65 60 56 50 49 50 50 47 56 50 46 43 40 38 36 34 33 33 34 32 25 27
69 70 77 76 73 69 66 63 64 65 66 68 78 87 84 81 84 85 83 83 80 76 65 52 50 56 67 62 43 45 50 50 46 41 39 38 36 35 33 32 32 29 31
61 62 61 59 57 62 64 66 66 71 69 74 70 75 83 80 94 97 94 86 77 61 52 48 45 58 67 81 81 78 61 53 53 51 51 50 42 37 34 36 31 34 39
58 57 57 57 59 62 57 58 63 70 82 84 87 88 89 88 97 97 95 64 54 50 49 46 41 33 58 53 77 82 79 76 74 53 61 53 47 39 38 39 36 39 40
54 54 54 54 56 57 60 65 77 82 86 88 90 85 79 72 85 86 86 54 51 48 47 45 45 44 45 51 54 51 49 48 58 55 52 45 40 39 41 38 42 47 42
51 51 51 53 57 58 67 78 81 88 88 77 63 59 57 52 76 81 76 55 51 51 44 43 43 45 56 76 59 57 51 55 63 68 71 72 65 64 59 48 56 55 65
53 51 52 55 60 66 80 88 85 70 52 46 47 50 61 55 68 81 74 59 61 58 52 46 66 58 67 81 62 64 70 55 56 54 50 58 67 58 74 56 49 60 58
53 57 62 67 71 74 69 54 48 47 50 59 60 56 51 55 55 77 79 69 68 68 60 54 51 74 81 82 78 66 75 61 69 80 62 45 43 42 39 46 45 48 55
56 59 58 54 45 42 46 45 43 45 52 56 83 63 59 58 69 71 80 84 79 83 77 70 68 76 80 83 81 78 80 88 94 96 86 67 56 51 40 39 41 41 40
49 47 46 44 43 43 45 49 46 49 56 59 56 61 52 54 50 65 70 73 70 77 72 78 82 88 96 97 94 88 91 96 98 99 93 77 65 57 50 53 50 46 47
48 50 49 50 47 45 39 36 35 45 50 47 50 54 55 54 55 60 62 63 66 70 69 69 76 83 89 90 95 87 86 96 96 92 89 73 72 75 67 59 64 59 65
48 46 46 44 34 29 28 35 43 50 62 56 58 59 78 78 66 73 74 72 77 74 84 84 76 72 71 71 82 94 96 96 94 93 94 91 90 73 77 66 68 65 68
40 36 48 44 43 33 30 32 71 67 63 64 67 74 71 68 70 73 72 72 74 71 80 78 88 92 81 67 75 86 96 93 79 86 91 89 91 87 81 71 67 72 66
36 40 43 47 42 42 43 44 47 54 58 60 60 63 64 70 72 72 71 72 67 65 74 76 92 97 91 66 68 81 94 92 86 85 86 92 93 89 90 79 79 74 69
47 60 43 45 47 50 50 53 53 59 66 62 52 56 61 66 71 68 68 66 66 64 65 70 78 81 77 79 79 80 90 94 95 92 90 95 98 91 93 83 72 80 69
40 43 54 60 62 60 60 60 57 58 60 58 54 52 57 65 66 63 64 72 75 71 68 68 74 77 79 86 97 100 100 100 97 97 92 95 100 93 92 80 74 73 70
47 64 59 53 56 56 56 59 56 60 60 62 62 64 64 66 77 77 75 79 79 73 75 73 72 76 84 88 93 99 100 100 98 96 99 100 100 97 92 79 81 83 68
40 47 65 50 55 56 60 62 61 64 66 66 68 72 73 75 75 74 72 75 76 76 80 77 80 81 80 84 88 92 93 100 95 91 93 94 100 96 84 83 81 74 73
52 52 55 61 58 67 64 61 66 67 64 66 69 64 67 74 72 72 71 76 81 75 74 78 79 79 80 83 89 93 92 94 98 94 95 94 95 94 87 86 84 85 75
60 65 59 56 63 66 72 66 71 74 72 74 71 71 73 78 78 74 77 80 76 77 76 75 80 78 78 86 89 90 92 91 89 90 97 97 95 94 92 86 80 84 84
64 70 61 69 77 72 78 81 78 71 72 75 80 79 78 78 81 80 80 80 78 79 78 78 77 76 75 82 86 89 88 90 88 88 92 95 95 95 94 90 86 81 81
74 77 78 75 78 81 82 78 78 79 80 81 81 81 75 79 76 79 79 78 76 78 75 79 77 74 75 78 82 90 91 91 90 90 89 92 98 100 93 91 92 90 89
70 72 73 76 77 79 80 82 81 81 81 81 81 82 81 80 77 80 78 76 74 76 79 76 76 76 79 76 73 87 90 91 90 90 90 87 92 96 96 94 95 92 89

GFSGL_sfc_rhum_051.txt.gz
RH
43 52 63 70 70 80 81 84 84 77 73 72 72 75 76 73 70 84 79 86 85 90 93 84 78 67 55 54 49 46 47 47 49 41 35 36 38 39 34 37 38 38 37
45 50 63 76 79 84 88 88 90 87 86 82 82 85 85 86 90 93 87 82 86 92 82 83 80 62 62 56 52 55 51 47 49 55 44 39 39 39 41 41 32 26 32
43 47 64 82 82 89 91 92 92 91 90 88 84 86 94 93 88 83 89 90 92 91 87 83 76 72 72 64 56 55 51 45 51 54 53 39 38 36 37 39 38 38 26
49 52 74 83 84 87 89 88 87 81 80 80 80 84 86 85 84 84 88 92 89 87 86 83 78 74 70 62 57 54 49 56 55 54 50 46 42 37 37 38 40 37 31
71 75 82 79 75 74 76 75 75 74 72 74 78 82 86 87 86 89 85 87 88 88 86 80 75 70 72 68 49 57 56 53 56 60 54 49 43 39 40 38 42 36 36
60 62 61 59 58 61 63 65 63 64 62 65 67 71 75 66 94 94 91 89 86 85 79 75 60 56 58 75 75 79 72 67 64 59 54 58 52 48 49 49 41 43 42
54 54 54 55 57 58 53 53 56 60 65 72 74 75 74 80 97 97 98 77 66 57 51 48 43 33 49 39 60 82 83 85 83 64 64 58 60 55 59 54 45 47 43
50 51 51 52 52 52 55 60 65 68 68 72 78 83 78 68 93 95 90 57 50 48 46 45 46 46 47 50 49 52 53 56 60 54 55 54 55 55 58 44 48 45 43
47 48 48 50 54 55 59 65 69 73 81 68 65 62 56 50 83 78 71 53 52 51 44 43 43 46 56 68 56 61 56 56 49 72 72 74 68 63 58 52 58 60 71
47 46 47 50 55 67 75 80 79 65 51 43 43 44 64 46 73 78 69 62 67 63 56 50 62 58 65 71 64 64 66 57 53 50 57 69 70 64 76 58 55 70 64
47 51 57 61 65 68 67 56 47 44 44 55 54 52 48 51 56 79 81 65 76 79 73 69 66 76 82 85 85 76 72 63 64 61 60 61 76 61 56 60 55 58 65
51 54 55 54 46 43 44 41 37 40 49 54 62 59 56 56 68 74 72 68 68 67 64 66 66 71 75 75 79 86 98 98 94 86 83 86 85 83 72 56 53 52 49
51 48 45 39 35 34 37 42 38 42 50 53 49 54 48 51 46 73 66 68 65 69 66 70 74 75 73 76 82 88 95 97 98 98 97 87 72 65 66 75 66 52 52
43 42 40 39 39 36 31 26 29 44 47 44 47 52 52 54 53 60 62 62 63 65 68 71 74 80 80 79 75 72 76 83 92 96 89 79 71 78 92 78 74 68 69
39 38 39 36 30 26 27 32 43 58 61 54 57 56 75 76 67 70 71 69 73 71 81 76 73 73 74 72 70 64 64 70 91 97 98 97 85 90 96 85 77 72 75
37 36 46 44 39 27 26 42 68 64 66 68 65 71 69 66 67 69 70 68 69 72 70 72 78 82 81 75 75 76 82 74 81 94 98 89 84 88 89 89 84 85 74
38 41 44 45 39 38 39 42 42 69 63 66 63 58 56 65 66 69 66 65 67 59 64 63 76 82 81 74 74 76 84 81 92 93 100 96 87 82 94 92 92 87 78
42 66 40 41 42 45 45 49 48 55 63 60 61 52 52 59 66 66 62 63 60 57 57 61 68 76 76 75 76 82 80 85 98 93 98 94 96 92 96 93 92 93 77
38 42 52 59 59 58 56 56 53 54 56 56 51 54 52 61 62 62 60 68 70 65 59 60 66 68 78 79 84 87 92 94 99 100 97 96 100 89 94 93 93 93 84
46 59 57 51 54 53 52 55 51 56 57 58 59 59 60 65 76 74 71 74 73 67 68 65 67 73 82 84 88 88 91 94 95 98 99 100 100 95 93 96 95 92 77
42 49 63 48 51 52 56 58 57 60 63 62 64 70 72 69 74 69 67 70 70 70 73 70 76 82 82 83 82 86 87 94 93 92 98 98 100 95 94 96 94 89 89
49 50 53 58 54 64 62 58 62 63 62 63 65 61 62 73 69 69 68 73 77 73 72 74 78 74 74 78 85 90 88 91 92 93 92 89 94 92 95 94 93 91 81
57 61 55 52 61 64 70 63 67 71 70 70 68 68 70 74 75 71 74 77 74 76 77 78 83 80 75 80 80 85 89 87 92 94 93 92 90 96 96 94 92 92 86
62 70 59 64 72 71 75 78 76 69 69 72 76 76 74 75 77 75 76 76 76 79 81 83 79 76 77 80 79 78 78 86 89 92 93 94 92 91 96 94 93 92 83
72 74 73 72 74 77 78 75 76 77 77 77 78 77 71 74 71 74 74 75 78 80 77 78 81 78 75 79 81 78 79 88 90 92 93 92 92 93 95 95 94 93 91
67 68 71 74 75 77 78 79 79 78 78 78 77 77 76 74 72 75 74 76 76 77 78 81 78 77 80 80 76 79 85 83 88 91 93 89 93 94 96 95 96 94 92

GFSGL_sfc_rhum_054.txt.gz
RH
70 74 74 82 76 78 85 88 88 93 92 87 87 87 86 85 88 91 95 93 95 96 94 93 93 92 86 78 73 73 72 72 79 73 61 56 61 62 49 59 60 59 61
71 77 73 73 79 88 93 95 95 93 91 90 88 88 88 92 92 93 94 94 93 94 93 95 93 77 82 77 76 76 75 72 72 76 71 69 65 60 58 60 49 35 49
69 79 81 90 94 97 96 96 96 95 93 92 92 92 94 94 94 94 91 89 90 88 91 94 87 85 87 83 85 81 76 60 69 81 74 74 73 67 62 60 58 62 44
83 83 90 92 95 96 95 94 92 90 91 92 92 92 93 92 90 88 88 89 90 92 92 90 86 86 84 82 82 79 72 77 74 77 75 74 78 66 68 65 65 65 60
81 85 90 89 88 88 87 86 84 83 83 85 88 90 89 88 86 87 86 93 93 92 91 88 86 84 83 81 72 74 80 80 80 82 80 82 81 76 72 65 64 66 65
76 81 79 78 79 80 81 80 78 78 81 82 84 85 90 79 93 91 92 93 90 90 91 87 82 85 86 88 82 81 67 68 77 84 78 78 80 78 80 79 81 77 82
70 69 67 68 71 73 69 69 72 76 80 82 82 83 84 91 94 94 96 89 90 91 88 79 64 44 64 62 68 76 82 82 81 74 81 80 81 77 88 87 86 87 77
61 60 61 63 62 61 65 71 79 81 83 87 87 87 88 84 96 96 97 92 72 69 69 67 68 67 67 70 73 75 67 64 77 80 86 80 76 77 77 77 85 75 70
57 58 56 58 61 65 68 77 84 83 86 84 76 80 79 79 93 88 79 78 74 76 64 68 70 71 77 82 82 88 81 68 57 70 79 82 78 76 78 85 93 89 94
54 53 55 58 64 80 81 83 86 81 69 60 56 64 62 78 85 85 75 91 91 89 79 67 74 76 80 77 84 86 90 92 90 87 78 85 91 82 77 73 78 80 95
51 55 62 68 72 75 80 76 73 62 66 74 73 71 66 74 80 74 71 81 87 83 80 75 73 72 73 74 75 76 73 70 80 87 92 96 92 90 81 77 73 75 84
59 63 66 67 62 60 62 57 50 62 73 81 82 85 83 80 77 71 67 68 69 80 77 76 77 71 74 77 79 79 77 81 86 81 83 82 94 99 97 89 75 75 71
60 61 58 50 46 44 52 56 58 64 74 80 76 88 82 84 85 72 67 66 67 80 77 74 70 72 76 78 79 79 79 82 81 86 89 79 76 87 86 98 98 85 75
55 52 47 47 46 46 38 39 58 75 81 80 84 84 88 81 87 80 78 81 70 75 77 79 80 80 81 75 73 72 75 80 91 97 89 86 86 91 99 98 98 92 96
48 46 50 52 44 40 47 54 75 72 79 84 82 84 94 94 83 76 75 78 83 76 82 83 80 79 77 75 73 73 74 76 83 82 90 95 88 97 99 100 97 97 97
47 51 70 68 61 42 47 53 73 71 67 66 67 83 84 70 65 66 67 67 65 69 82 84 89 88 85 79 79 79 77 81 79 82 87 92 96 98 99 98 97 98 96
55 55 64 66 64 60 64 72 82 72 66 68 66 61 60 63 62 66 66 63 66 68 89 84 88 87 84 77 78 79 82 82 81 82 88 91 93 98 99 99 96 96 96
56 70 60 62 65 73 70 72 73 81 88 90 70 63 63 59 63 63 65 63 82 73 77 80 83 83 80 79 79 81 82 85 85 87 91 94 97 99 99 98 97 95 95
60 68 79 84 86 80 79 81 78 75 78 78 76 74 72 63 64 63 60 91 92 85 77 76 82 80 82 82 85 86 87 87 88 94 93 95 99 99 99 98 96 97 97
83 88 82 78 74 72 75 74 71 75 75 81 82 84 84 82 92 90 92 93 94 92 88 83 80 81 85 86 87 86 86 87 88 91 94 93 94 98 98 97 97 97 96
79 78 76 62 68 70 73 74 74 80 83 84 88 93 81 87 91 90 92 92 92 92 90 88 89 87 85 85 83 85 88 87 88 89 94 94 94 95 98 97 93 97 96
65 65 67 72 66 80 77 73 80 80 78 81 87 82 74 92 92 92 90 92 95 92 91 89 88 86 84 87 85 87 90 87 90 88 89 90 92 93 93 95 98 98 98
76 76 66 64 70 76 86 80 84 88 86 87 84 86 90 94 94 91 92 94 93 94 93 90 88 87 85 82 84 88 89 91 86 88 93 90 89 92 92 94 98 98 98
77 80 67 77 87 81 88 92 89 82 84 87 91 90 91 92 93 93 93 93 93 93 90 88 89 83 82 89 89 84 82 82 83 93 95 93 92 91 92 93 94 98 98
84 86 85 84 87 90 91 87 89 89 91 91 91 93 88 88 87 89 90 90 91 88 90 85 84 86 86 86 86 85 89 93 89 85 86 92 94 94 93 94 95 98 98
77 76 82 86 88 89 90 91 90 91 91 91 93 92 91 91 88 89 87 85 88 89 84 84 83 82 83 85 86 86 85 85 88 88 90 93 94 93 93 94 93 96 97

GFSGL_sfc_rhum_057.txt.gz
RH
61 65 64 86 91 96 95 92 92 96 96 97 95 92 92 92 92 94 94 95 95 97 96 95 94 93 95 93 91 87 79 80 76 85 78 68 64 62 60 78 70 71 68
66 86 92 94 97 97 96 96 97 97 97 95 95 95 92 92 92 94 94 92 94 96 94 94 91 85 93 88 86 85 80 78 80 85 85 80 72 68 70 70 57 46 57
86 85 91 87 90 95 99 99 98 97 97 95 93 92 93 94 94 93 93 95 94 90 91 92 92 92 92 92 90 89 86 74 82 84 80 86 76 82 76 71 66 69 50
90 94 97 98 98 98 98 97 96 94 95 94 94 95 95 94 93 92 92 92 91 90 93 94 91 90 90 89 87 87 83 86 85 86 82 81 87 73 81 70 73 83 67
97 97 98 98 95 93 93 92 92 93 94 92 94 94 94 92 90 91 89 92 94 94 94 92 91 90 91 90 84 93 94 94 95 94 86 86 93 91 87 79 87 83 70
94 94 90 90 90 90 89 90 90 88 88 88 90 91 92 86 94 92 93 94 93 93 94 92 93 91 92 92 92 93 92 94 92 88 82 80 79 92 92 91 92 89 85
90 86 84 85 86 86 79 79 83 88 92 93 94 94 94 94 93 94 95 91 92 95 95 96 91 67 81 81 83 83 85 85 93 84 82 80 83 83 89 94 95 94 88
79 79 82 80 82 77 81 89 93 92 92 94 92 91 91 88 95 96 99 95 93 83 82 83 86 83 84 80 82 83 81 82 81 78 82 82 81 81 90 81 84 87 84
74 75 72 72 76 80 85 86 92 92 89 88 86 94 92 94 97 97 88 89 88 88 72 76 74 80 79 72 74 76 70 64 52 63 71 78 83 86 86 88 94 94 93
71 68 68 72 79 88 87 86 87 90 84 83 79 82 85 86 82 85 82 91 83 82 78 74 75 74 77 74 78 86 91 82 79 78 78 80 78 78 88 90 83 88 95
65 71 80 83 85 88 89 91 92 85 73 85 86 86 84 81 79 73 72 84 91 90 84 84 84 73 69 70 76 86 88 83 87 87 85 79 77 80 77 94 93 99 96
75 79 80 82 77 78 86 86 74 78 85 89 92 94 91 88 76 72 69 69 71 86 83 87 88 69 72 77 82 78 75 82 90 93 92 88 84 84 83 84 96 91 88
77 79 79 75 73 76 66 75 80 83 85 86 84 89 95 93 89 74 70 68 70 86 84 75 72 75 78 86 70 67 80 84 84 88 91 85 83 91 80 87 96 98 91
76 76 74 67 62 55 58 64 69 80 83 84 85 89 92 90 89 84 81 89 74 78 83 84 85 86 90 87 79 75 79 81 85 88 87 84 82 83 90 91 95 98 98
61 59 60 59 57 66 70 66 70 80 82 82 89 86 93 96 80 75 73 79 91 81 91 92 90 94 83 81 78 77 78 78 82 85 88 86 85 84 85 87 96 97 97
59 60 75 73 63 54 66 67 69 70 66 68 74 84 83 74 63 65 64 66 64 69 91 98 98 97 95 84 86 84 81 82 80 84 86 85 88 87 88 97 99 99 97
68 66 74 70 69 72 71 76 85 80 70 69 66 63 68 65 64 64 62 64 64 71 94 96 97 97 96 84 84 85 86 83 81 84 87 87 90 89 90 95 98 94 97
73 81 79 82 81 82 81 85 86 90 94 91 72 66 65 65 64 60 62 64 88 80 85 95 96 96 90 85 85 88 87 87 86 86 88 88 93 92 92 96 98 95 94
83 87 89 92 93 93 92 89 83 83 84 86 86 83 76 65 60 59 70 95 97 96 90 87 95 95 96 92 98 98 95 90 91 88 90 89 94 94 93 96 98 98 98
90 94 94 94 94 92 90 88 84 83 84 89 90 92 87 85 94 95 96 97 97 98 97 95 96 92 97 97 98 99 91 87 92 87 91 89 91 94 93 91 95 98 97
95 94 96 94 93 88 87 85 83 88 90 90 94 93 85 90 94 97 97 97 98 97 98 99 98 99 98 97 93 93 89 92 93 91 91 88 91 94 92 93 94 93 98
95 94 92 89 85 92 84 82 88 87 88 90 94 91 86 96 97 97 97 98 98 98 98 98 99 98 98 96 89 91 93 94 91 91 90 90 90 92 93 93 94 94 94
94 93 88 85 85 85 93 91 92 94 92 96 94 96 97 98 98 97 98 98 98 98 98 98 100 99 96 96 97 95 94 90 90 91 94 94 91 88 92 93 93 92 94
91 91 81 90 95 89 95 97 94 93 94 97 98 98 98 98 98 98 98 98 99 100 100 100 97 93 94 91 90 89 88 90 92 94 97 94 93 90 93 92 92 93 94
92 93 94 96 95 98 98 97 98 97 98 98 99 98 97 98 98 99 100 100 98 100 97 96 99 95 91 90 89 90 92 93 92 91 93 94 94 93 93 93 93 93 93
91 91 92 95 96 97 98 98 99 98 98 99 98 98 100 99 99 100 99 99 97 97 97 97 94 91 91 89 85 88 90 90 91 91 94 94 95 92 94 94 93 94 94

GFSGL_sfc_rhum_060.txt.gz
RH
70 71 72 76 76 94 97 98 97 98 97 98 98 98 98 98 96 96 97 96 97 98 96 95 95 95 97 96 95 96 96 92 97 82 76 77 73 69 62 79 80 78 78
73 86 87 96 96 97 95 97 99 99 98 97 98 96 95 95 95 95 97 96 96 97 96 96 94 89 94 93 94 93 92 87 87 91 82 81 80 73 69 72 62 57 66
82 82 92 92 93 92 95 94 93 98 98 98 97 97 97 96 96 95 94 95 95 94 94 93 92 94 96 93 93 95 94 83 89 91 89 80 86 89 85 83 76 74 66
82 85 89 89 90 93 98 99 98 98 98 98 97 96 96 94 93 93 93 95 95 93 92 91 91 94 94 92 92 94 88 90 93 96 96 95 95 91 90 85 82 90 76
85 85 87 95 98 98 99 98 97 95 95 94 96 97 96 94 93 94 93 94 92 94 94 92 93 92 92 95 96 94 97 98 98 98 97 96 94 94 93 86 90 78 86
89 98 97 97 96 97 97 97 96 95 95 93 95 95 97 92 98 95 92 92 90 93 96 93 92 93 93 86 83 82 90 98 96 97 92 88 93 90 91 85 83 94 93
97 96 94 94 94 94 93 92 95 93 93 96 95 93 94 96 95 93 95 96 94 94 94 94 78 69 87 84 82 80 82 79 93 94 91 87 91 84 91 98 96 95 88
92 92 90 90 89 86 86 89 93 92 92 93 92 93 94 93 95 98 98 96 93 91 89 85 83 87 84 76 77 74 72 71 67 59 77 77 78 75 82 82 86 92 96
93 91 86 83 85 88 90 93 93 94 94 94 94 95 96 99 97 98 92 93 86 79 74 75 77 78 72 70 79 86 87 82 68 71 74 77 80 81 81 89 83 86 88
90 87 85 87 88 91 92 93 92 91 90 91 96 97 96 89 91 90 85 87 81 80 76 72 71 75 69 69 88 94 95 88 88 88 88 88 83 84 82 87 89 93 93
78 80 82 84 89 90 90 89 92 92 87 94 95 89 84 84 82 74 71 79 85 84 79 82 85 69 68 75 78 90 81 76 80 82 79 82 84 84 81 82 83 98 97
85 86 88 88 85 85 91 94 80 82 91 94 93 94 91 86 77 73 71 74 73 85 79 84 82 70 75 77 79 66 67 82 85 87 87 84 83 81 81 80 78 80 98
86 88 88 85 86 88 91 89 82 84 92 94 89 93 94 89 86 70 68 70 71 82 77 72 71 74 79 82 66 65 82 91 92 93 91 87 83 80 77 81 80 77 94
88 89 87 83 71 73 71 80 85 90 90 89 90 93 93 89 87 81 77 87 69 73 80 81 86 88 88 85 76 75 81 84 88 90 88 85 82 82 83 80 86 84 95
78 69 64 71 73 69 68 75 82 86 87 86 90 89 94 96 81 76 74 84 93 84 93 93 93 82 76 75 80 78 80 79 85 87 89 87 85 83 84 81 83 87 95
69 65 73 77 72 57 61 75 76 76 77 79 80 87 85 75 69 64 61 63 62 69 92 95 95 95 91 84 88 86 85 86 83 83 88 86 88 88 87 82 84 91 98
67 68 73 72 72 72 74 78 88 86 76 71 74 81 82 72 68 62 60 62 62 68 93 92 97 97 95 83 86 87 90 87 83 85 90 87 89 86 87 86 86 87 97
77 80 79 82 83 87 88 90 90 91 95 95 89 76 72 79 69 58 64 68 84 79 82 90 94 94 90 85 86 88 91 93 89 89 91 91 92 90 91 88 87 94 97
84 89 92 94 94 95 94 95 96 96 96 96 96 88 81 74 66 68 76 91 92 90 83 80 92 94 94 92 97 98 100 99 93 99 95 93 92 91 90 89 92 93 94
95 96 94 94 95 96 96 96 96 96 94 90 92 90 86 82 91 94 97 96 97 91 91 90 91 92 98 98 99 100 99 98 94 97 94 97 92 92 92 91 93 94 90
95 95 96 95 95 95 96 95 95 96 96 94 94 94 86 88 92 94 95 96 94 93 96 96 97 98 98 99 98 99 98 99 95 95 91 93 94 95 90 90 93 92 92
94 94 95 95 94 95 95 95 96 95 94 93 93 88 88 95 96 96 95 96 97 96 96 96 96 99 99 96 95 100 99 97 99 93 94 93 92 91 91 90 93 94 93
93 94 94 94 94 95 96 95 95 96 96 96 96 96 96 97 97 96 97 98 97 98 96 98 100 98 96 100 100 99 96 94 94 94 95 94 93 92 93 93 93 94 94
94 95 94 95 96 96 97 97 97 96 96 96 97 97 97 98 98 98 98 98 97 100 100 100 99 98 97 100 99 98 92 93 94 94 95 94 93 91 93 92 91 94 94
95 95 95 96 96 97 97 96 97 97 98 98 99 98 97 99 98 100 100 99 100 100 99 98 99 99 96 96 95 95 95 94 91 91 93 93 93 93 94 94 92 92 94
92 93 94 95 96 96 96 97 98 98 99 99 99 100 100 100 100 100 100 100 100 99 98 98 98 95 95 94 91 93 90 91 92 91 94 93 94 93 93 94 92 94 94

GFSGL_sfc_rhum_066.txt.gz
RH
81 81 79 84 85 88 91 93 93 92 90 89 88 91 94 95 98 97 96 99 99 99 99 98 98 96 97 96 96 94 94 94 98 92 85 79 76 76 72 72 72 80 82
80 81 82 80 78 81 82 80 81 81 82 86 88 92 96 98 98 98 99 99 98 99 99 98 98 94 97 96 96 95 94 95 96 98 91 85 81 81 81 86 77 70 78
77 79 82 79 78 76 74 74 75 79 80 86 91 96 97 98 98 99 98 98 98 97 97 96 97 95 98 96 94 95 93 87 95 98 96 90 89 87 86 87 86 88 77
77 78 80 82 79 74 74 77 82 86 89 92 94 95 97 98 98 98 99 99 98 97 96 95 95 93 94 95 93 94 93 95 92 93 90 88 90 83 90 92 86 85 83
77 82 81 80 79 77 79 83 86 90 92 94 96 98 99 99 98 98 98 98 98 98 97 95 95 94 95 94 94 97 96 97 96 91 90 94 92 89 85 91 81 72 69
78 82 82 82 83 85 86 89 89 92 94 98 99 98 99 99 100 100 97 98 96 96 98 96 93 90 89 88 86 85 83 85 85 87 88 77 74 86 87 85 84 82 77
80 81 83 84 86 87 89 94 98 98 99 99 99 98 99 99 100 100 98 94 95 96 94 86 77 78 80 67 66 64 66 68 82 76 76 79 84 75 84 89 89 89 85
83 86 87 88 89 98 98 98 99 99 98 98 98 98 98 98 99 98 97 93 93 91 86 84 77 72 71 66 64 72 75 73 76 73 80 82 83 83 86 81 83 80 75
90 92 96 96 98 98 98 98 98 98 98 99 98 98 98 98 97 94 88 84 80 77 74 72 70 70 69 66 74 76 76 77 59 60 61 62 65 67 72 86 87 88 87
97 98 98 98 98 98 98 98 98 96 97 95 97 96 98 97 95 90 80 80 77 74 68 69 73 73 73 81 86 82 77 73 68 61 62 66 65 68 70 66 76 89 87
97 97 96 96 96 96 97 96 95 96 97 98 98 96 94 92 92 85 79 78 76 75 72 76 77 73 77 79 75 75 75 70 67 66 65 68 68 70 67 66 70 82 90
93 96 96 94 93 92 95 96 94 94 96 97 96 94 88 83 79 77 75 75 71 76 76 78 81 76 77 71 72 70 73 76 81 81 78 74 72 72 69 67 67 71 74
94 95 95 94 94 92 95 97 97 95 96 97 94 92 88 82 79 72 69 70 74 80 83 75 75 75 71 72 67 72 81 81 83 88 84 77 72 67 60 66 66 64 69
96 95 94 93 92 91 90 92 95 96 96 93 90 87 86 78 81 80 81 77 71 76 83 82 87 83 82 78 75 72 74 77 80 83 81 76 73 74 72 69 80 79 85
88 86 88 87 85 86 88 89 92 90 89 91 89 86 92 90 82 81 82 87 91 91 94 88 82 78 76 75 76 73 75 74 78 80 82 78 79 76 76 74 75 80 90
91 90 90 88 85 82 85 92 91 89 87 84 83 88 89 82 82 82 82 80 78 83 88 90 91 90 85 79 84 81 78 78 75 76 79 75 80 82 81 77 76 85 91
88 85 84 82 81 81 83 87 92 96 96 96 96 95 93 93 86 74 69 70 67 70 89 88 91 92 89 78 80 80 82 77 79 79 79 80 82 81 86 83 82 81 87
91 93 92 92 92 92 94 95 95 95 95 96 94 90 83 76 79 88 90 90 94 84 84 87 89 90 85 80 79 79 78 83 86 80 84 88 93 90 90 86 84 92 90
90 94 96 96 96 97 96 96 96 96 95 95 96 96 96 93 93 92 92 96 95 94 93 91 93 92 91 90 93 93 94 94 92 93 93 93 96 96 95 92 91 92 91
96 96 96 96 96 96 96 95 95 96 96 96 96 95 95 94 96 97 96 97 96 95 94 93 93 93 93 92 95 95 96 95 94 94 95 98 100 98 97 95 94 94 87
95 94 95 93 94 94 95 95 95 95 95 95 96 96 95 95 96 96 95 96 96 94 95 93 94 94 93 92 86 91 93 97 95 95 96 96 99 100 94 93 93 89 87
93 93 93 94 93 94 94 93 94 94 94 94 95 95 95 96 95 95 95 96 97 95 93 94 93 90 88 87 90 99 100 100 100 96 98 97 95 93 93 93 92 92 90
92 93 92 92 92 93 94 93 94 95 95 96 95 95 95 97 97 96 97 98 97 98 98 96 98 93 92 97 99 99 100 98 95 96 97 95 94 93 93 93 92 92 91
91 92 90 93 93 93 95 96 95 94 94 96 97 98 98 99 100 100 100 100 100 100 100 100 98 97 94 98 98 98 95 98 95 95 96 96 93 91 93 92 91 92 93
93 94 94 94 95 96 95 96 97 98 98 99 100 100 99 99 98 100 100 100 100 100 99 99 99 98 97 97 97 96 96 98 96 93 94 95 95 95 94 93 93 92 92
90 92 94 94 95 95 97 100 100 100 100 100 100 100 100 100 100 100 100 100 100 100 99 98 97 94 94 93 92 96 97 96 94 93 95 93 95 94 94 94 93 93 91

GFSGL_sfc_rhum_072.txt.gz
RH
58 57 58 58 58 61 62 60 60 60 58 57 58 57 51 51 51 54 55 55 56 59 62 71 79 80 93 92 91 91 93 93 93 86 68 66 67 63 59 56 56 57 55
59 60 62 60 57 60 63 62 64 62 60 57 55 52 51 50 55 56 58 56 58 61 68 83 94 96 97 97 97 96 96 92 87 89 82 72 72 65 61 64 61 43 44
56 60 63 65 64 64 64 62 58 59 58 57 55 56 55 58 57 58 58 61 63 76 86 96 96 97 98 98 98 98 96 92 85 86 86 71 64 70 68 67 56 52 39
55 58 62 64 65 62 59 58 60 56 55 55 56 57 60 59 61 62 82 86 90 88 92 94 96 97 95 97 97 95 93 91 86 76 71 78 70 71 64 53 48 41 35
56 59 62 61 59 59 61 61 59 60 57 55 58 59 62 73 77 79 72 78 91 96 98 98 97 95 97 94 92 90 89 90 89 76 80 75 76 70 62 40 40 34 32
55 57 55 58 59 60 60 62 62 62 60 59 60 59 62 65 86 98 84 92 97 98 98 98 98 98 98 97 96 93 88 88 86 86 80 80 68 53 43 40 36 36 35
53 52 53 55 57 60 58 58 60 62 63 65 61 59 64 68 100 100 100 92 96 97 98 97 96 95 93 89 90 86 83 82 84 72 70 61 52 43 39 42 42 42 40
48 48 50 53 55 55 58 59 62 62 65 68 70 69 78 92 100 100 100 99 99 98 97 94 93 89 82 77 73 70 66 57 50 40 47 45 43 38 42 40 46 47 42
46 47 47 50 55 55 58 63 67 73 81 88 91 97 98 98 100 100 98 96 96 95 91 89 87 88 90 82 78 79 69 61 61 63 64 64 63 63 58 43 48 44 57
46 44 45 49 54 58 62 76 95 93 97 98 98 97 99 98 99 98 93 93 96 95 93 93 92 90 97 81 72 68 64 52 42 41 43 53 51 53 61 45 36 49 48
40 47 49 53 58 67 93 91 94 96 97 98 98 98 96 95 96 94 92 90 90 90 90 92 94 93 91 78 67 61 60 46 53 38 36 37 38 41 40 39 39 45 53
76 82 86 88 94 93 94 96 97 96 97 98 98 97 97 96 94 91 90 92 92 91 92 92 96 94 89 75 72 71 68 62 58 55 50 44 41 42 40 38 38 39 38
92 94 95 96 95 94 96 98 97 95 97 97 96 97 96 96 96 94 94 93 93 93 94 96 96 90 80 75 74 73 65 66 70 70 59 46 39 36 34 43 44 40 39
95 96 95 96 96 93 91 92 94 96 96 94 94 94 94 94 94 92 92 93 94 94 95 92 80 71 74 76 76 67 59 61 62 63 59 46 46 51 54 50 56 53 57
92 92 93 93 93 94 94 93 95 95 91 91 92 91 95 96 95 94 94 95 95 93 89 78 72 75 70 60 61 60 59 60 62 64 64 60 58 56 57 54 57 57 64
93 93 95 93 92 89 90 94 95 96 95 93 90 90 95 95 95 95 94 92 86 83 80 88 92 89 86 71 71 75 67 64 57 60 66 66 66 65 62 58 58 62 64
91 89 90 90 89 87 86 88 95 96 95 96 96 95 90 95 95 94 93 92 92 91 89 89 92 91 86 69 65 65 70 72 68 68 71 70 71 67 68 63 61 60 60
95 96 91 93 94 95 95 95 94 94 95 96 96 93 94 92 94 93 93 92 90 90 86 86 85 79 72 67 65 65 66 70 71 70 73 75 76 72 70 64 60 67 63
94 96 96 96 96 96 96 96 95 94 94 93 92 91 92 93 92 91 89 85 80 74 68 68 73 71 70 67 78 78 80 79 78 80 76 75 78 73 72 66 66 67 68
95 96 96 96 96 96 95 94 93 91 90 89 88 89 88 87 91 93 89 87 83 76 73 70 69 70 74 72 78 80 78 75 73 71 75 77 77 74 73 70 71 72 62
92 93 94 93 93 94 94 93 93 91 90 87 89 92 92 84 88 87 82 84 80 77 80 72 75 76 72 71 65 71 70 76 70 70 72 71 76 77 69 70 73 68 65
84 86 86 87 86 89 88 88 89 89 88 86 87 86 86 87 83 81 80 84 85 77 72 72 70 66 65 67 69 76 74 76 74 71 73 71 69 70 71 73 75 76 74
86 86 84 85 87 90 90 87 88 87 86 84 80 80 81 84 82 77 80 82 75 76 75 71 74 71 68 71 72 71 74 72 71 74 77 76 72 74 78 78 75 77 76
79 81 76 82 84 82 87 88 84 78 78 80 82 81 79 80 82 80 81 80 77 77 76 76 72 70 70 74 72 70 64 69 71 73 74 79 77 74 77 75 74 77 78
77 79 80 78 79 82 82 78 80 80 79 79 80 79 73 76 74 77 78 76 75 76 72 73 73 69 69 73 74 72 71 73 76 76 78 79 80 79 78 77 78 76 76
71 72 74 75 78 78 79 80 81 79 80 80 79 79 78 74 73 77 74 72 73 72 71 72 71 70 73 69 65 71 78 81 83 81 83 80 81 79 78 79 77 80 77

GFSGL_sfc_rhum_075.txt.gz
RH
47 50 53 54 55 59 63 63 63 64 64 63 66 63 60 60 60 62 61 61 64 67 67 65 66 64 70 72 84 84 87 91 98 94 91 87 76 67 60 62 64 60 60
47 53 57 56 54 57 59 60 64 61 60 58 58 60 58 57 59 62 63 58 62 60 59 62 63 64 73 78 90 95 94 97 97 96 96 94 87 73 70 73 57 49 51
44 51 58 60 59 59 60 60 57 60 58 58 56 59 58 59 58 59 58 58 57 57 59 62 62 67 81 94 96 97 95 97 97 97 95 90 90 82 77 70 71 69 52
45 48 54 58 59 57 57 57 59 57 58 58 59 58 58 55 53 52 52 57 59 58 62 66 66 82 94 95 98 98 97 98 98 97 95 91 86 80 78 72 70 65 57
47 50 54 57 56 55 57 57 57 59 56 56 58 60 60 58 54 58 57 62 66 67 79 88 90 92 98 95 95 96 97 96 97 95 98 93 90 85 81 69 67 60 53
48 51 50 52 54 56 58 60 60 60 57 57 58 58 61 54 70 82 78 76 85 86 86 79 86 99 99 100 100 100 95 96 97 96 93 93 88 78 73 65 55 54 48
47 47 48 50 53 57 55 55 58 61 62 63 60 59 60 60 82 91 94 75 81 81 85 95 99 99 100 99 98 96 97 96 96 92 93 93 89 72 62 60 60 58 45
43 45 45 48 50 52 55 56 60 61 65 66 66 64 63 60 92 99 99 78 78 92 98 98 99 99 98 96 92 90 91 92 90 74 86 86 85 59 49 50 51 44 44
40 44 44 45 47 49 53 58 61 63 66 68 67 68 69 70 100 100 99 99 99 99 97 96 95 95 95 91 91 97 98 98 96 94 87 76 70 65 59 43 53 51 66
35 40 40 41 45 49 53 58 62 64 68 80 93 97 100 99 100 100 99 98 98 98 98 98 97 95 99 92 91 91 92 80 64 64 59 49 47 56 53 44 38 49 48
31 35 40 43 48 52 55 56 63 82 94 98 98 98 98 98 98 98 96 96 95 95 96 97 97 95 93 92 92 95 95 87 86 71 66 52 42 42 42 45 39 46 56
67 66 57 58 65 56 68 84 91 96 97 98 98 98 97 96 94 94 93 92 91 92 94 94 96 94 94 95 95 94 92 93 85 68 58 47 45 43 41 40 40 41 41
80 87 89 90 89 88 93 97 98 98 98 98 96 97 97 98 96 94 92 93 91 92 91 93 93 92 90 91 91 93 92 89 81 75 64 52 47 43 38 42 45 42 43
95 95 92 93 93 92 92 95 98 98 98 97 97 96 97 97 97 94 94 93 93 92 94 92 94 95 89 89 88 85 76 74 71 74 73 59 53 56 55 51 59 61 66
91 94 95 93 93 95 96 97 98 98 96 95 97 94 96 97 97 92 90 92 92 92 95 95 93 87 85 84 84 83 82 72 74 72 73 67 60 60 64 62 63 65 75
93 93 96 95 94 92 92 94 96 96 96 95 96 93 95 94 94 94 95 95 94 96 93 93 95 95 93 90 88 79 72 67 61 62 68 68 68 70 69 66 64 69 74
93 93 94 92 93 91 89 87 94 96 95 96 96 96 94 96 95 95 95 96 97 95 92 94 95 95 87 82 78 70 72 70 64 67 71 72 73 72 74 71 68 67 68
96 95 93 94 94 93 92 92 90 91 94 96 97 96 96 95 95 95 95 86 87 84 81 82 82 78 69 67 66 68 70 75 74 73 73 75 77 74 74 68 65 71 68
95 95 96 96 97 97 96 96 95 94 94 95 94 95 95 94 94 96 96 93 91 89 80 79 85 77 76 73 80 80 78 79 76 80 77 75 81 74 73 68 69 73 76
94 96 96 96 97 96 96 94 94 94 94 94 94 93 94 91 95 96 95 96 94 91 88 80 75 75 79 75 77 77 74 71 70 68 73 74 75 74 76 73 73 73 67
94 92 92 92 93 94 94 94 93 93 94 94 95 96 94 91 94 94 92 94 89 83 84 76 76 74 68 67 62 70 68 74 68 68 69 70 77 77 69 73 73 71 68
90 91 88 90 87 87 86 87 91 90 87 87 90 89 86 90 86 86 83 86 84 76 71 72 70 66 66 67 69 75 72 73 71 70 73 71 68 69 70 74 76 74 71
80 80 81 84 86 88 92 91 92 93 91 90 86 85 83 85 82 78 80 82 75 77 73 72 74 71 70 74 72 69 71 70 70 72 74 74 71 72 76 76 76 77 78
75 77 71 77 80 79 84 85 79 74 76 78 79 78 78 78 81 78 80 78 76 78 78 76 70 68 69 72 72 70 64 72 73 72 72 78 77 73 76 75 75 77 79
72 74 76 76 76 78 78 75 76 76 76 78 79 78 73 74 72 77 77 75 73 75 70 71 73 67 66 71 71 69 71 75 75 76 78 78 79 81 79 78 79 77 81
67 68 71 73 75 76 77 78 78 77 78 78 78 78 76 73 73 75 73 72 73 71 68 70 68 67 68 66 63 76 75 78 79 78 81 80 82 80 80 82 78 79 77

GFSGL_sfc_rhum_078.txt.gz
RH
61 70 72 73 73 71 72 74 72 73 75 74 72 75 77 76 72 71 70 69 74 74 76 77 74 75 79 86 92 90 90 94 94 86 91 92 89 89 83 79 82 76 79
56 62 68 70 70 72 74 73 74 74 72 70 70 76 76 73 73 74 72 64 70 72 72 76 75 75 84 85 88 88 92 93 93 94 96 97 95 91 86 82 75 66 69
52 59 65 66 68 68 70 72 70 73 72 73 71 73 74 72 70 70 67 67 68 68 68 72 74 76 81 82 85 89 93 96 97 95 96 96 95 93 90 86 83 83 65
52 53 60 65 66 65 65 66 71 70 70 71 70 71 73 70 67 66 64 66 66 67 70 71 70 72 77 79 88 95 96 98 98 98 96 97 95 97 92 94 92 86 80
54 53 56 62 64 64 66 66 66 68 68 67 69 69 68 68 65 68 66 68 70 70 70 70 71 72 81 82 86 96 97 98 97 97 97 99 99 99 97 92 92 92 88
54 55 53 57 60 65 67 68 68 69 67 68 70 69 70 62 74 81 73 70 69 70 72 73 88 97 99 100 100 98 95 94 93 98 97 98 95 94 94 96 97 96 87
51 53 53 56 59 63 64 65 66 69 70 72 70 69 71 70 83 84 84 67 71 76 84 84 94 96 100 95 99 98 98 97 100 98 98 99 98 97 94 94 95 96 94
45 48 51 55 58 59 63 64 67 68 71 72 72 71 71 68 86 87 88 75 73 87 90 89 88 98 99 99 97 96 98 98 98 94 96 99 97 96 95 97 98 96 86
32 45 48 52 56 58 62 66 68 70 72 73 72 73 73 73 87 90 92 85 93 99 99 99 99 99 98 94 94 97 97 98 98 97 97 96 95 96 96 96 96 92 96
79 68 47 50 53 58 62 67 70 70 72 74 78 90 95 86 100 100 97 99 99 99 98 98 97 97 97 95 94 93 95 92 86 83 85 88 83 70 70 82 74 88 89
78 77 79 66 55 56 62 67 74 77 95 99 98 98 98 99 99 99 99 98 98 98 97 98 98 97 96 94 90 86 86 91 96 92 92 93 95 91 87 82 77 86 89
83 83 85 86 85 82 76 93 96 98 98 99 98 99 98 99 97 97 96 95 94 93 96 96 98 95 94 94 93 93 93 93 92 93 93 91 88 80 68 64 63 59 59
84 87 87 85 88 92 97 99 98 99 98 99 98 98 98 98 98 97 96 96 96 95 95 96 95 93 92 93 94 95 97 96 96 95 92 90 72 61 57 63 63 57 61
87 89 88 90 91 92 93 95 98 99 99 99 98 97 97 97 98 97 97 95 96 94 95 95 95 94 93 96 94 91 90 92 94 96 96 96 83 84 81 77 81 80 88
86 88 91 92 92 90 93 97 97 98 96 96 96 96 95 97 98 96 95 95 96 95 96 96 96 96 95 95 96 96 96 96 95 96 95 89 81 78 83 88 88 89 94
91 92 95 93 93 92 90 91 94 95 96 97 96 94 96 97 97 95 94 95 96 97 95 96 97 97 96 96 96 96 95 93 88 81 85 82 85 88 86 82 86 93 90
94 95 94 94 95 95 93 92 92 96 96 96 97 96 94 96 97 94 94 98 99 96 95 96 96 96 96 94 94 94 92 84 80 84 87 89 89 83 86 84 82 82 84
94 95 95 96 96 96 96 95 96 91 93 96 96 96 96 96 96 96 95 92 95 94 94 94 95 95 94 93 92 91 85 88 87 85 93 94 95 93 90 84 82 91 85
92 95 96 97 96 96 96 96 96 95 95 95 95 94 96 94 94 94 92 94 95 95 94 94 95 95 95 90 92 90 93 92 95 95 93 91 95 95 94 94 93 89 88
95 96 95 95 95 95 94 93 93 94 94 95 95 96 95 90 94 95 95 95 95 94 94 93 93 90 88 85 90 91 89 89 88 88 94 95 95 94 94 93 94 94 86
94 93 95 94 93 92 91 93 93 94 94 94 95 95 95 93 94 94 94 95 94 94 94 92 86 86 83 84 82 88 89 93 92 92 94 93 95 95 93 93 94 92 84
88 86 86 90 90 93 94 93 93 93 92 93 94 94 94 94 94 94 92 92 90 87 87 88 85 86 87 88 89 93 93 94 94 93 93 94 93 94 94 95 94 95 89
80 83 84 85 84 85 88 87 90 91 92 92 91 90 89 92 92 90 92 93 90 91 88 87 88 90 85 92 92 91 92 95 94 91 96 96 95 96 96 96 94 94 93
78 82 78 82 84 84 89 90 87 85 86 88 89 89 90 91 92 91 92 90 90 91 91 94 89 87 90 93 92 92 90 93 93 94 95 95 96 93 96 94 92 92 91
81 82 84 86 86 87 86 86 88 87 88 90 90 90 87 89 90 90 92 90 90 92 90 93 93 88 87 86 88 92 90 98 95 96 97 96 97 96 95 93 93 93 89
78 80 83 85 87 87 88 89 89 88 90 90 90 91 90 89 90 91 91 88 92 93 89 92 88 84 83 88 87 96 93 91 95 93 98 95 98 96 94 94 91 90 88

GFSGL_sfc_rhum_081.txt.gz
RH
83 83 79 81 79 81 81 83 80 79 76 73 78 80 79 83 79 78 73 70 77 75 78 83 82 80 86 87 88 85 88 91 90 81 91 94 95 94 91 90 86 84 85
76 80 80 77 73 74 80 79 80 81 80 80 74 72 74 78 82 79 78 69 71 74 76 81 85 84 90 88 89 86 84 84 88 92 85 97 95 93 89 87 85 73 76
73 81 81 80 79 78 78 75 75 77 77 79 79 77 71 76 76 80 76 74 72 71 71 77 77 78 81 79 82 86 85 87 89 92 88 96 93 98 97 94 92 87 80
65 74 80 80 81 79 78 77 77 78 79 80 80 79 79 75 74 74 75 76 74 72 74 75 76 81 81 82 85 86 88 91 94 96 94 95 98 98 96 97 98 96 92
64 69 71 74 74 76 77 78 77 79 77 77 79 79 77 80 78 81 77 79 79 77 74 74 77 78 84 83 84 85 88 95 95 97 98 97 99 100 98 95 96 94 96
64 62 62 70 72 73 74 76 78 80 78 78 80 80 82 75 85 90 83 79 77 77 77 74 73 85 86 88 89 89 95 93 94 94 91 96 95 95 96 98 99 99 100
69 69 63 66 69 70 71 74 75 77 77 82 81 79 81 79 89 91 92 76 78 78 78 78 81 83 93 85 100 100 99 98 100 94 95 93 99 98 97 99 98 98 99
82 81 82 72 71 68 70 72 75 75 78 79 79 79 81 77 90 90 91 79 78 81 81 81 85 91 99 99 99 99 99 98 99 98 99 99 99 97 94 94 96 98 98
81 83 81 81 88 75 74 72 72 76 78 80 77 78 82 81 93 92 92 84 82 80 98 99 94 98 99 99 98 98 98 99 98 98 97 97 97 98 95 93 99 96 98
79 79 78 82 86 91 85 76 72 74 77 77 80 81 82 80 97 92 94 89 97 100 99 99 99 99 99 97 97 95 98 98 97 95 95 95 95 97 97 97 98 98 98
76 76 79 81 84 87 93 95 84 82 84 90 97 99 99 99 99 100 97 98 98 99 99 99 99 98 97 95 92 91 92 94 97 95 95 95 92 91 91 93 94 94 94
78 80 81 82 82 83 93 96 98 97 99 100 99 99 99 99 98 98 98 98 97 98 98 98 98 97 95 95 95 96 96 94 92 93 95 95 92 86 74 67 66 63 63
82 84 85 81 82 85 92 96 97 97 99 99 99 98 98 98 98 97 96 96 95 96 95 97 97 95 94 96 96 96 97 96 96 96 96 95 94 95 88 84 82 73 73
87 87 86 87 83 84 86 90 93 97 98 98 98 98 97 96 96 95 94 93 91 93 94 94 94 94 95 96 96 96 96 96 96 95 95 95 94 94 88 82 84 82 83
86 87 88 87 85 85 90 93 93 97 98 97 98 95 95 97 98 95 94 94 95 95 94 95 96 95 95 96 96 96 96 95 95 96 95 94 94 92 90 83 79 80 87
89 90 93 91 89 87 82 88 94 94 95 96 96 94 96 94 94 93 96 97 96 95 93 95 96 97 96 95 95 95 95 94 94 94 95 93 91 89 83 80 81 86 88
94 92 89 90 91 90 90 88 91 95 96 95 95 98 97 98 97 96 96 95 96 93 94 96 96 95 96 95 94 94 95 95 92 89 86 88 86 84 85 84 84 81 83
95 92 93 94 94 94 94 94 93 94 96 96 95 95 96 96 96 95 94 90 94 93 93 94 95 95 94 93 93 93 92 89 87 89 92 90 92 89 90 86 84 94 89
92 94 94 95 95 95 95 94 94 95 95 96 95 93 95 94 91 91 86 92 93 93 93 93 94 93 94 93 95 93 92 91 90 90 91 91 96 94 96 96 95 93 92
93 93 91 92 93 92 92 92 92 93 93 93 93 95 94 90 94 95 94 94 94 94 93 91 92 92 93 90 92 91 92 91 90 90 96 95 95 95 96 95 96 97 92
93 92 90 90 92 92 91 92 92 92 93 94 95 95 95 93 95 95 94 94 94 94 94 91 92 92 90 90 88 90 90 95 93 92 94 96 97 97 95 97 98 97 95
92 90 89 92 91 93 94 93 94 94 94 93 94 94 91 93 92 92 92 94 94 93 91 93 93 92 93 96 94 96 97 97 96 97 96 96 96 97 98 98 99 100 98
84 86 88 90 89 90 92 92 93 93 94 94 92 92 93 94 94 94 95 95 92 93 93 92 91 91 92 92 92 96 96 98 99 99 100 100 99 99 100 100 99 100 99
85 91 86 89 92 92 94 95 94 93 94 96 96 96 95 96 97 95 95 94 95 96 98 96 94 91 91 95 96 97 95 99 98 99 100 100 100 100 100 99 98 100 98
90 91 94 94 94 96 95 95 95 98 97 98 96 96 95 97 96 95 96 94 94 98 96 96 98 96 95 97 94 91 95 99 97 96 100 100 100 100 100 98 99 98 99
86 90 93 93 95 95 96 98 100 99 99 97 97 96 100 98 96 99 98 96 96 95 96 97 95 93 96 94 94 98 98 100 100 99 100 100 100 100 100 100 100 100 97

GFSGL_sfc_rhum_084.txt.gz
RH
85 84 82 82 86 86 86 85 81 81 78 74 78 77 81 87 87 88 79 80 87 83 82 84 82 80 82 82 88 87 88 88 89 79 79 84 94 90 89 92 86 90 88
87 86 84 81 84 90 86 85 82 82 80 78 77 80 78 78 84 86 82 74 83 83 83 85 86 80 83 80 84 86 86 86 87 87 82 94 95 90 88 90 90 91 90
88 90 90 90 91 89 86 82 82 82 81 80 76 81 82 79 79 82 80 79 78 77 77 80 80 81 82 83 82 82 84 85 90 89 84 79 85 98 98 96 95 92 88
80 87 89 87 85 83 82 85 83 82 82 83 81 78 79 80 80 80 82 79 75 75 76 75 75 79 80 82 86 89 86 89 89 92 90 87 90 97 94 96 99 97 94
82 85 86 84 84 83 81 80 83 84 84 82 85 84 83 81 76 79 79 84 82 80 78 76 77 76 81 79 79 83 84 86 88 90 91 90 97 100 98 95 97 96 99
81 86 84 87 84 84 83 83 84 82 80 84 85 86 88 82 88 89 83 81 82 83 82 77 77 86 85 90 89 85 80 88 87 89 87 89 89 96 93 95 98 99 99
84 81 83 84 85 82 86 87 86 87 86 86 84 84 86 85 93 94 95 80 84 84 85 84 84 81 88 82 96 95 100 100 99 83 87 86 87 88 93 99 98 98 99
80 80 79 85 85 84 85 83 84 84 90 90 89 86 86 83 95 95 97 88 85 84 86 86 87 85 85 87 96 99 99 99 99 99 99 96 98 98 98 97 98 98 98
79 77 76 80 84 86 92 94 90 85 84 85 84 87 88 86 97 97 97 90 89 88 85 85 85 86 89 97 99 99 100 100 98 97 98 98 97 97 95 94 99 95 99
79 77 75 77 82 86 89 93 94 95 86 82 84 84 90 87 96 98 97 90 93 93 85 100 100 96 96 100 93 98 98 98 98 98 97 96 95 96 96 97 96 96 97
76 77 77 75 77 81 87 90 95 96 97 92 92 99 98 99 99 99 99 92 92 94 99 100 100 99 99 98 98 98 96 96 98 95 94 94 92 87 85 86 92 96 96
81 81 81 80 78 76 86 88 90 95 98 98 98 98 98 98 97 98 98 100 99 99 99 98 99 98 96 94 94 96 96 94 93 94 93 94 94 95 96 96 94 87 85
82 84 85 81 82 84 88 90 92 94 97 98 98 97 97 96 96 95 95 96 96 97 96 98 96 94 94 95 95 95 94 93 94 95 96 96 96 96 97 96 96 94 94
85 85 83 83 82 84 87 87 94 97 95 94 95 96 96 95 96 94 93 93 92 94 93 92 93 94 94 95 94 94 96 97 96 96 96 96 96 95 94 95 94 91 89
83 85 87 85 83 83 89 94 92 96 96 96 96 95 94 96 98 96 94 95 96 96 95 95 94 94 95 95 95 95 95 95 95 96 95 96 94 93 94 92 85 81 88
86 87 91 89 87 89 85 86 87 92 95 97 98 97 96 95 94 95 94 94 95 94 94 96 96 95 95 95 95 95 95 94 94 94 95 94 93 92 86 81 81 84 86
94 92 89 89 90 91 91 91 93 85 80 91 93 95 96 96 95 95 95 94 94 89 93 96 96 96 96 95 95 94 95 95 95 94 94 94 87 83 86 86 84 82 82
93 93 94 95 96 95 95 95 93 92 94 95 92 93 92 90 91 92 93 87 92 91 92 93 95 95 95 94 94 93 94 94 93 88 90 91 91 88 88 82 82 91 84
93 94 94 95 94 94 93 92 92 92 94 95 93 92 94 92 91 92 90 93 94 94 92 92 94 93 94 94 95 93 91 92 93 93 92 91 94 89 92 92 92 93 92
93 92 93 93 93 92 92 92 91 91 91 92 92 95 93 85 92 94 94 95 94 94 94 92 93 93 94 92 94 94 94 94 94 91 95 95 97 96 96 95 97 98 93
95 92 91 92 93 93 92 93 92 92 92 93 95 94 90 91 94 94 94 95 95 94 95 93 94 95 93 93 91 94 94 97 96 97 97 96 98 98 97 97 98 96 94
93 91 90 92 91 93 92 91 93 92 92 94 94 92 90 94 93 93 94 96 97 96 92 94 95 95 94 96 96 97 98 99 100 99 99 99 98 99 98 99 98 99 98
89 90 90 91 90 91 93 91 94 96 96 96 95 95 94 96 97 97 97 98 96 96 95 94 95 94 95 98 98 96 97 100 100 99 99 100 99 100 100 100 100 100 100
92 93 89 93 95 94 96 97 96 95 96 96 97 98 98 98 99 99 100 100 99 99 100 99 95 94 97 100 100 98 98 100 99 99 100 100 100 99 100 100 100 100 100
93 94 95 96 96 97 96 96 97 97 98 99 99 100 99 98 97 100 100 100 98 99 99 98 99 99 98 95 94 92 96 100 100 100 100 100 100 100 100 100 100 100 100
92 93 95 95 96 98 99 98 100 99 100 100 99 100 100 100 100 100 100 100 99 98 99 100 100 100 100 99 97 99 100 100 98 98 100 99 100 100 100 100 100 100 99

GFSGL_sfc_rhum_087.txt.gz
RH
92 93 93 91 84 84 84 85 83 86 86 83 82 83 88 87 85 84 80 78 85 78 79 84 82 79 85 88 90 88 91 92 92 78 76 87 91 88 86 88 83 85 80
92 93 93 93 89 86 85 84 84 84 82 79 79 82 84 83 90 90 87 82 92 87 82 84 84 79 85 81 83 84 81 75 81 85 75 82 92 87 81 84 89 86 85
93 93 92 93 93 89 87 86 86 84 83 83 80 79 80 83 85 90 88 87 85 86 84 86 86 88 87 85 86 85 86 85 86 89 80 77 86 93 93 91 91 91 92
92 93 94 93 92 83 84 85 88 84 84 84 83 82 81 78 77 78 83 85 83 82 84 82 82 85 87 84 89 89 87 87 87 90 88 83 81 86 96 93 94 97 92
89 95 95 94 92 90 90 89 88 88 87 85 86 84 82 81 79 80 76 82 83 82 82 82 81 80 83 82 79 83 86 88 86 84 87 87 88 94 97 86 96 91 93
86 88 87 90 90 91 93 92 90 90 90 88 88 88 90 83 87 92 86 85 86 87 86 81 78 86 85 88 89 84 75 86 88 85 84 87 83 84 89 93 90 97 98
79 78 79 82 83 86 87 89 91 89 88 89 88 88 89 87 97 94 94 82 85 88 88 86 86 82 88 83 92 93 93 90 89 78 84 84 84 82 83 93 94 92 95
78 78 77 80 82 82 85 88 92 94 94 90 89 87 88 84 96 100 100 87 84 83 84 85 87 86 85 86 87 88 92 88 93 92 89 83 82 92 94 92 90 99 98
79 79 77 77 78 80 86 89 90 93 95 94 91 89 90 87 99 100 100 95 92 88 85 86 86 87 88 95 90 92 97 100 98 98 97 98 98 98 98 98 99 98 99
79 78 74 76 77 82 84 86 87 89 92 94 94 95 98 98 98 98 100 95 96 95 91 91 98 92 97 98 94 92 98 100 98 98 96 95 94 94 95 97 99 99 97
78 77 78 80 79 85 86 84 85 89 95 97 96 96 94 95 95 96 97 99 98 96 97 97 99 99 99 99 99 94 99 98 97 95 94 94 94 95 95 94 95 94 94
78 82 81 82 80 79 85 89 90 90 92 95 95 95 94 94 94 93 94 97 98 98 99 98 99 97 97 97 96 97 96 94 92 92 92 94 93 94 95 95 96 96 95
82 84 80 83 80 80 84 88 89 88 94 94 93 94 94 92 93 92 91 92 93 95 95 97 93 90 90 94 96 96 95 94 95 94 95 96 96 97 97 96 96 96 96
85 84 84 84 83 84 85 85 90 94 91 90 92 94 94 93 94 93 94 93 90 92 95 95 96 95 95 94 93 94 95 96 96 96 96 96 95 95 95 95 95 95 94
87 84 87 84 88 86 90 91 91 96 94 91 91 93 92 95 98 96 94 96 96 97 94 93 94 94 94 95 94 95 95 95 95 96 96 96 95 94 95 94 94 94 94
83 86 91 89 91 89 87 91 83 86 86 86 85 90 93 88 87 89 91 93 92 85 89 92 94 94 94 95 95 94 94 94 95 94 94 94 94 94 93 91 87 90 89
93 87 86 89 91 90 92 92 96 86 81 84 87 85 84 85 86 87 89 87 87 80 90 92 93 94 95 94 94 95 95 95 93 92 92 92 90 87 87 84 82 80 79
93 94 95 96 96 95 96 96 95 95 96 95 88 89 89 89 88 88 83 79 88 87 90 92 94 94 94 93 92 93 94 94 91 87 90 92 90 88 88 85 84 91 84
94 96 97 96 96 96 94 94 94 94 94 94 90 88 92 84 86 86 83 91 93 93 92 92 94 94 94 93 95 94 93 94 94 93 93 91 94 90 92 91 91 91 88
95 93 96 96 95 94 94 94 93 94 94 94 94 96 91 87 93 94 93 94 94 94 94 93 93 93 94 93 95 94 94 93 92 91 95 96 96 93 95 95 96 96 91
96 95 95 93 95 94 94 95 94 94 94 95 96 95 90 93 96 96 95 96 96 95 96 94 95 96 94 94 92 94 93 96 94 96 96 97 98 98 98 97 96 96 94
95 94 93 94 93 94 94 94 94 94 93 93 94 91 91 94 94 96 96 97 98 96 95 95 96 97 97 96 95 96 97 99 98 98 98 98 97 97 97 99 100 100 99
91 93 92 93 92 95 96 94 95 95 95 95 94 94 95 97 97 98 99 99 96 96 97 95 98 98 98 98 98 97 97 100 99 99 100 100 99 100 100 100 100 100 100
94 95 90 94 95 95 96 98 97 96 96 97 97 97 97 98 100 100 100 100 99 99 100 100 100 99 99 100 99 100 96 100 99 100 100 100 100 100 100 100 100 100 100
95 95 95 96 96 97 96 97 98 98 99 100 100 100 98 99 99 100 100 100 100 100 100 100 100 99 98 97 97 97 100 100 100 100 100 100 100 100 100 100 100 100 100
93 94 96 96 98 98 98 100 100 100 100 100 100 100 100 100 100 100 100 100 100 100 100 100 100 100 100 100 99 100 100 100 100 100 100 99 100 100 100 100 100 100 100

GFSGL_sfc_rhum_090.txt.gz
RH
81 84 85 87 92 88 91 96 96 94 92 93 92 92 92 93 87 91 85 87 89 82 83 86 86 81 81 83 86 83 88 86 79 70 82 84 89 83 81 84 81 84 80
86 87 86 81 92 91 90 91 92 94 92 87 91 91 90 91 92 90 89 85 90 90 88 87 85 79 83 79 81 81 79 79 82 83 77 79 89 78 77 78 83 78 77
89 90 90 93 97 95 90 89 89 88 88 89 86 87 90 88 88 89 88 89 88 89 86 86 84 84 86 84 84 85 85 83 84 84 77 75 76 91 88 86 82 82 85
96 97 97 97 97 96 93 89 90 88 88 88 86 84 84 84 86 86 90 88 88 90 89 87 84 86 87 85 88 88 86 86 87 88 86 82 81 83 90 87 87 93 86
97 96 95 95 95 94 92 88 89 91 91 89 90 90 87 83 81 85 83 88 88 88 87 88 87 85 89 86 82 85 88 90 88 86 88 87 87 88 93 86 93 87 85
84 86 84 85 90 94 93 92 90 88 88 89 92 92 92 89 92 93 86 82 82 84 85 83 82 92 89 92 92 88 74 86 89 87 85 85 80 78 79 84 89 92 93
77 78 79 82 83 86 86 88 92 96 95 94 92 91 91 90 100 98 96 83 80 85 86 85 86 84 91 86 93 94 94 92 90 77 84 84 82 77 78 84 87 90 89
77 75 75 78 79 80 82 86 89 92 94 96 95 93 92 89 100 100 100 93 86 83 85 86 87 86 85 88 89 89 92 89 89 87 84 80 79 79 83 84 85 88 99
78 76 76 77 80 82 83 85 86 90 90 94 94 95 93 95 96 95 97 98 96 93 87 85 86 88 90 96 93 93 93 98 98 98 98 96 95 96 98 99 99 100 100
80 78 77 80 84 88 88 88 86 86 90 89 89 89 90 90 94 95 94 96 98 97 94 92 100 98 100 100 96 94 97 96 99 98 97 95 94 96 95 97 99 99 100
78 77 80 81 82 82 85 87 87 88 87 91 92 92 90 92 91 91 94 96 100 99 98 97 97 98 96 97 99 100 99 98 97 96 95 93 93 93 93 92 94 95 95
79 79 81 81 78 77 84 86 87 90 91 92 92 91 91 91 89 90 90 92 91 93 96 96 97 94 92 96 94 96 97 94 94 94 94 95 95 94 95 94 95 94 95
81 83 80 81 81 82 86 85 89 88 92 92 88 91 91 92 92 88 88 88 89 94 93 92 89 88 87 90 92 94 94 94 95 95 96 96 97 97 97 96 96 95 95
81 85 79 81 83 83 82 83 88 90 87 87 87 88 88 89 91 94 92 92 86 91 91 93 93 91 92 93 93 93 93 94 95 95 96 96 96 95 95 95 95 94 93
80 81 86 86 85 86 89 91 90 94 91 92 94 94 94 95 95 86 88 94 94 90 86 87 89 90 91 93 94 93 94 93 93 95 94 95 95 94 95 94 93 92 92
81 85 93 93 93 91 91 90 84 84 81 82 80 88 93 85 82 83 82 80 78 78 86 91 93 93 93 93 93 94 94 92 92 90 92 92 93 92 90 85 84 87 86
95 93 92 93 92 92 93 94 97 89 82 83 82 83 86 84 80 82 82 81 78 79 91 93 94 94 94 93 93 93 94 93 91 90 91 91 87 84 83 82 82 78 80
96 95 96 97 97 96 96 96 96 96 96 95 88 90 88 87 85 81 77 78 89 87 91 93 94 94 92 90 90 90 89 89 88 86 89 90 90 84 84 81 81 86 76
96 97 98 97 96 96 96 95 94 95 96 96 92 91 90 82 85 86 85 92 94 94 91 92 93 92 93 91 94 93 93 93 93 93 92 90 94 86 86 85 84 83 79
97 95 96 97 97 95 95 95 95 94 95 96 96 97 93 87 93 95 94 94 95 96 94 94 94 93 94 92 95 94 93 93 93 91 95 95 94 89 89 87 88 87 82
99 96 96 95 96 96 96 96 96 95 96 97 98 96 92 93 96 96 96 97 98 97 97 95 96 95 93 93 88 93 92 97 95 95 94 94 96 94 90 90 90 87 82
98 96 94 96 94 96 95 94 95 94 95 95 96 92 94 95 94 94 94 96 96 95 94 94 93 93 93 92 92 94 94 97 96 96 96 94 92 93 93 93 93 93 88
94 95 93 93 93 97 96 96 97 97 97 97 95 94 95 98 98 98 98 98 96 97 96 95 95 94 94 96 95 92 93 96 97 98 99 98 94 95 96 94 93 93 94
95 96 92 96 96 96 98 99 99 98 96 99 99 98 98 99 100 100 100 100 99 100 100 100 98 95 92 98 98 98 94 99 97 98 99 98 96 95 96 94 94 98 96
97 98 97 97 97 99 100 99 100 100 100 100 100 100 98 99 99 100 100 100 100 100 100 100 100 99 100 99 99 98 99 100 98 100 98 98 98 99 98 96 98 94 96
92 95 97 98 99 100 99 100 100 100 100 100 100 100 100 99 99 100 100 100 100 100 100 99 98 99 100 99 98 100 100 100 100 100 100 96 98 98 97 98 97 96 94

GFSGL_sfc_rhum_093.txt.gz
RH
78 81 78 74 86 83 80 84 85 83 80 81 81 89 88 83 80 80 73 67 85 80 82 84 82 79 82 88 92 89 87 86 88 72 62 58 71 72 66 74 72 73 70
74 74 74 76 87 87 83 84 83 81 78 76 77 77 76 76 75 78 82 81 82 76 74 80 81 77 85 83 85 85 76 68 80 83 70 60 71 66 76 75 74 71 70
80 83 82 84 87 82 81 84 86 81 79 77 75 80 79 77 78 81 82 82 83 82 80 78 72 71 74 69 70 70 76 74 77 81 69 59 56 63 66 77 74 74 64
86 89 90 89 88 83 78 74 82 83 83 84 82 79 76 76 75 77 80 81 81 78 76 73 71 73 73 73 73 73 71 74 76 82 79 70 64 59 66 71 70 67 68
94 95 95 86 86 84 82 79 76 80 78 76 80 80 80 78 72 77 74 75 77 80 82 80 80 78 82 78 66 72 76 80 80 82 84 77 74 74 77 69 77 72 68
87 90 89 89 88 90 91 95 93 92 88 86 82 78 80 75 91 95 86 76 75 75 78 77 76 91 88 94 94 90 75 78 84 82 80 81 78 74 72 76 79 83 89
86 82 82 83 84 86 85 86 90 93 93 95 95 94 92 91 96 99 99 86 84 85 84 82 80 77 88 76 94 97 96 93 90 76 85 86 84 80 79 81 83 86 87
84 74 77 82 82 80 80 83 87 89 93 94 94 90 92 85 95 95 96 95 92 87 86 86 84 82 82 87 87 88 89 87 91 90 90 85 86 91 95 92 88 86 85
76 72 72 75 75 77 81 83 85 87 89 87 87 87 88 88 94 94 92 89 97 97 92 92 95 96 98 98 98 95 94 94 98 98 97 97 98 95 95 97 98 100 99
74 73 71 72 76 82 85 85 82 80 83 80 83 85 89 88 91 91 90 89 97 96 94 92 98 96 96 97 99 99 99 99 99 96 95 94 94 95 94 97 99 100 100
70 72 74 72 74 80 81 81 81 80 81 84 85 85 85 89 87 88 90 88 93 93 94 94 93 93 92 93 95 98 99 97 97 96 95 95 93 93 92 93 95 94 96
71 72 74 74 72 75 82 81 81 83 85 85 87 86 85 84 87 86 87 88 87 90 94 93 92 87 88 88 90 90 90 92 92 93 91 94 94 95 95 94 94 94 94
75 73 72 70 71 73 80 84 81 80 84 85 84 85 87 85 84 86 85 85 86 90 90 87 85 83 83 87 85 86 87 90 91 93 95 96 94 95 94 90 90 90 92
78 77 72 72 71 71 72 75 80 84 84 81 81 86 86 87 86 84 85 86 82 85 83 86 83 83 85 85 88 88 89 88 88 90 92 91 88 88 88 84 85 85 85
73 74 75 75 72 75 82 84 84 92 86 86 90 89 91 94 94 82 84 89 88 84 84 85 87 87 88 87 88 88 87 86 89 88 88 87 86 83 84 79 74 71 74
74 74 80 78 76 73 73 82 84 86 86 85 87 89 92 89 83 80 78 78 77 75 84 89 92 91 90 87 87 86 84 83 82 80 82 78 75 73 69 65 64 66 66
89 84 78 78 76 77 80 80 85 85 82 83 85 83 84 84 80 79 80 80 78 76 86 88 91 90 87 82 82 80 82 78 73 69 70 70 67 65 66 65 65 62 61
90 91 86 87 87 88 88 90 89 91 93 93 86 88 84 84 84 81 75 73 81 80 80 84 86 84 77 73 70 70 71 72 71 66 73 75 75 70 70 64 64 69 60
85 87 89 90 90 90 88 88 88 87 88 88 83 80 81 80 83 85 82 84 84 82 77 78 80 76 76 74 81 80 81 82 81 81 78 77 80 71 72 69 68 71 64
87 88 87 87 87 86 85 84 83 83 83 85 86 88 80 75 86 88 87 88 86 82 79 76 75 76 78 76 82 81 80 80 78 76 83 82 81 74 74 72 73 70 62
85 83 87 81 82 82 82 82 81 81 81 82 87 89 85 78 83 83 81 85 83 81 84 77 81 82 78 79 74 79 78 83 78 78 78 77 82 78 71 71 71 65 63
79 78 78 80 77 81 77 75 78 76 74 76 79 80 81 82 78 78 79 85 86 80 78 80 79 77 78 76 76 81 80 83 83 80 79 78 75 75 73 73 74 74 69
77 79 76 76 76 81 80 74 79 80 80 82 78 80 82 86 85 81 85 87 82 85 82 80 82 80 80 83 80 78 79 82 81 84 82 80 74 76 78 76 73 73 76
79 82 75 84 85 82 86 88 85 82 80 84 86 86 86 88 90 90 90 89 87 88 88 86 82 80 78 82 80 77 76 82 80 82 85 83 77 75 77 74 74 82 78
84 86 87 86 86 89 89 87 89 88 88 88 88 87 82 85 83 88 89 88 88 87 86 86 85 82 84 86 85 83 88 91 87 93 80 80 83 82 82 77 82 74 78
80 80 83 83 86 87 88 89 90 90 90 90 90 89 86 83 81 86 85 84 85 84 82 82 83 87 84 72 78 90 88 88 85 93 86 78 82 81 81 81 74 79 76

GFSGL_sfc_rhum_096.txt.gz
RH
80 75 77 78 78 74 66 71 73 80 82 88 91 93 92 89 87 84 80 78 77 65 64 77 72 61 68 70 84 80 82 90 88 75 54 56 56 49 48 52 58 66 69
80 75 79 78 78 78 73 72 70 77 77 83 83 91 92 88 84 77 73 66 68 53 57 75 76 67 73 79 78 74 80 85 89 90 77 60 54 54 58 58 46 40 46
79 81 76 69 74 80 81 69 72 72 74 74 72 82 84 85 84 80 72 70 63 61 69 70 66 73 74 74 81 80 77 70 73 75 67 59 56 50 53 55 56 56 46
79 78 79 76 77 80 75 67 78 77 69 70 70 70 74 75 74 73 71 73 73 75 78 78 74 72 72 73 69 66 65 68 67 74 64 60 58 54 57 58 60 55 55
93 94 92 82 77 78 73 68 74 80 79 72 74 75 75 75 73 79 76 80 82 82 82 79 80 79 82 78 65 65 66 70 73 76 77 69 64 61 62 57 63 59 59
89 91 90 89 88 89 90 92 92 90 88 84 81 77 77 78 96 97 94 76 75 75 74 68 66 83 84 94 92 89 77 74 80 81 77 80 72 66 64 64 67 78 84
86 82 84 85 88 90 87 88 92 95 93 93 93 93 92 89 95 95 95 84 82 77 74 74 74 73 88 74 94 97 96 96 96 79 84 84 84 79 82 82 82 82 83
85 88 83 84 86 87 85 88 92 92 92 90 90 89 88 86 93 93 95 88 93 94 95 94 94 94 95 95 94 91 93 94 94 96 97 97 98 97 97 97 99 99 96
78 77 72 85 91 88 87 88 87 87 85 86 85 87 87 88 92 92 88 85 94 94 87 90 89 91 96 96 92 98 99 99 97 94 94 93 91 91 92 92 100 100 99
77 75 70 72 77 80 83 82 80 77 77 76 81 83 88 83 88 88 84 85 93 91 89 88 91 90 92 94 95 98 100 100 99 97 95 94 93 92 92 94 96 100 100
69 67 71 72 78 76 76 76 73 75 76 80 80 81 79 85 82 86 86 78 87 89 89 90 89 87 87 89 90 94 97 94 95 94 94 94 93 92 91 92 93 93 93
71 72 71 75 73 71 75 73 71 74 77 78 80 81 81 80 85 85 85 84 82 85 92 89 91 85 85 85 86 84 84 85 89 91 91 93 92 93 93 93 92 92 90
62 64 64 66 68 69 74 73 74 74 79 78 79 82 84 83 82 83 82 83 82 89 87 87 81 80 81 86 84 87 88 93 91 93 94 94 92 91 98 96 93 92 87
68 63 62 66 66 66 67 71 75 78 80 79 82 85 86 84 87 85 86 86 83 86 86 90 86 85 84 84 90 92 94 94 92 89 90 89 86 84 84 80 81 80 75
66 66 65 65 69 73 78 80 80 91 87 86 88 88 91 93 91 83 86 90 91 88 96 99 95 92 88 86 86 86 85 85 85 86 84 83 81 79 76 70 65 60 62
64 66 71 69 67 65 68 76 82 84 83 83 85 87 87 81 78 79 78 77 75 77 88 89 89 88 86 84 83 82 79 76 74 73 74 67 65 65 60 56 55 56 54
84 76 71 71 68 71 74 75 81 85 82 82 81 82 81 80 77 76 76 75 74 74 86 85 88 86 82 76 73 71 73 69 65 64 65 66 62 57 60 59 59 54 51
89 83 83 83 83 84 85 86 85 86 89 90 83 82 81 81 80 76 70 70 81 75 76 79 79 75 66 62 60 62 64 67 66 61 68 70 70 65 65 58 57 64 52
84 84 86 87 87 85 86 86 85 85 85 84 81 76 75 73 74 75 73 79 77 72 65 64 69 66 66 64 74 74 76 77 76 76 74 71 76 66 66 63 64 63 58
83 82 81 84 84 83 82 80 79 79 78 80 81 82 74 71 82 83 81 81 78 71 68 64 64 66 70 68 75 76 73 74 72 69 77 77 76 68 67 65 67 64 54
78 77 77 76 77 76 77 76 74 75 75 74 80 82 73 69 74 75 74 78 75 72 75 67 72 74 69 70 65 72 71 77 71 69 71 69 76 72 64 64 65 59 56
70 69 69 72 70 74 69 67 69 66 64 66 69 72 68 76 71 71 73 80 81 72 68 71 69 67 69 69 70 77 73 76 75 73 71 68 66 67 65 65 66 66 61
66 70 65 65 66 68 72 64 70 72 72 73 69 71 74 79 78 73 78 81 75 77 75 72 76 72 72 75 74 72 74 75 74 77 78 73 66 69 71 68 65 66 69
66 71 62 72 76 70 77 80 78 72 70 75 79 78 77 78 80 79 80 80 77 78 78 77 73 74 71 75 74 69 68 76 74 73 77 76 70 66 69 66 65 69 69
73 76 77 75 76 79 78 75 77 78 78 78 79 78 71 75 72 78 78 77 75 77 70 74 76 70 70 73 75 75 81 79 78 86 76 73 73 76 72 70 73 67 67
67 68 71 72 75 76 78 78 79 78 78 79 79 79 77 74 73 77 75 72 74 72 69 73 71 71 73 56 64 79 81 80 78 81 82 74 75 73 73 72 69 73 67

GFSGL_sfc_rhum_099.txt.gz
RH
82 78 73 59 59 59 66 67 74 76 80 86 93 93 94 94 92 93 92 84 86 79 75 71 70 63 66 66 68 66 65 66 72 53 46 66 70 73 62 60 57 59 57
83 82 80 72 62 71 72 66 68 73 73 80 85 90 92 92 92 93 92 81 81 84 76 77 67 60 72 64 61 78 77 78 70 73 59 66 67 61 61 61 48 38 48
85 82 81 78 72 76 76 73 74 74 73 74 77 85 88 88 88 87 86 84 74 74 76 68 59 67 68 70 60 58 60 54 67 76 67 55 52 55 58 58 57 57 48
89 84 83 82 77 79 69 68 73 70 71 70 75 74 82 82 79 80 79 77 69 64 68 64 55 66 67 68 68 67 66 72 73 77 66 60 60 59 64 64 64 58 56
93 95 93 83 78 78 80 77 68 70 72 73 71 76 77 77 82 90 80 79 77 76 72 67 76 78 80 78 67 70 70 76 80 82 84 77 72 70 71 66 70 65 64
92 92 91 92 91 91 91 93 84 88 88 85 85 81 88 74 96 96 94 89 82 82 84 82 80 94 91 95 93 91 88 80 79 77 76 79 74 72 71 72 76 80 83
90 90 90 90 91 92 90 92 94 94 93 94 93 90 91 87 94 94 94 80 82 87 89 85 86 88 94 89 96 100 97 97 100 90 91 87 90 98 98 98 96 97 97
94 92 92 91 91 90 91 92 93 92 93 93 92 90 88 87 93 94 96 92 94 92 91 91 92 92 93 94 92 96 98 96 97 94 98 98 97 96 96 95 98 98 98
99 96 94 95 94 93 92 92 93 94 94 94 91 90 89 89 92 92 94 92 92 93 91 93 88 89 94 94 91 97 99 98 96 92 91 90 89 89 90 92 97 99 100
96 91 98 92 92 95 95 96 93 97 97 95 97 94 92 87 89 90 86 88 92 91 89 87 89 87 89 92 90 97 97 98 95 94 93 93 91 92 92 94 95 98 99
87 76 84 94 86 80 84 88 90 92 90 90 90 90 84 85 83 86 86 78 86 89 89 90 89 86 86 86 87 90 94 92 91 93 92 91 91 91 90 90 92 93 93
86 85 68 69 74 70 79 85 79 82 83 81 85 87 86 82 83 85 84 86 84 87 92 91 91 83 84 86 86 83 84 87 90 90 91 92 92 92 91 91 93 91 90
68 78 87 74 70 71 77 75 81 82 84 85 83 86 85 86 89 85 83 83 85 89 89 86 82 81 82 84 85 86 89 95 97 94 94 94 93 93 96 96 100 97 87
68 63 67 71 75 75 72 77 85 90 89 89 87 88 88 87 90 91 90 91 87 90 89 92 88 86 84 86 89 90 92 93 93 92 92 90 90 86 83 81 78 77 68
62 64 67 69 69 74 84 83 81 92 90 89 92 92 93 94 91 83 87 92 95 93 94 94 92 90 86 87 85 85 87 86 87 87 84 80 78 77 70 65 61 58 58
65 67 72 69 66 64 69 79 81 83 82 82 86 88 88 81 77 76 75 75 76 82 87 89 92 91 87 84 83 79 75 71 70 69 70 64 62 62 59 56 54 55 51
83 76 71 72 71 73 76 75 84 87 80 81 81 81 79 78 74 73 72 72 74 76 86 86 88 84 77 70 69 68 70 67 64 63 64 66 63 58 59 57 60 54 51
84 84 86 86 85 84 85 85 87 86 89 90 80 78 75 75 74 74 71 67 76 71 71 74 74 70 63 61 60 62 64 67 65 60 67 70 71 65 65 58 56 67 55
81 85 85 85 84 86 86 86 85 84 86 86 83 77 74 70 69 69 68 74 72 67 61 61 67 64 64 64 73 72 74 74 73 75 73 71 76 66 66 64 64 66 62
78 81 84 87 87 84 81 79 78 78 79 80 80 80 75 69 78 79 78 78 75 68 66 62 62 64 68 66 74 75 72 72 71 68 75 76 77 68 67 66 67 65 55
80 75 75 76 76 76 76 75 73 74 73 73 76 77 70 67 72 73 72 75 72 70 73 65 69 71 67 68 65 70 70 76 69 69 70 69 74 71 63 64 64 58 54
62 61 62 66 66 72 66 64 66 63 61 64 67 68 65 73 69 69 71 78 79 71 67 70 68 66 68 69 70 76 73 75 75 74 73 69 65 66 66 64 65 66 62
59 64 58 58 60 62 68 61 67 68 68 70 66 68 71 76 76 72 76 78 73 76 73 72 76 72 72 74 72 71 75 77 76 75 78 76 68 70 74 69 64 66 68
61 64 56 66 74 67 74 76 75 69 66 72 76 74 74 75 77 75 78 77 75 76 78 76 72 71 70 76 75 70 72 78 75 76 79 76 71 70 73 68 66 68 67
68 69 70 69 72 74 73 70 72 73 73 74 76 75 68 71 69 74 75 74 71 74 69 71 74 69 71 69 71 74 79 78 78 78 77 77 72 72 72 69 71 68 68
62 63 66 68 70 72 73 74 74 73 74 75 75 75 74 71 70 73 71 69 70 69 63 69 68 68 67 63 79 76 75 76 78 78 79 76 74 72 74 79 74 71 68

GFSGL_sfc_rhum_102.txt.gz
RH
82 80 86 82 70 73 75 78 80 87 89 92 93 95 96 95 96 96 95 95 95 96 95 95 90 80 74 76 85 85 86 90 89 79 71 76 83 83 71 76 78 74 74
87 90 90 84 73 72 79 81 85 87 88 88 92 93 94 95 95 95 95 93 95 94 94 90 86 76 82 84 86 85 88 78 82 83 82 79 80 78 77 72 65 56 62
91 92 92 89 82 77 78 77 85 85 84 88 90 94 94 93 94 92 91 91 91 89 89 88 83 80 79 76 76 81 88 82 90 90 80 78 77 76 69 68 68 67 56
93 93 93 93 86 83 81 81 81 81 83 86 88 90 92 91 90 92 91 91 88 84 82 83 79 83 80 75 75 75 72 83 84 91 90 82 73 68 68 67 71 68 68
91 93 96 95 89 88 87 83 81 80 80 81 86 85 86 88 85 90 87 89 88 85 83 80 81 80 81 80 73 78 80 79 81 84 82 78 79 83 86 80 87 85 86
91 93 92 93 93 95 95 95 94 92 89 88 87 85 86 81 96 95 95 88 84 82 85 84 77 92 92 93 92 92 87 82 83 84 84 93 93 92 97 98 98 97 98
91 90 90 90 92 93 91 92 94 95 93 94 92 89 93 91 96 96 96 87 94 94 92 91 90 85 93 87 94 99 97 99 100 96 97 97 98 98 97 97 96 99 100
94 93 92 91 92 89 90 92 93 93 93 93 92 90 90 89 95 98 98 90 92 92 92 91 91 91 93 94 92 96 95 94 96 90 96 98 98 97 94 93 97 98 99
97 97 97 94 94 94 95 96 96 94 93 93 90 90 91 94 95 96 90 90 92 94 91 93 90 92 98 96 96 97 96 98 97 94 92 91 89 88 90 95 97 99 100
98 100 98 97 99 98 99 99 97 100 100 94 95 95 94 93 95 95 91 92 96 95 96 96 93 94 94 96 97 98 96 98 96 94 93 92 90 90 89 94 96 97 97
98 99 98 100 99 100 100 100 100 100 100 100 97 96 96 96 96 95 96 96 96 96 95 95 92 88 86 87 89 93 94 93 94 94 93 93 92 92 91 91 93 96 97
91 93 92 94 96 97 99 100 99 100 99 98 96 96 97 95 90 91 91 91 89 91 95 94 89 84 86 90 91 91 89 90 91 92 92 93 94 96 97 97 95 94 95
80 89 90 88 90 93 94 96 96 93 96 95 92 93 94 94 97 87 83 85 86 90 90 87 85 83 84 84 86 86 88 90 91 93 95 96 97 96 94 97 98 92 91
74 75 83 85 84 86 85 86 90 95 93 89 89 92 93 93 94 94 96 97 91 92 93 92 88 85 84 85 87 89 90 90 93 95 96 97 95 91 94 94 94 93 93
71 73 74 75 76 80 88 90 88 94 91 92 94 94 95 96 97 95 93 96 96 94 90 89 90 90 90 90 88 86 86 87 88 90 91 93 92 95 93 93 91 92 89
80 80 86 89 83 77 80 87 80 83 80 82 82 88 93 81 78 79 78 76 78 80 87 91 92 90 89 88 88 88 87 86 88 87 90 89 92 87 84 81 86 88 89
92 89 87 86 85 87 96 87 92 86 76 77 78 78 79 80 80 74 71 71 74 77 88 89 88 87 85 82 84 85 88 91 87 84 86 86 85 83 81 73 77 79 82
92 89 91 93 93 93 93 92 93 93 95 96 78 76 72 72 72 73 69 69 80 76 80 84 85 85 82 83 82 85 87 90 89 85 92 93 93 90 90 86 82 91 86
89 95 94 94 94 94 93 92 92 91 92 92 89 89 86 69 69 70 69 85 84 82 78 79 84 84 86 87 91 93 92 94 94 94 94 92 94 94 93 92 89 87 85
86 85 89 92 91 91 90 90 90 91 88 88 89 91 89 83 88 88 88 89 88 86 84 82 84 86 89 88 93 92 92 91 91 92 93 95 94 94 93 92 92 92 88
85 83 81 83 86 85 84 84 84 87 86 86 91 92 87 84 87 88 89 90 89 90 91 87 90 90 88 89 88 93 91 93 89 90 92 93 94 93 93 91 92 89 87
76 75 75 79 78 83 81 79 84 82 80 84 88 87 84 90 88 88 90 94 93 90 90 91 89 90 92 91 91 92 92 94 94 94 91 90 91 92 91 92 92 93 90
73 76 71 74 77 80 84 80 86 88 88 89 86 90 91 92 93 91 94 95 92 93 93 89 90 89 88 94 92 88 92 95 94 94 96 95 91 93 92 93 93 94 91
76 79 71 83 88 84 91 94 91 86 87 89 92 92 93 94 95 93 95 93 95 94 94 95 93 91 91 93 92 87 90 96 92 94 94 95 95 93 94 93 91 90 92
82 85 88 86 88 90 90 88 90 90 91 92 92 92 90 91 90 93 93 93 92 93 92 94 93 88 86 92 92 89 92 95 95 96 95 93 94 92 95 96 96 92 89
77 79 82 85 88 88 89 91 92 91 92 92 92 92 92 91 91 94 91 89 92 92 86 92 88 81 86 88 87 95 94 96 95 95 96 96 97 93 93 94 91 92 91

GFSGL_sfc_rhum_108.txt.gz
RH
89 93 96 96 97 93 90 93 93 94 96 96 96 97 98 97 97 98 98 97 98 98 96 95 94 94 96 96 96 95 93 92 89 88 77 81 90 89 88 88 86 88 83
87 90 96 96 97 96 96 94 92 95 95 96 94 94 94 96 98 97 98 98 96 97 98 96 97 96 97 96 96 95 91 89 89 90 85 82 80 88 89 93 89 82 88
85 89 91 94 97 97 96 97 93 96 93 96 94 95 94 96 98 98 97 98 98 94 94 96 96 97 98 97 95 94 90 88 91 88 87 85 83 86 84 82 87 90 78
86 89 92 93 94 97 96 94 93 92 92 94 94 94 96 96 98 96 97 98 97 97 96 95 95 96 94 96 93 91 93 92 94 93 86 91 90 86 85 86 91 90 82
86 90 92 90 90 92 96 97 96 96 95 93 95 95 94 95 94 98 96 97 98 98 98 97 96 96 100 98 95 96 97 98 98 96 97 97 97 96 94 92 93 88 99
87 91 92 90 88 92 94 96 96 96 94 93 93 92 93 89 98 98 100 97 96 97 98 97 96 100 99 100 100 98 100 96 96 95 92 96 95 94 98 98 97 100 99
90 89 88 91 92 94 93 95 96 97 96 96 96 95 97 97 98 98 100 95 96 97 97 99 94 92 98 94 98 97 96 96 100 95 92 98 98 98 97 97 98 99 100
91 89 91 90 93 92 96 98 98 95 96 95 96 96 96 95 97 97 96 94 95 96 95 94 95 96 97 96 95 96 97 97 96 93 98 100 100 98 95 96 98 98 97
94 95 97 95 96 95 96 98 98 97 96 97 94 95 97 97 97 95 92 93 95 97 95 96 95 98 99 94 93 96 98 98 97 94 95 91 90 92 95 97 100 100 99
96 97 96 98 96 98 99 99 100 97 98 97 97 97 96 97 96 94 92 91 96 96 96 97 99 99 97 93 93 95 98 99 97 96 95 92 89 91 92 96 97 99 96
92 92 94 95 97 98 98 99 99 98 97 97 96 96 97 97 98 97 94 93 96 96 96 97 98 98 96 94 94 95 97 96 98 96 96 96 92 90 91 92 95 94 97
86 90 91 93 96 97 97 97 97 98 97 96 96 96 96 96 94 96 94 95 95 93 97 98 98 94 94 94 94 96 95 95 95 96 95 96 97 90 91 89 89 87 88
75 83 86 84 86 88 94 96 96 97 96 96 96 96 96 97 98 97 97 97 97 96 96 96 96 96 95 95 95 94 93 94 95 94 94 94 97 98 98 93 91 88 82
82 76 78 82 83 84 80 82 88 92 92 94 95 96 97 97 97 98 98 96 92 94 94 94 93 93 93 94 92 91 93 94 94 95 96 95 93 91 92 96 95 89 80
87 89 82 80 82 83 89 91 90 96 92 94 96 96 96 97 98 97 96 97 97 97 95 95 95 94 93 92 91 91 92 92 93 94 93 93 92 90 89 88 84 78 81
85 90 95 92 87 84 85 90 82 85 86 87 89 94 95 88 84 87 88 88 88 87 92 94 96 96 96 95 95 94 93 91 91 89 91 88 85 85 82 78 80 86 80
97 95 96 95 96 92 96 91 96 92 83 85 86 84 90 75 75 76 77 77 75 79 92 95 95 95 94 92 92 92 95 93 89 89 90 91 87 85 84 82 80 81 79
97 98 99 100 100 99 99 100 99 100 99 98 88 86 79 77 74 73 74 78 90 88 93 95 96 96 94 91 90 91 91 90 89 86 90 92 94 89 88 85 82 92 87
96 98 98 99 99 99 98 97 97 97 97 98 96 92 91 80 82 83 84 94 96 96 93 94 96 94 94 92 95 96 96 96 97 96 96 94 97 94 93 93 92 91 89
98 96 97 98 97 97 99 97 96 96 96 98 98 99 98 91 95 97 96 96 95 96 95 95 95 95 97 96 97 97 95 95 95 95 98 99 97 98 98 97 97 95 92
98 97 95 94 96 97 98 97 97 96 97 99 100 99 96 95 99 99 98 98 98 98 99 97 98 98 97 96 94 96 96 99 97 97 98 98 99 99 98 98 96 96 93
97 97 97 99 97 97 98 98 98 96 97 98 100 97 99 99 98 97 99 100 100 98 97 98 99 98 97 96 97 100 100 100 100 99 99 99 98 96 96 98 97 99 97
96 95 94 98 98 95 97 97 98 99 98 99 98 98 98 100 100 100 100 100 99 98 99 97 99 99 99 100 99 97 99 100 100 100 100 100 99 100 100 99 99 98 98
96 97 96 100 98 99 99 100 100 99 98 100 100 100 100 100 100 100 100 100 100 100 100 100 98 99 99 100 100 100 99 100 99 100 100 100 100 99 100 99 99 100 100
97 99 98 98 99 98 98 99 100 100 99 99 99 100 100 100 99 100 100 100 100 100 100 100 100 99 97 97 98 99 99 100 100 100 100 100 100 100 100 100 100 100 100
97 97 98 98 99 99 98 98 99 99 99 100 100 100 100 100 100 100 98 99 100 100 100 100 100 100 96 98 98 99 99 100 100 100 100 100 100 100 100 100 100 100 100

GFSGL_sfc_rhum_111.txt.gz
RH
87 89 93 96 86 92 92 94 95 96 97 97 96 96 95 96 97 98 96 95 98 97 98 98 95 94 93 94 97 96 94 94 86 91 78 85 92 88 87 87 88 88 85
85 89 92 91 93 97 96 94 96 96 95 95 95 96 96 96 96 97 98 98 98 98 97 98 97 96 95 94 96 98 96 98 96 92 90 86 87 92 92 94 92 83 86
84 87 91 92 93 94 96 97 96 96 96 96 96 96 96 96 98 98 97 98 98 97 98 97 96 96 98 98 96 96 96 96 97 94 89 90 88 87 89 89 90 93 87
85 88 91 92 92 92 90 94 96 95 95 95 95 94 94 94 95 96 97 98 98 97 96 96 96 94 94 95 97 97 97 97 95 96 95 95 91 88 89 89 91 87 85
86 89 91 89 88 89 90 89 92 96 94 94 97 97 96 96 99 98 97 98 98 99 98 99 97 97 100 98 95 96 98 97 97 96 94 98 98 98 94 93 92 94 99
86 90 89 87 87 90 90 90 91 92 93 97 97 97 96 92 98 99 100 98 98 98 98 98 98 100 100 100 100 100 98 96 96 96 96 97 96 95 96 95 95 98 100
89 86 87 88 89 91 91 91 94 96 96 96 96 96 97 97 99 99 100 98 99 99 99 99 98 98 100 97 99 98 98 98 100 97 96 96 97 97 97 98 99 99 100
92 90 89 88 89 88 91 94 97 99 100 98 98 96 96 94 97 97 97 95 96 97 97 97 98 99 99 97 96 97 98 98 98 96 99 100 100 99 96 97 97 98 97
95 95 95 92 91 91 94 96 96 96 99 100 98 96 97 97 96 95 93 94 96 97 96 98 97 99 98 95 95 97 98 98 94 92 92 93 93 95 96 98 100 100 100
95 96 95 95 95 95 96 97 97 95 97 96 96 97 99 98 99 97 92 92 96 96 96 98 98 99 96 95 94 94 98 98 96 95 94 93 92 93 93 97 99 100 97
90 90 92 93 94 96 96 97 96 97 96 96 96 98 97 97 99 96 98 98 97 96 97 98 98 97 97 96 94 94 97 96 97 96 96 95 93 94 94 94 96 96 98
83 88 89 90 92 93 94 94 94 95 95 97 97 96 96 98 97 97 95 95 94 94 97 97 97 94 93 94 94 96 97 95 94 95 95 94 90 90 89 87 89 89 90
75 82 87 85 87 88 92 93 92 92 94 96 96 96 96 97 98 97 96 96 96 96 96 97 96 94 95 96 96 95 97 97 96 95 96 97 97 97 92 83 82 84 79
80 79 78 84 82 84 83 83 89 93 93 92 93 95 96 96 97 97 96 97 96 96 96 96 96 95 95 96 96 96 97 97 94 93 94 94 91 91 91 94 86 86 81
86 85 84 82 84 85 90 92 90 96 93 95 97 96 96 96 98 97 95 97 97 97 94 94 95 96 95 96 96 96 96 94 94 94 92 91 90 88 90 88 82 79 83
82 89 92 94 91 87 92 92 84 84 86 88 91 91 94 85 82 81 83 84 87 90 93 95 96 96 96 96 96 96 96 95 95 93 92 88 87 86 85 86 86 86 85
95 94 96 96 96 92 96 95 97 89 80 86 86 84 78 77 78 79 80 80 78 81 94 96 96 96 95 94 93 93 96 93 88 89 90 91 87 83 83 84 86 81 79
97 99 99 98 98 98 99 98 98 98 99 97 89 88 80 80 81 78 77 80 92 90 94 96 97 96 94 92 91 90 90 91 90 88 91 92 92 88 87 83 84 90 84
96 98 99 99 99 98 97 97 98 98 99 99 96 93 92 80 84 86 86 95 96 97 94 94 96 95 95 94 97 96 96 97 96 96 96 94 96 91 94 93 89 88 85
98 95 96 98 99 100 98 97 97 98 98 98 97 99 97 90 95 97 96 96 96 98 97 96 96 96 97 95 97 97 95 96 96 95 97 97 97 96 96 96 95 92 84
99 98 97 97 98 99 98 97 98 98 100 100 100 100 97 96 99 99 98 98 99 98 100 98 98 98 97 96 94 96 96 99 96 97 97 97 98 98 97 96 95 92 88
97 97 98 98 97 98 99 98 97 98 98 99 100 99 99 99 98 98 99 100 100 99 98 98 97 97 97 96 97 99 99 100 100 99 99 98 98 98 97 98 98 99 98
97 97 96 97 97 98 99 99 99 99 99 100 100 98 99 100 100 100 100 100 100 100 100 99 99 98 99 99 99 98 98 100 100 100 100 100 100 100 100 100 99 99 100
97 98 97 100 100 99 100 100 100 99 98 100 100 100 100 100 100 100 100 100 100 100 100 100 99 98 99 100 100 100 98 100 100 100 100 100 100 98 100 99 100 100 100
98 100 100 100 100 99 99 98 100 100 100 100 100 100 100 100 100 100 100 100 100 100 100 100 100 98 99 100 100 96 98 100 100 100 100 100 100 100 100 100 100 100 100
98 98 99 100 100 100 99 99 99 100 100 100 100 100 100 100 100 100 100 100 100 100 100 100 100 99 98 100 98 100 100 100 100 100 100 99 100 100 100 100 100 100 100

GFSGL_sfc_rhum_114.txt.gz
RH
85 87 90 90 90 94 86 93 94 95 96 97 96 96 96 94 98 98 98 98 98 98 96 96 93 92 97 96 94 93 93 91 90 96 90 92 93 88 85 86 86 87 85
85 86 89 89 88 91 93 96 95 95 95 95 96 97 97 97 97 97 97 96 96 95 92 97 97 97 96 95 95 94 90 93 95 94 97 95 90 90 87 90 88 80 86
84 86 88 90 90 91 91 90 93 97 97 97 97 98 97 96 97 96 95 96 96 94 96 96 97 97 98 97 94 93 93 92 94 97 99 96 93 91 94 93 96 98 89
84 88 90 90 90 90 89 89 90 91 95 98 97 96 96 96 96 97 97 97 97 96 96 97 96 96 95 96 96 95 96 97 96 97 97 98 95 95 94 94 97 97 91
85 87 90 88 87 87 89 88 88 90 89 90 95 97 96 98 98 98 96 97 97 98 98 98 97 96 97 94 94 95 95 95 96 97 96 96 98 99 97 92 91 98 97
86 89 86 85 86 89 89 90 89 89 90 91 93 93 94 92 98 99 100 97 98 99 99 99 99 100 100 100 100 100 98 96 96 96 95 96 93 92 96 95 93 99 99
88 86 87 86 86 88 88 90 93 95 93 95 94 94 95 96 97 98 100 99 99 99 100 99 99 99 100 98 99 99 99 98 100 93 94 94 93 94 96 99 96 96 99
91 90 89 88 89 87 88 92 94 95 98 98 98 96 95 96 97 97 97 95 97 97 98 97 99 99 99 99 98 98 98 98 98 98 100 100 100 99 98 98 98 98 98
94 95 94 90 92 91 94 94 94 94 95 96 96 96 98 98 98 97 93 94 97 97 97 98 98 99 99 96 96 98 98 98 99 100 99 99 98 97 98 98 100 99 100
95 95 94 94 95 95 96 96 95 94 96 93 94 96 95 97 100 99 95 97 96 96 96 98 98 99 97 94 95 96 98 99 97 96 96 96 95 96 95 98 100 100 97
90 90 91 92 94 94 94 94 94 94 92 93 94 94 95 97 97 95 94 95 97 95 96 97 98 98 96 96 94 96 98 95 97 95 95 96 95 95 94 95 97 98 98
81 88 90 90 92 92 93 93 92 93 92 93 92 93 94 95 91 93 94 95 96 95 96 96 97 96 95 94 95 95 95 94 93 92 92 93 94 95 94 95 95 94 96
80 80 86 84 86 87 88 90 92 93 93 93 92 94 94 94 94 91 94 95 95 96 96 96 95 94 95 96 95 96 96 97 97 95 96 96 96 97 92 87 88 87 88
77 81 75 82 84 79 76 79 86 88 89 90 90 95 94 93 94 94 94 95 93 94 96 96 96 96 96 96 96 96 96 96 96 96 97 97 96 95 94 91 87 83 82
77 77 81 79 83 86 87 92 89 96 95 94 96 95 95 95 95 89 91 96 96 95 94 94 95 95 95 95 95 95 96 95 95 96 96 96 95 93 94 92 89 82 86
82 83 92 93 88 85 90 90 80 83 81 82 81 88 94 82 77 80 80 80 81 81 90 94 95 95 95 95 95 95 94 93 94 94 94 94 94 94 90 86 84 83 83
94 92 94 94 94 95 94 92 96 88 77 82 83 78 78 79 78 78 79 81 80 82 93 96 97 96 95 93 92 92 94 92 86 87 88 87 82 79 84 82 80 76 76
97 96 99 99 100 98 98 98 98 99 99 96 86 86 80 81 82 83 77 80 92 89 93 95 96 95 92 89 88 88 88 90 89 85 89 90 91 84 84 80 80 85 76
95 97 98 100 100 98 98 98 99 98 97 98 95 93 93 81 83 86 87 94 96 96 93 94 95 94 94 90 95 95 96 96 96 95 94 92 95 87 87 83 81 84 79
98 97 97 99 100 98 98 98 98 98 97 98 98 99 97 91 96 97 96 97 97 97 97 95 93 92 94 93 96 97 95 96 95 94 96 96 96 91 90 87 87 84 78
98 98 98 98 98 100 97 98 98 99 100 100 100 100 97 96 100 100 99 99 98 97 98 94 96 97 94 94 88 94 95 99 95 95 95 95 97 94 90 89 87 82 79
98 97 99 99 97 98 100 97 99 98 99 100 100 98 99 99 98 98 98 100 100 99 96 95 92 90 91 91 92 96 97 98 98 97 96 96 94 93 91 92 92 92 88
97 98 97 97 97 99 100 98 98 99 100 100 99 98 99 100 100 99 100 100 99 100 98 95 96 96 97 98 97 93 94 97 97 99 100 98 95 95 96 94 93 93 93
97 98 97 99 100 99 100 100 98 98 99 100 100 100 100 100 100 100 100 100 100 100 100 100 96 96 97 100 99 97 92 98 97 98 100 99 95 93 93 93 94 97 95
99 100 100 100 100 100 100 99 99 99 100 99 100 100 99 100 100 100 100 100 100 100 100 100 98 97 99 99 95 93 99 100 98 100 99 99 97 99 96 94 96 93 96
98 99 100 100 100 100 100 100 100 99 99 100 100 99 99 99 99 100 99 100 100 100 100 100 99 98 99 98 95 99 100 100 99 99 100 96 97 98 98 97 98 96 94

GFSGL_sfc_rhum_117.txt.gz
RH
85 85 86 86 86 87 89 89 96 95 94 94 94 95 95 94 93 94 93 94 95 95 96 95 93 88 92 93 95 92 94 94 97 95 89 94 94 91 87 79 72 74 69
84 85 87 86 85 86 88 87 89 94 94 92 93 95 94 93 91 94 94 94 95 97 96 96 94 91 90 89 94 96 96 94 93 96 96 98 96 92 89 90 77 70 72
83 85 87 88 88 89 88 87 87 89 91 94 95 96 95 96 95 95 94 95 95 93 92 91 87 82 93 94 96 96 95 93 92 93 96 95 96 96 93 85 73 75 78
80 84 86 87 87 88 87 86 87 86 89 89 92 95 96 97 96 96 96 94 93 90 86 87 78 90 93 96 96 92 94 94 92 93 95 95 92 96 90 90 96 91 86
81 84 87 84 83 84 87 88 87 88 88 88 89 89 90 87 87 95 96 96 95 92 90 89 92 93 100 97 95 94 94 95 96 96 96 98 96 99 96 89 93 96 95
83 87 82 82 83 86 87 88 88 89 88 90 90 89 92 86 96 96 97 97 95 95 96 92 91 99 99 100 100 99 94 94 93 93 92 94 94 93 95 96 96 99 99
84 83 84 83 83 86 86 86 90 92 91 91 91 91 93 94 96 96 97 94 96 96 99 99 99 99 100 97 99 99 99 99 100 90 91 91 91 92 94 98 96 94 95
87 85 85 85 84 83 86 90 93 93 95 94 94 92 92 94 98 96 94 94 96 97 97 97 98 98 99 99 99 98 98 98 98 98 100 100 100 100 97 92 91 97 98
92 94 92 88 87 88 92 94 95 94 95 95 94 94 94 96 94 97 93 94 95 99 98 97 97 97 99 97 97 98 98 99 98 98 97 96 97 97 98 99 100 98 100
92 93 91 94 93 94 95 96 98 97 100 95 97 94 92 95 96 94 92 96 98 97 98 97 96 98 97 96 95 96 98 99 98 96 96 95 95 96 95 99 100 99 100
84 84 90 91 92 92 95 96 97 99 98 97 99 99 96 96 94 90 94 95 96 96 96 96 97 95 94 96 95 96 98 96 96 95 96 95 94 94 94 95 97 99 100
72 78 82 84 88 89 88 91 92 91 91 90 90 90 92 97 88 88 87 88 91 95 97 97 97 94 92 92 94 95 94 93 94 93 94 95 95 95 95 95 95 95 96
65 65 71 72 75 78 86 88 81 84 86 86 87 91 88 87 91 86 86 87 88 93 94 96 94 94 95 95 95 95 95 96 97 95 96 97 97 97 96 95 95 94 94
67 63 56 61 62 67 65 64 72 84 80 81 84 88 86 89 89 87 90 91 86 90 88 91 91 93 94 95 94 95 96 96 96 96 96 97 96 96 95 96 95 95 92
63 66 65 61 60 58 67 76 76 88 86 84 87 88 94 94 93 83 86 90 90 88 87 87 89 90 91 93 94 95 96 95 95 96 95 95 94 92 91 86 83 83 85
62 63 75 72 69 61 58 58 75 76 78 78 78 86 85 81 74 77 79 78 79 78 85 90 93 92 91 90 91 92 92 93 94 93 93 92 91 91 85 75 70 75 80
81 75 71 76 72 69 68 70 74 74 70 75 79 78 78 79 79 77 76 78 78 72 84 86 89 89 86 80 81 82 88 90 91 91 91 90 83 70 68 66 62 58 58
87 86 83 88 87 82 82 86 87 88 87 85 77 83 81 80 82 82 74 69 79 77 77 81 84 82 76 73 73 75 77 79 79 74 79 83 82 76 73 68 66 69 61
85 84 89 91 92 88 85 85 84 82 82 82 76 73 81 79 80 83 81 84 83 81 76 77 81 77 77 75 85 86 89 89 87 87 85 83 84 74 74 70 71 70 61
84 89 91 88 88 86 83 81 79 79 78 80 80 82 76 73 86 89 88 89 87 83 81 76 76 76 80 80 87 88 87 87 86 82 88 87 84 75 75 72 72 69 60
86 81 94 77 81 84 83 83 81 81 81 80 84 88 94 75 82 84 83 88 85 82 86 78 82 83 79 80 75 85 85 90 84 85 83 81 85 80 72 71 70 63 57
80 78 76 80 76 82 83 79 82 80 77 77 79 79 88 81 77 78 79 87 89 82 76 77 73 71 73 72 76 84 86 90 88 85 83 83 78 79 76 76 75 74 66
77 80 74 73 79 85 85 82 83 85 84 85 80 80 81 86 85 80 84 88 82 85 81 79 82 80 80 82 80 76 77 81 86 89 87 83 77 78 81 77 75 74 73
79 82 74 78 85 82 87 89 89 88 86 88 90 89 87 88 89 89 91 90 87 88 88 86 81 79 77 82 79 75 74 81 81 85 89 84 78 75 78 76 77 82 78
81 84 83 82 86 90 90 86 88 90 90 90 90 90 85 89 86 89 91 91 90 89 85 85 83 81 81 81 82 81 87 89 86 94 83 82 84 81 80 76 79 75 78
80 81 82 84 82 85 87 89 90 90 89 90 90 90 89 87 86 90 89 87 89 88 84 87 84 79 79 76 78 88 86 88 84 94 86 79 80 79 78 78 75 76 74

GFSGL_sfc_rhum_120.txt.gz
RH
82 83 84 83 83 84 86 85 87 90 95 96 93 92 92 93 97 98 97 94 94 92 91 91 90 89 92 87 88 80 90 95 98 90 86 86 96 95 92 91 82 72 60
82 83 86 85 83 85 87 85 85 85 90 95 92 91 94 93 93 97 96 94 94 94 92 94 92 90 93 87 87 88 90 89 95 97 94 96 94 94 92 94 86 66 63
78 81 84 85 85 87 86 85 84 84 84 87 90 95 93 94 95 95 95 93 94 91 91 91 88 92 95 91 88 86 76 80 91 97 96 93 94 96 96 94 95 91 86
75 77 84 85 84 84 84 84 86 84 84 85 85 86 87 86 87 90 93 95 93 93 92 90 89 91 89 83 83 77 80 94 97 97 93 95 93 96 94 96 99 96 90
75 77 80 80 79 80 84 84 84 85 82 82 83 86 87 86 86 93 90 93 97 96 95 94 92 91 94 85 79 83 89 96 98 97 96 95 98 98 97 93 92 98 95
74 78 76 74 74 83 81 82 83 85 84 84 84 88 91 87 96 96 96 93 93 98 98 97 95 100 99 100 100 100 96 96 97 97 95 95 92 92 93 93 93 98 99
76 74 74 74 76 80 81 84 89 89 87 88 88 87 90 91 94 95 95 90 93 95 96 93 95 96 99 98 100 99 99 99 100 90 93 89 90 89 92 94 94 93 90
86 82 80 78 76 76 80 86 92 94 96 95 93 88 89 88 92 92 93 89 93 94 95 95 96 96 96 98 99 98 97 97 98 98 100 100 100 99 94 88 91 96 98
94 95 92 86 85 85 88 92 92 91 99 100 100 98 97 96 92 92 88 87 92 97 96 96 95 95 98 97 96 98 99 99 96 94 95 95 95 96 98 100 100 99 100
94 97 94 94 96 95 99 99 99 96 100 95 100 100 93 99 90 88 89 88 94 93 94 95 97 100 98 97 97 96 97 99 98 96 95 94 94 95 95 98 100 98 100
81 82 91 95 97 99 100 100 100 100 100 100 100 100 100 98 97 87 87 97 98 94 94 95 96 94 94 96 97 97 98 96 96 96 95 95 95 94 95 95 97 99 100
59 66 70 75 94 96 98 100 100 100 100 100 100 97 94 98 86 87 84 87 88 97 98 96 98 96 95 95 95 96 94 92 94 94 94 95 95 95 95 95 96 96 96
48 51 54 53 56 62 79 85 79 88 84 88 84 89 89 90 92 81 83 82 86 96 94 91 87 88 89 93 95 96 96 96 97 96 96 97 97 97 96 94 95 96 95
45 44 44 47 48 48 48 52 65 77 77 78 82 85 86 85 87 87 88 90 82 87 91 94 89 89 86 89 92 96 97 97 96 96 96 97 96 95 96 97 96 96 95
42 44 47 45 45 42 47 61 62 79 77 82 85 86 91 90 90 82 84 90 92 90 95 96 93 91 89 91 90 90 91 93 94 96 95 94 93 92 94 94 93 94 94
45 46 56 53 51 47 45 46 75 71 72 75 75 79 84 78 78 76 76 76 72 75 83 88 89 88 88 87 88 87 86 84 87 86 88 90 91 89 89 89 88 91 90
69 60 55 58 57 58 62 63 67 67 64 68 72 75 75 77 78 78 74 69 70 69 83 84 85 84 81 73 73 74 78 78 80 78 79 82 84 87 83 77 73 72 79
79 70 72 72 74 75 76 79 77 79 80 79 68 68 72 75 75 76 72 64 73 68 68 73 76 74 65 62 62 64 67 70 69 64 73 76 77 71 72 68 67 73 64
74 73 78 78 77 79 77 76 75 74 74 74 70 64 64 64 66 69 69 76 75 70 64 64 70 67 67 65 77 78 80 82 80 81 78 75 81 70 70 66 68 63 54
69 67 70 73 72 72 72 71 69 69 68 69 71 74 69 63 76 79 78 82 78 72 72 65 66 67 72 70 78 81 77 78 75 72 79 80 80 71 70 67 67 63 52
67 64 65 62 64 65 67 68 67 68 69 68 72 80 82 69 72 72 70 77 76 73 77 68 71 74 70 71 66 75 74 81 74 73 72 72 77 73 65 65 65 56 50
58 58 57 60 58 64 65 61 67 67 64 65 67 67 78 73 69 68 69 78 80 71 67 72 70 66 68 68 70 78 76 80 80 77 73 70 67 68 66 66 67 66 57
56 61 57 52 60 62 66 62 68 74 72 72 70 69 71 76 76 71 76 80 73 75 74 71 76 72 72 76 74 71 73 76 78 83 79 72 67 69 72 69 66 66 66
58 64 57 62 68 66 74 76 74 70 72 75 82 79 77 76 79 77 79 79 77 78 78 77 73 74 70 74 74 68 69 77 74 76 78 75 68 65 68 65 66 70 68
67 70 69 69 71 76 77 72 74 77 78 80 79 79 72 77 73 77 77 76 76 76 66 73 74 66 72 75 76 75 80 79 79 85 72 68 72 67 71 66 70 65 68
64 63 66 69 70 72 74 76 77 76 77 79 78 82 81 76 74 76 74 73 73 71 69 73 65 63 62 53 71 81 80 79 79 82 82 67 70 69 69 67 55 68 63

GFSGL_sfc_rhum_123.txt.gz
RH
86 87 90 92 92 93 94 92 89 88 91 94 95 94 92 93 97 98 97 94 93 96 95 92 88 81 84 87 88 82 86 86 88 73 63 69 76 86 86 92 88 85 86
82 82 84 82 91 90 90 88 87 86 87 89 91 92 92 92 94 98 97 94 93 91 91 89 90 89 92 88 88 90 88 83 83 93 81 88 85 86 90 95 94 90 90
87 81 82 84 84 85 85 84 83 84 84 84 86 90 89 88 88 92 94 95 96 96 94 94 92 93 95 93 91 91 87 87 84 91 86 85 86 88 95 94 95 94 94
81 77 81 83 84 84 81 82 84 82 84 84 84 85 86 85 86 87 86 90 94 95 95 95 93 94 94 93 93 92 89 88 80 88 89 96 96 92 95 97 99 98 98
74 76 78 75 75 78 81 82 83 84 83 82 83 85 86 85 87 92 88 91 93 94 93 96 93 95 99 96 95 95 94 92 91 94 97 98 96 99 98 96 96 98 98
74 78 75 75 76 80 84 83 84 85 85 85 85 85 87 82 92 93 93 90 89 91 94 92 94 97 98 100 100 100 100 96 96 97 97 98 95 94 95 96 98 99 99
81 78 76 74 75 78 74 82 88 91 90 91 90 88 87 86 91 91 91 89 91 92 94 94 90 87 94 91 99 100 99 99 100 97 97 95 94 90 92 96 96 93 91
83 82 78 76 76 78 80 84 88 89 92 92 91 90 90 86 89 90 87 85 90 90 91 91 94 94 94 97 98 98 97 97 97 97 99 100 100 99 97 88 91 94 99
92 93 88 80 81 82 87 89 90 89 94 99 96 94 93 93 86 88 82 86 88 92 90 92 92 94 98 98 95 98 100 99 98 95 94 94 94 95 97 100 100 99 100
91 94 95 94 96 94 98 98 92 88 100 94 100 100 90 94 85 84 85 87 97 94 92 94 93 94 93 95 98 98 98 99 97 98 96 94 93 95 95 97 99 99 100
69 68 86 96 97 100 100 99 100 100 100 100 100 100 100 97 93 82 83 94 95 94 94 94 94 89 89 90 93 97 99 98 98 97 97 97 96 96 95 95 97 98 100
47 53 55 60 76 76 91 92 94 96 98 97 96 95 92 98 79 80 81 86 89 96 94 97 98 86 91 92 94 96 96 97 96 96 95 96 96 97 96 97 97 97 97
38 42 43 44 43 48 62 74 75 81 84 84 84 88 88 87 88 77 77 80 87 96 99 92 87 85 84 90 93 95 96 97 97 96 97 98 98 98 97 96 97 97 96
38 40 41 42 41 38 43 44 55 68 70 73 80 87 87 84 87 86 85 87 82 87 93 96 90 90 86 89 92 93 96 97 97 97 97 97 97 97 97 98 97 97 95
39 40 46 45 44 41 44 57 56 75 70 71 78 81 91 90 90 79 82 86 88 87 91 93 91 91 90 90 91 90 93 94 93 94 96 96 95 92 95 96 96 96 95
48 47 52 51 50 47 46 49 75 71 69 69 68 74 79 73 72 73 73 72 68 74 83 87 91 91 88 86 88 88 85 84 86 83 86 83 88 87 89 91 91 94 95
63 55 54 57 55 57 59 61 66 64 62 71 67 64 65 67 67 69 70 69 63 66 76 81 85 83 77 68 68 68 73 72 71 76 79 80 78 80 83 85 87 85 88
73 65 67 69 71 71 72 75 75 76 78 77 64 63 64 62 63 65 66 61 67 62 63 68 74 71 64 62 66 67 71 75 70 64 72 74 74 70 70 65 64 69 62
66 68 73 73 73 71 72 72 70 68 69 69 65 62 66 65 59 61 64 73 72 67 62 60 66 67 68 70 77 81 80 80 76 82 81 77 80 68 68 65 65 65 54
65 62 63 68 68 67 66 66 64 64 63 65 66 77 64 65 73 74 73 78 76 70 71 63 64 68 74 70 76 80 79 77 77 77 78 81 80 68 68 66 65 61 51
64 59 57 57 59 59 62 63 60 64 67 64 67 89 71 73 73 70 69 76 74 71 76 71 73 72 68 68 66 75 75 83 76 77 73 77 77 76 65 63 61 55 50
53 53 53 55 52 60 59 57 64 63 66 74 68 62 70 75 69 70 74 80 82 72 67 74 75 67 67 69 70 78 75 79 78 78 82 71 68 69 65 65 67 64 54
51 56 55 49 55 58 63 61 65 76 70 69 74 70 71 77 74 74 74 82 74 78 77 71 78 74 70 76 74 71 74 77 76 77 82 81 66 79 72 69 64 66 67
52 62 56 60 66 64 76 77 74 66 68 71 77 81 84 78 77 75 80 80 75 79 78 79 76 71 69 75 74 69 69 77 76 78 77 75 76 72 69 62 64 68 66
64 71 69 68 72 74 76 77 75 76 79 82 85 85 77 78 77 82 78 75 76 74 73 73 74 68 71 69 73 74 78 79 76 79 80 69 68 66 72 66 72 62 68
68 67 69 72 74 80 80 81 82 81 78 80 81 86 78 74 71 76 77 70 76 69 69 70 66 56 63 67 74 80 79 79 78 80 84 71 70 70 76 65 63 65 63

GFSGL_sfc_rhum_126.txt.gz
RH
92 90 90 92 93 93 94 96 98 95 92 93 93 95 96 94 96 99 97 95 94 93 94 92 92 96 98 94 96 97 96 97 96 85 89 88 88 95 95 96 94 90 88
90 89 92 91 91 93 93 94 93 94 94 92 90 90 89 88 90 93 96 96 99 99 96 97 97 96 92 90 92 93 92 88 94 94 88 94 92 92 94 95 94 90 90
90 88 92 96 92 93 92 90 89 90 91 88 89 90 89 90 90 89 89 92 94 97 97 97 95 93 94 96 95 94 93 91 92 96 93 92 95 95 96 93 93 94 93
86 93 96 96 96 94 93 93 92 89 89 88 87 87 89 88 90 90 91 93 92 91 92 94 95 97 97 94 94 94 94 96 96 96 95 92 96 96 96 95 98 98 99
85 90 94 98 93 95 95 93 92 93 90 85 87 87 86 87 89 93 89 89 89 89 89 86 90 94 94 97 95 98 97 96 95 96 96 99 98 99 98 97 98 98 99
79 82 83 89 88 86 88 88 86 88 89 88 87 86 88 83 91 89 87 87 86 87 90 87 84 89 91 93 96 99 99 99 99 99 98 98 96 95 95 97 98 99 99
80 79 79 78 79 82 80 83 87 88 86 88 88 87 88 87 89 88 86 85 88 90 92 91 86 83 92 91 94 97 96 97 99 98 99 97 96 95 94 98 98 97 95
81 80 78 78 76 75 76 82 85 84 89 89 88 86 88 84 86 87 86 85 88 88 90 90 91 91 93 95 95 96 98 98 97 94 98 98 99 98 98 95 95 97 99
88 87 85 81 81 83 85 87 85 87 91 95 90 83 85 84 81 83 84 87 84 90 90 90 90 92 90 92 93 96 98 98 99 96 94 94 94 93 95 99 100 99 100
80 90 90 88 89 89 89 90 90 85 92 90 94 90 83 86 82 82 80 84 89 90 89 86 85 87 88 90 92 94 97 99 97 95 96 95 96 96 96 98 99 100 100
68 66 76 87 85 86 86 84 86 88 86 88 88 89 88 85 82 76 78 91 95 90 92 93 93 81 82 86 91 96 98 97 96 96 96 96 96 96 96 96 98 98 100
49 56 58 62 65 66 77 81 80 83 85 86 87 87 87 87 76 76 74 76 84 96 97 95 93 85 82 86 90 91 94 95 95 95 95 97 97 97 96 97 97 97 98
43 51 53 53 50 55 66 76 79 78 80 83 85 87 87 85 86 76 76 76 79 92 94 94 88 86 87 88 86 88 90 93 95 95 97 98 98 98 98 98 98 98 96
46 49 50 53 52 52 57 60 78 81 80 81 85 89 89 86 86 83 84 87 79 86 89 90 87 88 86 88 88 88 92 94 95 96 97 97 97 96 96 98 97 98 96
49 50 58 57 57 55 66 77 76 87 80 85 89 88 91 91 84 73 77 85 86 83 88 87 88 89 89 90 89 92 90 91 94 95 95 95 94 94 95 97 97 97 96
58 58 65 66 64 61 61 65 74 78 72 68 65 80 86 67 64 64 67 70 68 72 83 90 91 90 88 87 88 89 90 88 92 94 94 95 95 96 94 91 91 95 96
76 66 67 71 71 72 73 77 81 77 84 85 68 67 63 65 69 64 64 66 64 67 86 89 90 90 87 84 87 86 88 87 86 84 88 88 87 88 89 92 93 92 93
84 78 78 82 84 83 83 84 86 86 87 86 74 76 64 60 69 63 64 69 83 76 79 84 88 87 84 84 86 89 87 90 88 86 91 92 91 91 89 82 80 92 87
76 78 84 84 84 83 83 83 82 81 82 83 83 85 77 58 65 64 69 87 89 87 81 84 85 85 87 85 93 91 94 89 92 94 92 91 92 94 94 93 92 83 84
76 78 79 78 80 79 79 80 77 77 79 82 83 92 87 79 89 88 92 92 90 87 88 84 88 88 88 86 87 92 89 92 92 93 92 94 92 92 94 92 90 92 86
77 71 75 69 72 74 78 75 74 81 82 82 86 96 86 93 91 90 91 93 93 91 90 89 90 91 88 86 85 89 92 92 89 89 93 91 92 94 89 90 92 87 80
66 64 64 68 65 75 74 70 78 78 78 81 80 77 84 93 92 92 91 95 95 93 93 90 92 92 89 93 94 92 91 93 93 91 91 92 92 91 95 93 90 91 85
62 69 68 63 70 74 78 78 81 82 82 83 82 85 86 93 95 93 93 96 93 94 97 95 96 94 90 90 92 88 91 93 93 93 95 94 94 91 93 93 90 91 93
63 74 70 73 81 79 84 87 85 85 81 84 87 87 87 90 90 91 95 97 92 92 95 92 95 91 90 92 91 86 89 94 91 91 94 96 91 86 88 90 93 90 93
77 82 83 83 84 86 86 84 86 86 86 87 87 88 86 88 87 91 93 95 93 91 89 92 95 88 87 90 92 91 95 98 95 95 94 95 91 90 91 94 92 93 87
80 81 84 85 86 88 87 86 87 89 89 89 91 91 87 86 90 91 91 93 96 91 85 94 96 86 77 94 88 98 96 96 95 92 95 94 94 89 91 94 86 94 86

GFSGL_sfc_rhum_129.txt.gz
RH
97 96 94 94 90 90 93 93 95 96 96 97 96 93 94 95 96 98 98 97 96 95 94 95 94 94 95 98 99 96 94 94 95 84 95 94 95 93 95 94 96 97 95
100 100 97 91 91 92 93 92 92 94 95 96 93 93 95 95 94 95 96 96 98 97 96 98 98 98 98 97 97 96 93 88 92 85 95 97 95 95 91 94 96 96 96
100 100 94 91 91 93 95 96 95 92 91 94 92 93 94 94 94 94 93 92 92 94 95 95 96 96 97 97 97 96 96 93 97 97 92 96 93 96 98 97 96 96 96
97 87 93 94 91 90 89 96 99 97 98 96 97 96 94 90 91 91 91 92 90 89 92 92 93 94 96 96 95 97 96 97 93 96 94 92 95 96 92 95 98 97 97
86 87 88 88 90 88 89 90 92 96 99 97 93 93 93 91 91 94 90 90 89 88 89 86 90 91 92 95 95 96 96 97 98 97 97 97 98 99 98 96 96 95 99
77 81 80 80 80 90 94 94 90 90 88 88 90 89 92 88 92 88 85 87 88 89 90 88 82 87 89 92 97 97 97 96 97 98 97 96 88 97 97 97 97 99 99
78 77 78 78 81 81 80 85 87 88 88 88 89 87 88 87 88 88 89 87 89 91 91 91 86 82 89 88 92 93 95 95 99 96 98 97 97 97 97 98 96 97 97
81 79 77 79 82 82 82 84 88 90 89 89 89 87 86 83 86 87 85 85 88 89 91 88 90 90 89 89 89 92 92 95 98 95 98 99 99 98 97 94 97 98 99
88 90 83 80 80 84 88 89 89 90 90 91 88 88 89 87 83 84 84 84 84 89 84 85 86 87 86 89 89 91 92 95 90 90 93 93 93 95 94 95 99 100 100
76 80 90 83 83 81 85 89 88 86 91 88 91 88 84 89 78 76 82 89 94 90 89 91 84 82 82 85 89 93 97 98 96 94 93 92 91 92 91 97 98 99 100
67 63 74 79 85 84 83 82 88 89 88 90 91 90 89 87 86 75 76 90 95 95 95 95 94 84 81 83 85 92 97 97 97 97 95 93 92 93 94 96 97 99 99
59 67 66 74 71 80 85 85 84 87 87 89 90 91 89 90 77 77 77 78 81 96 98 95 93 83 84 80 87 88 90 96 96 95 94 95 96 97 96 98 98 97 98
57 64 67 66 69 72 87 87 88 89 88 88 86 91 91 87 88 74 78 80 80 91 93 85 84 83 84 92 80 84 92 93 95 93 94 95 98 97 95 94 95 97 97
60 63 66 69 67 80 77 83 88 94 90 87 91 97 97 90 88 83 85 88 86 86 91 87 88 86 91 94 96 91 92 94 97 98 98 98 97 96 96 96 96 97 94
65 63 72 74 75 74 84 96 85 96 88 92 97 98 97 93 86 70 75 94 88 85 87 91 92 92 94 92 91 91 92 93 96 97 97 98 98 98 97 97 96 97 95
79 70 79 82 86 78 86 86 75 84 73 74 67 86 92 65 63 62 65 74 71 77 89 96 96 96 95 96 96 96 96 94 94 94 96 96 96 98 98 96 97 97 97
90 70 78 83 82 83 86 86 93 82 74 91 76 67 61 56 64 64 64 67 71 76 92 96 99 98 96 92 94 93 96 96 94 96 97 94 95 90 92 90 97 95 95
94 89 92 94 94 95 94 94 95 96 96 93 92 71 61 57 60 67 65 71 88 85 89 93 95 94 92 90 90 92 92 93 92 92 94 95 96 95 96 88 85 96 97
84 94 95 94 95 96 94 93 96 95 96 97 97 96 88 68 63 70 71 96 98 95 92 92 94 94 94 91 94 93 95 95 94 94 94 94 95 97 96 92 89 94 90
86 91 89 90 91 92 94 92 89 95 92 96 97 98 97 95 98 99 99 100 100 99 98 96 92 93 96 95 96 95 93 94 94 92 95 95 95 96 95 96 93 94 91
92 93 88 85 92 93 95 92 95 95 95 96 95 99 96 99 97 98 100 99 99 99 99 99 99 97 96 94 93 96 94 96 95 95 94 94 94 95 97 92 93 89 85
91 81 90 92 94 95 96 92 96 96 94 96 96 94 93 98 97 97 98 100 100 99 98 99 98 98 98 98 96 100 99 100 98 97 95 94 94 94 95 97 95 94 88
86 90 89 88 90 95 95 94 97 97 97 97 97 97 98 98 99 99 99 98 97 98 99 98 98 96 97 100 100 99 100 100 100 100 99 96 97 95 95 99 95 95 93
89 94 89 89 96 95 97 98 97 97 96 97 99 98 98 99 98 98 99 99 97 96 100 96 98 94 94 100 99 100 98 100 100 100 100 98 97 95 96 96 98 96 96
95 96 97 96 97 97 97 98 97 96 97 97 98 99 98 98 98 98 98 100 98 98 95 98 100 95 94 97 97 95 97 100 100 99 97 98 100 95 99 97 97 98 92
95 92 91 92 93 94 94 96 96 92 91 94 94 95 94 96 98 99 98 100 100 95 90 99 99 96 90 96 95 98 100 100 98 96 99 96 99 96 94 97 91 97 94